[[{"header":{"parameterUnit":"m.s-1","parameterCategory":1,"la1":31.0,"la2":29.5877,"lo1":-88.7671,"lo2":-86.6584,"dy":0.0162,"dx":0.0185,"nx":115,"ny":88,"refTime":"2023-04-21T00:00:00:Z","depth":0,"parameterNumber":2,"parameterNumberName":"U-component_of_WINDS"},"data":[0.0,0.0,0.0,0.0,0.0,0.0,0.0,0.0,0.0,0.0,0.0,0.0,0.0,0.0,0.0,0.0,0.0,0.0,0.0,0.0,0.0,0.0,0.0,0.0,0.0,0.0,0.0,0.0,0.0,0.0,0.0,0.0,0.0,0.0,0.0,0.0,0.0,0.0,0.0,0.0,0.0,0.0,0.0,0.0,0.0,0.0,0.0,0.0,0.0,0.0,0.0,0.0,0.0,0.0,0.0,0.0,0.0,0.0,0.0,0.0,0.0,0.0,0.0,0.0,0.0,0.0,0.0,0.0,0.0,0.0,0.0,0.0,0.0,0.0,0.0,0.0,0.0,0.0,0.0,0.0,0.0,0.0,0.0,0.0,0.0,0.0,0.0,0.0,0.0,0.0,0.0,0.0,0.0,0.0,0.0,0.0,0.0,0.0,0.0,0.0,0.0,0.0,0.0,0.0,0.0,0.0,0.0,0.0,0.0,0.0,0.0,0.0,0.0,0.0,0.0,0.0,0.0,0.0,0.0,0.0,0.0,0.0,0.0,0.0,0.0,0.0,0.0,0.0,0.0,0.0,0.0,0.0,0.0,0.0,0.0,0.0,0.0,0.0,0.0,0.0,0.0,0.0,0.0,0.0,0.0,0.0,0.0,0.0,0.0,0.0,0.0,0.0,0.0,0.0,0.0,0.0,0.0,0.0,0.0,0.0,0.0,0.0,0.0,0.0,0.0,0.0,0.0,0.0,0.0,0.0,0.0,0.0,0.0,0.0,0.0,0.0,0.0,0.0,0.0,0.0,0.0,0.0,0.0,0.0,0.0,0.0,0.0,0.0,0.0,0.0,0.0,0.0,0.0,0.0,0.0,0.0,0.0,0.0,0.0,0.0,0.0,0.0,0.0,0.0,0.0,0.0,0.0,0.0,0.0,0.0,0.0,0.0,0.0,0.0,0.0,0.0,0.0,0.0,0.0,0.0,0.0,0.0,0.0,0.0,0.0,0.0,0.0,0.0,0.0,0.0,0.0,0.0,0.0,0.0,0.0,0.0,0.0,0.0,0.0,0.0,0.0,0.0,0.0,0.0,0.0,0.0,0.0,0.0,0.0,0.0,0.0,0.0,0.0,0.0,0.0,0.0,0.0,0.0,0.0,0.0,0.0,0.0,0.0,0.0,0.0,0.0,0.0,0.0,0.0,0.0,0.0,0.0,0.0,0.0,0.0,0.0,0.0,0.0,0.0,0.0,0.0,0.0,0.0,0.0,0.0,0.0,0.0,0.0,0.0,0.0,0.0,0.0,0.0,0.0,0.0,0.0,0.0,0.0,0.0,0.0,0.0,0.0,0.0,0.0,0.0,0.0,0.0,0.0,0.0,0.0,0.0,0.0,0.0,0.0,0.0,0.0,0.0,0.0,0.0,0.0,0.0,0.0,0.0,0.0,0.0,0.0,0.0,0.0,0.0,0.0,0.0,0.0,0.0,0.0,0.0,0.0,0.0,0.0,0.0,0.0,0.0,0.0,0.0,0.0,0.0,0.0,0.0,0.0,0.0,0.0,0.0,0.0,0.0,0.0,0.0,0.0,0.0,0.0,0.0,0.0,0.0,0.0,0.0,0.0,0.0,0.0,0.0,0.0,0.0,0.0,0.0,0.0,0.0,0.0,0.0,0.0,0.0,0.0,0.0,0.0,0.0,0.0,0.0,0.0,0.0,0.0,0.0,0.0,0.0,0.0,0.0,0.0,0.0,0.0,0.0,0.0,0.0,0.0,0.0,0.0,0.0,0.0,0.0,0.0,0.0,0.0,0.0,0.0,0.0,0.0,0.0,0.0,0.0,0.0,0.0,0.0,0.0,0.0,0.0,0.0,0.0,0.0,0.0,0.0,0.0,0.0,0.0,0.0,0.0,0.0,0.0,0.0,0.0,0.0,0.0,0.0,0.0,0.0,0.0,0.0,0.0,0.0,0.0,0.0,0.0,0.0,0.0,0.0,0.0,0.0,0.0,0.0,0.0,0.0,0.0,0.0,0.0,0.0,0.0,0.0,0.0,0.0,0.0,0.0,0.0,0.0,0.0,0.0,0.0,0.0,0.0,0.0,0.0,0.0,0.0,0.0,0.0,0.0,0.0,0.0,0.0,0.0,0.0,0.0,0.0,0.0,0.0,0.0,0.0,0.0,0.0,0.0,0.0,0.0,0.0,0.0,0.0,0.0,0.0,0.0,0.0,0.0,0.0,0.0,0.0,0.0,0.0,0.0,0.0,0.0,0.0,0.0,0.0,0.0,0.0,0.0,0.0,0.0,0.0,0.0,0.0,0.0,0.0,0.0,0.0,0.0,0.0,0.0,0.0,0.0,0.0,0.0,0.0,0.0,0.0,0.0,0.0,0.0,0.0,0.0,0.0,0.0,0.0,0.0,0.0,0.0,0.0,0.0,0.0,0.0,0.0,0.0,0.0,0.0,0.0,0.0,0.0,0.0,0.0,0.0,0.0,0.0,0.0,0.0,0.0,0.0,0.0,0.0,0.0,0.0,0.0,0.0,0.0,0.0,0.0,0.0,0.0,0.0,0.0,0.0,0.0,0.0,0.0,0.0,0.0,0.0,0.0,0.0,0.0,0.0,0.0,0.0,0.0,0.0,0.0,0.0,0.0,0.0,0.0,0.0,0.0,0.0,0.0,0.0,0.0,0.0,0.0,0.0,0.0,0.0,0.0,0.0,0.0,0.0,0.0,0.0,0.0,0.0,0.0,0.0,0.0,0.0,0.0,0.0,0.0,0.0,0.0,0.0,0.0,0.0,0.0,0.0,0.0,0.0,0.0,0.0,0.0,0.0,0.0,0.0,0.0,0.0,0.0,0.0,0.0,0.0,0.0,0.0,0.0,0.0,0.0,0.0,0.0,0.0,0.0,0.0,0.0,0.0,0.0,0.0,0.0,0.0,0.0,0.0,0.0,0.0,0.0,0.0,0.0,0.0,0.0,0.0,0.0,0.0,0.0,0.0,0.0,0.0,0.0,0.0,0.0,0.0,0.0,0.0,0.0,0.0,0.0,0.0,0.0,0.0,0.0,0.0,0.0,0.0,0.0,0.0,0.0,0.0,0.0,0.0,0.0,0.0,0.0,0.0,0.0,0.0,0.0,0.0,0.0,0.0,0.0,0.0,0.0,0.0,0.0,0.0,0.0,0.0,0.0,0.0,0.0,0.0,0.0,0.0,0.0,0.0,0.0,0.0,0.0,0.0,0.0,0.0,0.0,0.0,0.0,0.0,0.0,0.0,0.0,0.0,0.0,0.0,0.0,0.0,0.0,0.0,0.0,0.0,0.0,0.0,0.0,0.0,0.0,0.0,0.0,0.0,0.0,0.0,0.0,0.0,0.0,0.0,0.0,0.0,0.0,0.0,0.0,0.0,0.0,0.0,0.0,0.0,0.0,0.0,0.0,0.0,0.0,0.0,0.0,0.0,0.0,0.0,0.0,0.0,0.0,0.0,0.0,0.0,0.0,0.0,0.0,0.0,0.0,0.0,0.0,0.0,0.0,0.0,0.0,0.0,0.0,0.0,0.0,0.0,0.0,0.0,0.0,0.0,0.0,0.0,0.0,0.0,0.0,0.0,0.0,0.0,0.0,0.0,0.0,0.0,0.0,0.0,0.0,0.0,0.0,0.0,0.0,0.0,0.0,0.0,0.0,0.0,0.0,0.0,0.0,0.0,0.0,0.0,0.0,0.0,0.0,0.0,0.0,0.0,0.0,0.0,0.0,0.0,0.0,0.0,0.0,0.0,0.0,0.0,0.0,0.0,0.0,0.0,0.0,0.0,0.0,0.0,0.0,0.0,0.0,0.0,0.0,0.0,0.0,0.0,0.0,0.0,0.0,0.0,0.0,0.0,0.0,0.0,0.0,0.0,0.0,0.0,0.0,0.0,0.0,0.0,0.0,0.0,0.0,0.0,0.0,0.0,0.0,0.0,0.0,0.0,0.0,0.0,0.0,0.0,0.0,0.0,0.0,0.0,0.0,0.0,0.0,0.0,0.0,0.0,0.0,0.0,0.0,0.0,0.0,0.0,0.0,0.0,0.0,0.0,0.0,0.0,0.0,0.0,0.0,0.0,0.0,0.0,0.0,0.0,0.0,0.0,0.0,0.0,0.0,0.0,0.0,0.0,0.0,0.0,0.0,0.0,0.0,0.0,0.0,0.0,0.0,0.0,0.0,0.0,0.0,0.0,0.0,0.0,0.0,0.0,0.0,0.0,0.0,0.0,0.0,0.0,0.0,0.0,0.0,0.0,-3.571,0.0,0.0,0.0,0.0,0.0,0.0,0.0,0.0,0.0,0.0,0.0,0.0,0.0,0.0,0.0,0.0,0.0,0.0,0.0,0.0,0.0,0.0,0.0,0.0,0.0,0.0,0.0,0.0,0.0,0.0,0.0,0.0,0.0,0.0,0.0,0.0,0.0,0.0,0.0,0.0,0.0,0.0,0.0,0.0,0.0,0.0,0.0,0.0,0.0,0.0,0.0,0.0,0.0,0.0,0.0,0.0,0.0,0.0,0.0,0.0,0.0,0.0,0.0,0.0,0.0,0.0,0.0,0.0,0.0,0.0,0.0,0.0,0.0,0.0,0.0,0.0,0.0,0.0,0.0,0.0,0.0,0.0,0.0,0.0,0.0,0.0,0.0,0.0,0.0,0.0,0.0,0.0,0.0,0.0,0.0,0.0,0.0,0.0,0.0,0.0,0.0,0.0,0.0,0.0,0.0,0.0,0.0,0.0,0.0,0.0,-3.7976,-3.7117,-3.6307,-3.5882,-3.5877,0.0,0.0,0.0,0.0,0.0,0.0,0.0,0.0,0.0,0.0,0.0,0.0,0.0,0.0,0.0,0.0,0.0,0.0,0.0,0.0,0.0,0.0,0.0,0.0,0.0,0.0,0.0,0.0,0.0,0.0,0.0,0.0,0.0,0.0,0.0,0.0,0.0,0.0,0.0,0.0,0.0,0.0,0.0,0.0,0.0,0.0,0.0,0.0,0.0,0.0,0.0,0.0,0.0,0.0,0.0,0.0,0.0,0.0,0.0,0.0,0.0,0.0,0.0,0.0,0.0,0.0,0.0,0.0,0.0,0.0,0.0,0.0,0.0,0.0,0.0,0.0,0.0,0.0,0.0,0.0,0.0,0.0,0.0,0.0,0.0,0.0,0.0,0.0,0.0,0.0,0.0,0.0,0.0,0.0,0.0,0.0,0.0,0.0,0.0,0.0,0.0,0.0,0.0,0.0,0.0,0.0,0.0,0.0,0.0,0.0,0.0,0.0,-3.6501,-3.5898,-3.5346,0.0,0.0,0.0,0.0,0.0,0.0,0.0,0.0,0.0,0.0,0.0,0.0,0.0,0.0,0.0,0.0,0.0,0.0,0.0,0.0,0.0,0.0,0.0,0.0,0.0,0.0,0.0,0.0,0.0,0.0,0.0,0.0,0.0,0.0,0.0,0.0,0.0,0.0,0.0,0.0,0.0,0.0,0.0,0.0,0.0,0.0,0.0,0.0,0.0,0.0,0.0,0.0,0.0,0.0,0.0,0.0,0.0,0.0,0.0,0.0,0.0,0.0,0.0,0.0,0.0,0.0,0.0,0.0,0.0,0.0,0.0,0.0,0.0,0.0,0.0,0.0,0.0,0.0,0.0,0.0,0.0,0.0,0.0,0.0,0.0,0.0,0.0,0.0,0.0,0.0,0.0,0.0,0.0,0.0,0.0,0.0,0.0,0.0,0.0,0.0,0.0,0.0,0.0,0.0,0.0,0.0,0.0,0.0,0.0,0.0,-3.8788,-3.7155,-3.7023,0.0,-3.3834,0.0,0.0,0.0,0.0,0.0,0.0,0.0,0.0,0.0,0.0,0.0,0.0,0.0,0.0,0.0,0.0,0.0,0.0,0.0,0.0,0.0,0.0,0.0,0.0,0.0,0.0,0.0,0.0,0.0,0.0,0.0,0.0,0.0,0.0,0.0,0.0,0.0,0.0,0.0,0.0,0.0,0.0,0.0,0.0,0.0,0.0,0.0,0.0,0.0,0.0,0.0,0.0,0.0,0.0,0.0,0.0,0.0,0.0,0.0,0.0,0.0,0.0,0.0,0.0,0.0,0.0,0.0,0.0,0.0,0.0,0.0,0.0,0.0,0.0,0.0,0.0,0.0,0.0,0.0,0.0,0.0,0.0,0.0,0.0,0.0,0.0,0.0,0.0,0.0,0.0,0.0,0.0,0.0,0.0,0.0,0.0,0.0,0.0,0.0,0.0,0.0,0.0,0.0,0.0,0.0,0.0,0.0,0.0,0.0,0.0,-3.9118,-3.7898,-3.6907,-3.5452,0.0,0.0,0.0,0.0,0.0,0.0,0.0,0.0,0.0,0.0,0.0,0.0,0.0,0.0,0.0,0.0,0.0,0.0,0.0,0.0,0.0,0.0,0.0,0.0,0.0,0.0,0.0,0.0,0.0,0.0,0.0,0.0,0.0,0.0,0.0,0.0,0.0,0.0,0.0,0.0,0.0,0.0,0.0,0.0,0.0,0.0,0.0,0.0,0.0,0.0,0.0,0.0,0.0,0.0,0.0,0.0,0.0,0.0,0.0,0.0,0.0,0.0,0.0,0.0,0.0,0.0,0.0,0.0,0.0,0.0,0.0,0.0,0.0,0.0,0.0,0.0,0.0,0.0,0.0,0.0,0.0,0.0,0.0,0.0,0.0,0.0,0.0,0.0,0.0,0.0,0.0,0.0,0.0,0.0,0.0,0.0,0.0,0.0,0.0,0.0,0.0,0.0,0.0,0.0,0.0,0.0,0.0,0.0,0.0,0.0,-3.9208,-3.9287,-3.8412,-3.6796,-3.5122,-3.3455,0.0,0.0,0.0,0.0,0.0,0.0,0.0,0.0,0.0,0.0,0.0,0.0,0.0,0.0,0.0,0.0,0.0,0.0,0.0,0.0,0.0,0.0,0.0,0.0,0.0,0.0,0.0,0.0,0.0,0.0,0.0,0.0,0.0,0.0,0.0,0.0,0.0,0.0,0.0,0.0,0.0,0.0,0.0,0.0,0.0,0.0,0.0,0.0,0.0,0.0,0.0,0.0,0.0,0.0,0.0,0.0,0.0,0.0,0.0,0.0,0.0,0.0,0.0,0.0,0.0,0.0,0.0,0.0,0.0,0.0,0.0,0.0,0.0,0.0,0.0,0.0,0.0,0.0,0.0,0.0,0.0,0.0,0.0,0.0,0.0,0.0,0.0,0.0,0.0,0.0,0.0,0.0,0.0,0.0,0.0,0.0,0.0,0.0,0.0,0.0,0.0,0.0,0.0,0.0,0.0,0.0,0.0,0.0,-3.8272,-3.9198,-3.9291,-3.8494,-3.681,-3.5115,0.0,0.0,0.0,0.0,0.0,0.0,0.0,0.0,0.0,0.0,0.0,0.0,0.0,0.0,0.0,0.0,0.0,0.0,0.0,0.0,0.0,0.0,0.0,0.0,0.0,0.0,0.0,0.0,0.0,0.0,0.0,0.0,0.0,0.0,0.0,0.0,0.0,0.0,0.0,0.0,0.0,0.0,0.0,0.0,0.0,0.0,0.0,0.0,0.0,0.0,0.0,0.0,0.0,0.0,0.0,0.0,0.0,0.0,0.0,0.0,0.0,0.0,0.0,0.0,0.0,0.0,0.0,0.0,0.0,0.0,0.0,0.0,0.0,0.0,0.0,0.0,0.0,0.0,0.0,0.0,0.0,0.0,0.0,0.0,0.0,0.0,0.0,0.0,0.0,0.0,0.0,0.0,0.0,0.0,0.0,0.0,0.0,0.0,0.0,0.0,0.0,0.0,0.0,0.0,0.0,0.0,0.0,0.0,0.0,-3.8253,-3.8667,-3.8742,-3.8455,-3.6813,-3.511,0.0,0.0,0.0,0.0,0.0,0.0,0.0,0.0,0.0,0.0,0.0,0.0,0.0,0.0,0.0,0.0,0.0,0.0,0.0,0.0,0.0,0.0,0.0,0.0,0.0,0.0,0.0,0.0,0.0,0.0,0.0,0.0,0.0,0.0,0.0,0.0,0.0,0.0,0.0,0.0,0.0,0.0,0.0,0.0,0.0,0.0,0.0,0.0,0.0,0.0,0.0,0.0,0.0,0.0,0.0,0.0,0.0,0.0,0.0,0.0,0.0,0.0,0.0,0.0,0.0,0.0,0.0,0.0,0.0,0.0,0.0,0.0,0.0,0.0,0.0,0.0,0.0,0.0,0.0,0.0,0.0,0.0,0.0,0.0,0.0,0.0,0.0,0.0,0.0,0.0,0.0,0.0,0.0,0.0,0.0,0.0,0.0,0.0,0.0,0.0,0.0,0.0,0.0,0.0,0.0,0.0,0.0,0.0,0.0,-3.8282,0.0,-3.873,-3.8465,-3.7088,-3.5407,0.0,0.0,0.0,0.0,0.0,0.0,0.0,0.0,0.0,0.0,0.0,0.0,0.0,0.0,0.0,0.0,0.0,0.0,0.0,0.0,0.0,0.0,0.0,0.0,0.0,0.0,0.0,0.0,0.0,0.0,0.0,0.0,0.0,0.0,0.0,0.0,0.0,0.0,0.0,0.0,0.0,0.0,0.0,0.0,0.0,0.0,0.0,0.0,0.0,0.0,0.0,0.0,0.0,0.0,0.0,0.0,0.0,0.0,0.0,0.0,0.0,0.0,0.0,0.0,0.0,0.0,0.0,0.0,0.0,0.0,0.0,0.0,0.0,0.0,0.0,0.0,0.0,0.0,0.0,0.0,0.0,0.0,0.0,0.0,0.0,0.0,0.0,0.0,0.0,0.0,0.0,0.0,0.0,0.0,0.0,0.0,0.0,0.0,0.0,0.0,0.0,0.0,0.0,0.0,0.0,0.0,0.0,0.0,-3.6632,-3.8369,-3.9264,-3.9279,-3.8519,-3.7608,-3.5981,0.0,0.0,0.0,0.0,0.0,0.0,0.0,0.0,0.0,0.0,0.0,0.0,0.0,0.0,0.0,0.0,0.0,0.0,0.0,0.0,0.0,0.0,0.0,0.0,0.0,0.0,0.0,0.0,0.0,0.0,0.0,0.0,0.0,0.0,0.0,0.0,0.0,0.0,0.0,0.0,0.0,0.0,0.0,0.0,0.0,0.0,0.0,0.0,0.0,0.0,0.0,0.0,0.0,0.0,0.0,0.0,0.0,0.0,0.0,0.0,0.0,0.0,0.0,0.0,0.0,0.0,0.0,0.0,0.0,0.0,0.0,0.0,0.0,0.0,0.0,0.0,0.0,0.0,0.0,0.0,0.0,0.0,0.0,0.0,0.0,0.0,0.0,0.0,0.0,0.0,0.0,0.0,0.0,0.0,0.0,0.0,0.0,0.0,0.0,0.0,0.0,0.0,0.0,0.0,0.0,0.0,0.0,0.0,0.0,-3.9245,-3.9556,-3.9325,-3.8511,-3.7652,-3.6005,0.0,0.0,0.0,0.0,0.0,0.0,0.0,0.0,0.0,0.0,0.0,0.0,0.0,0.0,0.0,0.0,0.0,0.0,0.0,0.0,0.0,0.0,0.0,0.0,0.0,0.0,0.0,0.0,0.0,0.0,0.0,0.0,0.0,0.0,0.0,0.0,0.0,0.0,0.0,0.0,0.0,0.0,0.0,0.0,0.0,0.0,0.0,0.0,0.0,0.0,0.0,0.0,0.0,0.0,0.0,0.0,0.0,0.0,0.0,0.0,0.0,0.0,0.0,0.0,0.0,0.0,0.0,0.0,0.0,0.0,0.0,0.0,0.0,0.0,0.0,0.0,0.0,0.0,0.0,0.0,0.0,0.0,0.0,0.0,0.0,0.0,0.0,0.0,0.0,0.0,0.0,0.0,0.0,0.0,0.0,0.0,0.0,0.0,0.0,0.0,0.0,0.0,0.0,0.0,0.0,0.0,0.0,0.0,0.0,-4.1057,-4.0519,-3.9971,-3.9494,-3.8307,-3.6485,-3.3991,0.0,0.0,0.0,0.0,0.0,0.0,0.0,0.0,0.0,0.0,0.0,0.0,0.0,0.0,0.0,0.0,0.0,0.0,0.0,0.0,0.0,0.0,0.0,0.0,0.0,0.0,0.0,0.0,0.0,0.0,0.0,0.0,0.0,0.0,0.0,0.0,0.0,0.0,0.0,0.0,0.0,0.0,0.0,0.0,0.0,0.0,0.0,0.0,0.0,0.0,0.0,0.0,0.0,0.0,0.0,0.0,0.0,0.0,0.0,0.0,0.0,0.0,0.0,0.0,0.0,0.0,0.0,0.0,0.0,0.0,0.0,0.0,0.0,0.0,0.0,0.0,0.0,0.0,0.0,0.0,0.0,0.0,0.0,0.0,0.0,0.0,0.0,0.0,0.0,0.0,0.0,0.0,0.0,0.0,0.0,0.0,0.0,0.0,0.0,0.0,0.0,0.0,0.0,0.0,0.0,0.0,0.0,0.0,-4.3569,-4.2006,-4.1156,-4.1137,-3.9474,-3.7357,0.0,0.0,0.0,0.0,0.0,0.0,0.0,0.0,0.0,0.0,0.0,0.0,0.0,0.0,0.0,0.0,0.0,0.0,0.0,0.0,0.0,0.0,0.0,0.0,0.0,0.0,0.0,0.0,0.0,0.0,0.0,0.0,0.0,0.0,0.0,0.0,0.0,0.0,0.0,0.0,0.0,0.0,0.0,0.0,0.0,0.0,0.0,0.0,0.0,0.0,0.0,0.0,0.0,0.0,0.0,0.0,0.0,0.0,0.0,0.0,0.0,0.0,0.0,0.0,0.0,0.0,0.0,0.0,0.0,0.0,0.0,0.0,0.0,0.0,0.0,0.0,0.0,0.0,0.0,0.0,0.0,0.0,0.0,0.0,0.0,0.0,0.0,0.0,0.0,0.0,0.0,0.0,0.0,0.0,0.0,0.0,0.0,0.0,0.0,0.0,0.0,0.0,0.0,0.0,0.0,0.0,0.0,0.0,0.0,-4.3452,-4.3197,-4.27,-4.2069,-4.0368,-3.7956,0.0,0.0,0.0,0.0,0.0,0.0,0.0,0.0,0.0,0.0,0.0,0.0,0.0,0.0,0.0,0.0,0.0,0.0,0.0,0.0,0.0,0.0,0.0,0.0,0.0,0.0,0.0,0.0,0.0,0.0,0.0,0.0,0.0,0.0,0.0,0.0,0.0,0.0,0.0,0.0,0.0,0.0,0.0,0.0,0.0,0.0,0.0,0.0,0.0,0.0,0.0,0.0,0.0,0.0,0.0,0.0,0.0,0.0,0.0,0.0,0.0,0.0,0.0,0.0,0.0,0.0,0.0,0.0,0.0,0.0,0.0,0.0,0.0,0.0,0.0,0.0,0.0,0.0,0.0,0.0,0.0,0.0,0.0,0.0,0.0,0.0,0.0,0.0,0.0,0.0,0.0,0.0,0.0,0.0,0.0,0.0,0.0,0.0,0.0,0.0,0.0,0.0,0.0,0.0,0.0,0.0,0.0,0.0,-4.1887,-4.4097,-4.458,-4.4376,-4.3511,-4.1121,-3.8585,0.0,0.0,0.0,0.0,0.0,0.0,0.0,0.0,0.0,0.0,0.0,0.0,0.0,0.0,0.0,0.0,0.0,0.0,0.0,0.0,0.0,0.0,0.0,0.0,0.0,0.0,0.0,0.0,0.0,0.0,0.0,0.0,0.0,0.0,0.0,0.0,0.0,0.0,0.0,0.0,0.0,0.0,0.0,0.0,0.0,0.0,0.0,0.0,0.0,0.0,0.0,0.0,0.0,0.0,0.0,0.0,0.0,0.0,0.0,0.0,0.0,0.0,0.0,0.0,0.0,0.0,0.0,0.0,0.0,0.0,0.0,0.0,0.0,0.0,0.0,0.0,0.0,0.0,0.0,0.0,0.0,0.0,0.0,0.0,0.0,0.0,0.0,0.0,0.0,0.0,0.0,0.0,0.0,0.0,0.0,0.0,0.0,0.0,0.0,0.0,0.0,0.0,0.0,0.0,0.0,0.0,0.0,0.0,-4.3139,-4.486,-4.5722,-4.5753,-4.4816,-4.172,-3.9181,0.0,0.0,0.0,0.0,0.0,0.0,0.0,0.0,0.0,0.0,0.0,0.0,0.0,0.0,0.0,0.0,0.0,0.0,0.0,0.0,0.0,0.0,0.0,0.0,0.0,0.0,0.0,0.0,0.0,0.0,0.0,0.0,0.0,0.0,0.0,0.0,0.0,0.0,0.0,0.0,0.0,0.0,0.0,0.0,0.0,0.0,0.0,0.0,0.0,0.0,0.0,0.0,0.0,0.0,0.0,0.0,0.0,0.0,0.0,0.0,0.0,0.0,0.0,0.0,0.0,0.0,0.0,0.0,0.0,0.0,0.0,0.0,0.0,0.0,0.0,0.0,0.0,0.0,0.0,0.0,0.0,0.0,0.0,0.0,0.0,0.0,0.0,0.0,0.0,0.0,0.0,0.0,0.0,0.0,0.0,0.0,0.0,0.0,0.0,0.0,0.0,0.0,0.0,0.0,0.0,0.0,0.0,0.0,-4.314,-4.4844,-4.5163,-4.4866,-4.3997,-4.1954,-3.9731,0.0,0.0,0.0,0.0,0.0,0.0,0.0,0.0,0.0,0.0,0.0,0.0,0.0,0.0,0.0,0.0,0.0,0.0,0.0,0.0,0.0,0.0,0.0,0.0,0.0,0.0,0.0,0.0,0.0,0.0,0.0,0.0,0.0,0.0,0.0,0.0,0.0,0.0,0.0,0.0,0.0,0.0,0.0,0.0,0.0,0.0,0.0,0.0,-3.0778,0.0,0.0,0.0,0.0,0.0,0.0,0.0,0.0,0.0,0.0,0.0,0.0,0.0,0.0,0.0,0.0,0.0,0.0,0.0,0.0,0.0,0.0,0.0,0.0,0.0,0.0,0.0,0.0,0.0,0.0,0.0,0.0,0.0,0.0,0.0,0.0,0.0,0.0,0.0,0.0,0.0,0.0,0.0,0.0,0.0,0.0,0.0,0.0,0.0,0.0,0.0,0.0,0.0,0.0,0.0,0.0,0.0,0.0,0.0,-4.2955,-4.4275,-4.4374,-4.4157,-4.3641,-4.1652,-3.9718,0.0,0.0,0.0,0.0,0.0,0.0,0.0,0.0,0.0,0.0,0.0,0.0,0.0,0.0,0.0,0.0,0.0,0.0,0.0,0.0,0.0,0.0,0.0,0.0,0.0,0.0,0.0,0.0,0.0,0.0,0.0,0.0,0.0,0.0,0.0,0.0,0.0,0.0,0.0,0.0,0.0,0.0,0.0,0.0,0.0,0.0,0.0,0.0,0.0,0.0,0.0,0.0,0.0,0.0,0.0,0.0,0.0,0.0,0.0,0.0,0.0,0.0,0.0,0.0,0.0,0.0,0.0,0.0,0.0,0.0,0.0,0.0,0.0,0.0,0.0,0.0,0.0,0.0,0.0,0.0,0.0,0.0,0.0,0.0,0.0,0.0,0.0,0.0,0.0,0.0,0.0,0.0,0.0,0.0,0.0,0.0,0.0,0.0,0.0,0.0,0.0,0.0,0.0,0.0,0.0,0.0,0.0,-4.0951,-4.2638,-4.3626,-4.3569,-4.3505,-4.3474,-4.117,-3.943,-3.841,0.0,0.0,0.0,0.0,0.0,0.0,0.0,0.0,0.0,0.0,0.0,0.0,0.0,0.0,0.0,0.0,0.0,0.0,0.0,0.0,0.0,0.0,0.0,0.0,0.0,0.0,0.0,0.0,0.0,0.0,0.0,0.0,0.0,0.0,0.0,0.0,0.0,0.0,-3.3574,-3.3592,0.0,0.0,0.0,0.0,0.0,0.0,0.0,0.0,-3.0903,0.0,0.0,0.0,0.0,0.0,0.0,0.0,0.0,0.0,0.0,0.0,0.0,0.0,0.0,0.0,0.0,0.0,0.0,0.0,0.0,0.0,0.0,0.0,0.0,0.0,0.0,0.0,0.0,0.0,0.0,0.0,0.0,0.0,0.0,0.0,0.0,0.0,0.0,0.0,0.0,0.0,0.0,0.0,0.0,0.0,0.0,0.0,0.0,0.0,0.0,0.0,0.0,0.0,0.0,0.0,0.0,-3.9482,-4.0701,-4.2039,-4.3556,-4.2942,-4.2627,-4.2556,-4.0838,-3.9159,-3.7519,0.0,0.0,0.0,0.0,0.0,0.0,0.0,0.0,0.0,0.0,0.0,0.0,0.0,0.0,0.0,0.0,0.0,0.0,0.0,0.0,0.0,0.0,0.0,0.0,0.0,0.0,0.0,0.0,0.0,0.0,0.0,0.0,0.0,0.0,0.0,0.0,0.0,0.0,0.0,-3.4472,-3.449,0.0,0.0,0.0,0.0,0.0,0.0,0.0,0.0,-3.1042,0.0,0.0,0.0,0.0,0.0,0.0,0.0,0.0,0.0,0.0,0.0,0.0,0.0,0.0,0.0,0.0,0.0,0.0,0.0,0.0,0.0,0.0,0.0,0.0,0.0,0.0,0.0,0.0,0.0,0.0,0.0,0.0,0.0,0.0,0.0,0.0,0.0,0.0,0.0,0.0,0.0,0.0,0.0,0.0,0.0,0.0,0.0,0.0,0.0,0.0,0.0,0.0,0.0,0.0,0.0,-3.902,-3.9973,-4.1247,-4.2889,-4.2169,-4.1733,-4.1698,-4.0116,-3.8203,0.0,0.0,0.0,0.0,0.0,0.0,0.0,0.0,0.0,0.0,0.0,0.0,0.0,0.0,0.0,0.0,0.0,0.0,0.0,0.0,0.0,0.0,0.0,0.0,0.0,0.0,0.0,0.0,0.0,0.0,0.0,0.0,0.0,0.0,0.0,0.0,0.0,0.0,0.0,0.0,-3.5761,-3.572,-3.4817,0.0,0.0,0.0,0.0,0.0,0.0,-3.2049,-3.1615,0.0,0.0,0.0,0.0,0.0,0.0,0.0,0.0,0.0,0.0,0.0,0.0,0.0,0.0,0.0,0.0,0.0,0.0,0.0,0.0,0.0,0.0,0.0,0.0,0.0,0.0,0.0,0.0,0.0,0.0,0.0,0.0,0.0,0.0,0.0,0.0,0.0,0.0,0.0,0.0,0.0,0.0,0.0,0.0,0.0,0.0,0.0,0.0,0.0,0.0,0.0,0.0,0.0,0.0,0.0,-3.8441,-3.9182,-4.0376,-4.2002,-4.1297,-4.0856,-4.082,-3.9043,-3.7011,0.0,0.0,0.0,0.0,0.0,0.0,0.0,0.0,0.0,0.0,0.0,0.0,0.0,0.0,0.0,0.0,0.0,0.0,0.0,0.0,0.0,0.0,0.0,0.0,0.0,0.0,0.0,0.0,0.0,0.0,0.0,0.0,0.0,0.0,0.0,0.0,0.0,0.0,0.0,0.0,0.0,-3.6716,-3.5188,-3.5714,0.0,0.0,0.0,0.0,-3.344,-3.2828,0.0,0.0,0.0,0.0,0.0,0.0,0.0,0.0,0.0,0.0,0.0,0.0,0.0,0.0,0.0,0.0,0.0,0.0,0.0,0.0,0.0,0.0,0.0,0.0,0.0,0.0,0.0,0.0,0.0,0.0,0.0,0.0,0.0,0.0,0.0,0.0,0.0,0.0,0.0,0.0,0.0,0.0,0.0,0.0,0.0,0.0,0.0,0.0,0.0,0.0,0.0,0.0,0.0,0.0,0.0,0.0,-3.8384,-3.86,-3.9484,-4.1095,-4.0455,-4.0034,-4.0018,-3.7597,-3.5801,0.0,0.0,0.0,0.0,0.0,0.0,0.0,0.0,0.0,0.0,0.0,0.0,0.0,0.0,0.0,0.0,0.0,0.0,0.0,0.0,0.0,0.0,0.0,0.0,0.0,0.0,0.0,0.0,0.0,0.0,0.0,0.0,0.0,0.0,0.0,0.0,0.0,0.0,0.0,0.0,0.0,-3.6933,-3.5994,-3.66,-3.654,0.0,0.0,-3.4273,-3.3524,-3.3315,0.0,0.0,0.0,0.0,0.0,0.0,0.0,0.0,0.0,0.0,0.0,0.0,0.0,0.0,0.0,0.0,0.0,0.0,0.0,0.0,0.0,0.0,0.0,0.0,0.0,0.0,0.0,0.0,0.0,0.0,0.0,0.0,0.0,0.0,0.0,0.0,0.0,0.0,0.0,0.0,0.0,0.0,0.0,0.0,0.0,0.0,0.0,0.0,0.0,0.0,0.0,0.0,0.0,0.0,0.0,-3.5088,-3.7657,-3.7759,-3.8349,-3.9564,-3.9277,-3.888,-3.8436,-3.6855,-3.537,0.0,0.0,0.0,0.0,0.0,0.0,0.0,0.0,0.0,0.0,0.0,0.0,0.0,0.0,0.0,0.0,0.0,0.0,0.0,0.0,0.0,0.0,0.0,0.0,0.0,0.0,0.0,0.0,0.0,0.0,0.0,0.0,0.0,0.0,0.0,0.0,0.0,0.0,0.0,0.0,0.0,0.0,-3.5547,-3.6836,0.0,0.0,0.0,-3.5312,-3.4941,0.0,0.0,0.0,0.0,0.0,0.0,0.0,0.0,0.0,0.0,0.0,0.0,0.0,0.0,0.0,0.0,0.0,0.0,0.0,0.0,0.0,0.0,0.0,0.0,0.0,0.0,0.0,0.0,0.0,0.0,0.0,0.0,0.0,0.0,0.0,0.0,0.0,0.0,0.0,0.0,0.0,0.0,0.0,0.0,0.0,0.0,0.0,0.0,0.0,0.0,0.0,0.0,0.0,0.0,0.0,0.0,0.0,-3.6784,-3.7089,-3.7623,-3.8456,-3.8292,-3.79,-3.7301,-3.6035,0.0,0.0,0.0,0.0,0.0,0.0,0.0,0.0,0.0,0.0,0.0,0.0,0.0,0.0,0.0,0.0,0.0,0.0,0.0,0.0,0.0,0.0,0.0,0.0,0.0,0.0,0.0,-2.9677,0.0,0.0,0.0,0.0,0.0,0.0,0.0,0.0,0.0,0.0,0.0,0.0,0.0,0.0,-3.7734,-3.5351,-3.707,-3.7753,0.0,0.0,-3.5837,-3.5426,-3.4452,-3.3515,0.0,0.0,0.0,0.0,0.0,0.0,0.0,0.0,0.0,0.0,0.0,0.0,0.0,0.0,0.0,0.0,0.0,0.0,0.0,0.0,0.0,0.0,0.0,0.0,0.0,0.0,0.0,0.0,0.0,0.0,0.0,0.0,0.0,0.0,0.0,0.0,0.0,0.0,0.0,0.0,0.0,0.0,0.0,0.0,0.0,0.0,0.0,0.0,0.0,0.0,0.0,0.0,0.0,0.0,0.0,-3.5854,-3.6761,-3.7592,-3.8433,-3.7695,-3.7288,-3.7259,-3.4883,-3.3534,0.0,0.0,0.0,0.0,0.0,0.0,0.0,0.0,0.0,0.0,0.0,0.0,0.0,0.0,0.0,0.0,0.0,0.0,0.0,0.0,0.0,0.0,0.0,0.0,0.0,0.0,0.0,0.0,0.0,0.0,0.0,0.0,0.0,0.0,0.0,0.0,0.0,0.0,0.0,0.0,0.0,-3.7948,-3.6152,-3.7459,-3.7964,0.0,0.0,-3.5442,-3.3826,-3.4157,-3.3825,-3.1465,0.0,0.0,0.0,0.0,0.0,0.0,0.0,0.0,0.0,0.0,0.0,0.0,0.0,0.0,0.0,0.0,0.0,0.0,0.0,0.0,0.0,0.0,0.0,0.0,0.0,0.0,0.0,0.0,0.0,0.0,0.0,0.0,0.0,0.0,0.0,0.0,0.0,0.0,0.0,0.0,0.0,0.0,0.0,0.0,0.0,0.0,0.0,0.0,0.0,0.0,0.0,0.0,0.0,-3.3278,-3.5025,-3.5395,-3.6021,-3.6846,-3.6581,-3.6444,-3.6488,-3.449,-3.3379,0.0,0.0,0.0,0.0,0.0,0.0,0.0,0.0,0.0,0.0,0.0,0.0,0.0,0.0,0.0,0.0,0.0,0.0,0.0,0.0,0.0,0.0,0.0,0.0,0.0,0.0,0.0,0.0,-3.1652,-3.1551,-3.1313,0.0,0.0,0.0,0.0,0.0,0.0,0.0,0.0,0.0,0.0,-3.7362,-3.617,-3.6574,0.0,0.0,-3.5195,-3.4779,-3.3601,-3.3682,-3.3372,-3.1872,-3.1484,0.0,0.0,0.0,0.0,0.0,0.0,0.0,0.0,0.0,0.0,0.0,0.0,0.0,0.0,0.0,0.0,0.0,0.0,0.0,0.0,0.0,0.0,0.0,0.0,0.0,0.0,0.0,0.0,0.0,0.0,0.0,0.0,0.0,0.0,0.0,0.0,0.0,0.0,0.0,0.0,0.0,0.0,0.0,0.0,0.0,0.0,0.0,0.0,0.0,0.0,0.0,0.0,-3.2672,-3.4202,-3.4465,-3.5012,-3.5883,-3.5919,-3.5955,-3.596,-3.4292,-3.3378,0.0,0.0,0.0,0.0,0.0,0.0,0.0,0.0,0.0,0.0,0.0,0.0,0.0,0.0,0.0,0.0,0.0,0.0,0.0,0.0,0.0,0.0,0.0,0.0,0.0,0.0,0.0,0.0,-3.2494,-3.2138,-3.1291,0.0,0.0,0.0,0.0,0.0,0.0,0.0,0.0,0.0,0.0,-3.697,-3.6129,-3.6219,-3.6094,-3.5217,-3.4874,-3.4401,-3.3534,-3.3169,-3.2724,-3.1869,0.0,0.0,0.0,0.0,0.0,0.0,0.0,0.0,0.0,0.0,0.0,0.0,0.0,0.0,0.0,0.0,0.0,0.0,0.0,0.0,0.0,0.0,0.0,0.0,0.0,0.0,0.0,0.0,0.0,0.0,0.0,0.0,0.0,0.0,0.0,0.0,0.0,0.0,0.0,0.0,0.0,0.0,0.0,0.0,0.0,0.0,0.0,0.0,0.0,0.0,0.0,0.0,0.0,-3.2373,-3.3333,-3.4163,-3.5012,-3.5867,-3.5963,-3.5999,-3.597,-3.4314,-3.3378,-3.3338,0.0,0.0,0.0,0.0,0.0,0.0,0.0,0.0,0.0,0.0,0.0,0.0,0.0,0.0,0.0,0.0,0.0,0.0,0.0,0.0,0.0,0.0,0.0,0.0,0.0,0.0,-3.3299,-3.3376,-3.304,0.0,0.0,0.0,0.0,0.0,0.0,0.0,0.0,0.0,0.0,-3.6756,-3.6987,-3.6131,-3.6708,-3.6836,-3.6042,-3.5237,-3.4394,-3.3502,-3.2702,-3.1865,0.0,0.0,0.0,0.0,0.0,0.0,0.0,0.0,0.0,0.0,0.0,0.0,0.0,0.0,0.0,0.0,0.0,0.0,0.0,0.0,0.0,0.0,0.0,0.0,0.0,0.0,0.0,-3.5025,-3.4449,0.0,0.0,0.0,0.0,0.0,0.0,0.0,0.0,0.0,0.0,0.0,-3.3069,-3.3333,0.0,0.0,0.0,0.0,0.0,0.0,0.0,0.0,0.0,0.0,0.0,0.0,-3.1783,-3.3222,-3.3587,-3.4452,-3.5916,-3.5974,-3.6021,-3.598,-3.4304,-3.2882,-3.1774,0.0,0.0,0.0,0.0,0.0,0.0,0.0,0.0,0.0,0.0,0.0,0.0,0.0,0.0,0.0,0.0,0.0,0.0,0.0,0.0,0.0,0.0,0.0,0.0,0.0,-3.3339,0.0,0.0,0.0,0.0,0.0,0.0,0.0,0.0,0.0,0.0,0.0,-3.6016,-3.6015,-3.6247,-3.6342,-3.6029,-3.5744,-3.5482,0.0,0.0,0.0,0.0,0.0,0.0,0.0,0.0,0.0,0.0,0.0,0.0,0.0,0.0,-3.0794,-3.0831,-3.0833,-3.0855,-3.0879,0.0,0.0,0.0,0.0,0.0,0.0,0.0,0.0,0.0,0.0,0.0,0.0,0.0,0.0,0.0,0.0,-3.4265,0.0,0.0,0.0,0.0,0.0,0.0,0.0,0.0,-3.3739,-3.3701,-3.3471,-3.3765,-3.3535,0.0,-3.2428,-3.1829,0.0,0.0,0.0,0.0,0.0,0.0,0.0,0.0,-3.151,-3.3209,-3.3317,-3.4199,-3.5916,-3.6004,-3.6007,-3.5964,-3.4319,-3.2624,-3.0954,-3.0831,-3.0831,0.0,0.0,0.0,0.0,0.0,0.0,0.0,0.0,0.0,0.0,0.0,0.0,0.0,0.0,0.0,0.0,0.0,0.0,0.0,0.0,0.0,0.0,0.0,-3.453,0.0,0.0,0.0,0.0,0.0,0.0,0.0,0.0,0.0,-3.5156,-3.5644,-3.6015,-3.6014,-3.6011,-3.6008,-3.6005,0.0,0.0,0.0,0.0,0.0,0.0,0.0,-3.2818,-3.1139,-3.1123,-3.1396,-3.1605,-3.1884,-3.2005,-3.1712,0.0,0.0,-3.0866,-3.0794,-3.0916,-3.1242,-3.1735,-3.2186,-3.248,-3.2539,-3.2714,0.0,0.0,0.0,0.0,0.0,0.0,0.0,0.0,-3.6277,-3.5889,0.0,-3.5166,0.0,0.0,0.0,0.0,0.0,0.0,0.0,0.0,-3.3748,-3.3959,-3.4117,-3.4487,-3.4304,-3.3591,-3.3564,-3.3272,-3.2695,-3.1219,0.0,0.0,0.0,0.0,0.0,0.0,-3.155,-3.3188,-3.3288,-3.4173,-3.5814,-3.5935,-3.5936,-3.5838,-3.4228,-3.2567,-3.0994,-3.0828,-3.0826,-3.0894,-3.0894,0.0,0.0,0.0,0.0,0.0,0.0,0.0,0.0,0.0,0.0,0.0,0.0,0.0,0.0,0.0,0.0,0.0,0.0,0.0,0.0,-3.498,0.0,0.0,0.0,0.0,0.0,0.0,0.0,0.0,0.0,0.0,-3.5976,-3.5995,-3.6013,-3.6011,0.0,0.0,0.0,0.0,-3.5992,-3.5992,-3.527,-3.4452,-3.3573,-3.3435,-3.2869,-3.1191,0.0,0.0,-3.1008,-3.1583,-3.1939,-3.1018,-3.1482,-3.174,-3.093,-3.08,-3.1049,-3.1814,-3.202,-3.2385,-3.3118,-3.3257,-3.3356,-4.1152,0.0,0.0,0.0,0.0,-3.7621,-3.7729,-3.8009,-3.7387,-3.7064,-3.6876,-3.5215,0.0,0.0,0.0,0.0,0.0,0.0,-3.3253,-3.3577,-3.3716,-3.3921,-3.4245,-3.4443,-3.4576,-3.4557,-3.4013,-3.3764,-3.3721,-3.2699,-3.1919,-3.1389,0.0,0.0,0.0,0.0,-3.1274,-3.2365,-3.245,-3.3021,-3.4135,-3.4761,-3.4762,-3.4156,-3.3074,-3.1959,-3.0871,-3.0806,-3.0805,-3.0831,-3.089,0.0,0.0,0.0,0.0,0.0,0.0,0.0,0.0,0.0,0.0,0.0,0.0,0.0,0.0,0.0,0.0,0.0,0.0,0.0,-3.4179,-3.5332,-3.6015,0.0,0.0,0.0,0.0,0.0,0.0,0.0,0.0,0.0,-3.6091,-3.6013,-3.6013,0.0,0.0,-3.6003,-3.6017,-3.6013,-3.6012,-3.6012,0.0,0.0,0.0,-3.433,-3.3955,-3.2841,-3.3384,-3.3461,-3.1981,-3.2898,-3.34,-3.1921,-3.1837,-3.1722,-3.0918,-3.0748,-3.0833,-3.1151,-3.1675,-3.216,-3.2429,-3.2943,-3.3609,-4.2768,-4.1405,-3.9388,-3.8587,-3.8594,-3.821,-3.8213,-3.843,-3.7735,-3.7491,-3.7512,-3.5776,-3.5082,-3.5097,-3.3394,0.0,0.0,0.0,-3.3253,-3.3605,-3.3657,-3.3881,-3.4221,-3.4374,-3.4604,-3.486,-3.4405,-3.4283,-3.4557,-3.3705,-3.3082,-3.2641,0.0,0.0,-3.1122,-3.1196,-3.1667,-3.2574,-3.2613,-3.2869,-3.3394,-3.3923,-3.3768,-3.2909,-3.2375,-3.1707,-3.0873,-3.0825,-3.0824,-3.0832,-3.0889,-3.0907,0.0,0.0,0.0,0.0,0.0,0.0,0.0,0.0,0.0,0.0,0.0,-3.0817,-3.0888,0.0,0.0,0.0,-3.2731,-3.3708,-3.5078,-3.5684,0.0,0.0,0.0,0.0,0.0,0.0,0.0,-3.6578,-3.6678,-3.6582,-3.6088,-3.6303,-3.6399,-3.606,-3.6019,-3.6017,-3.6013,0.0,-3.6012,-3.6012,-3.6012,-3.568,-3.4842,-3.4992,-3.4926,-3.4064,-3.4023,-3.3707,-3.2438,-3.3228,-3.3468,-3.2038,-3.1785,-3.1725,-3.0843,-3.0707,-3.084,-3.1195,-3.1705,-3.2175,-3.2489,-3.3278,-3.4045,-4.405,-4.3871,-4.0661,-3.9166,-3.8857,-3.836,-3.8197,-3.8199,-3.7729,-3.7524,-3.7508,-3.6608,-3.574,-3.4881,-3.393,0.0,0.0,-3.3377,-3.3283,-3.3591,-3.3661,-3.3847,-3.4099,-3.4281,-3.4484,-3.4687,-3.4697,-3.483,-3.5046,-3.4346,-3.4014,-3.4054,-3.2634,-3.1903,-3.1899,-3.1905,-3.2339,-3.3175,-3.3168,-3.3225,-3.3299,-3.3222,-3.2851,-3.2147,-3.2028,-3.1653,-3.0935,-3.0828,-3.0825,-3.0893,-3.0889,-3.0887,-3.0887,0.0,0.0,0.0,0.0,0.0,0.0,0.0,0.0,0.0,0.0,0.0,0.0,0.0,0.0,0.0,-3.3826,0.0,-3.5937,-3.6074,0.0,0.0,0.0,-3.7707,-3.8522,-3.7941,-3.7477,-3.74,0.0,0.0,-3.622,0.0,-3.7074,-3.6226,-3.6109,-3.6109,-3.609,-3.607,-3.601,-3.6012,-3.6012,-3.5719,-3.5055,-3.5459,-3.5605,-3.4757,-3.4041,-3.3298,-3.2522,-3.298,-3.2781,-3.132,-3.1582,-3.1804,-3.0892,-3.0706,-3.0948,-3.1686,-3.1893,-3.2169,-3.2774,-3.3568,-3.4209,-4.4705,-4.4234,-4.2119,-4.1004,-4.0561,-3.9893,-3.9842,-4.0133,-3.9324,-3.874,-3.8232,-3.6831,-3.5556,-3.448,-3.4992,-3.4764,-3.3992,-3.3947,-3.3759,-3.3455,-3.3524,-3.3694,-3.4023,-3.4124,-3.437,-3.4687,-3.4758,-3.4849,-3.502,-3.4925,-3.4584,-3.3993,-3.3134,-3.2441,-3.1902,-3.1309,-3.1144,-3.1415,-3.1425,-3.1741,-3.2359,-3.1816,-3.1699,-3.2089,-3.146,-3.1007,-3.0832,-3.0824,-3.0803,-3.0824,-3.082,-3.0817,-3.0817,-3.0803,0.0,0.0,0.0,0.0,0.0,0.0,0.0,0.0,0.0,-3.1082,-3.176,0.0,-3.2642,0.0,-3.5056,-3.578,-3.5995,-3.6601,0.0,0.0,-3.7885,-3.8371,-3.8576,-3.8955,-3.8961,-3.8281,-3.8611,-3.866,-3.798,-3.8074,-3.7918,-3.7095,-3.6985,-3.6988,-3.6968,-3.6398,-3.6006,-3.601,-3.6007,-3.5947,-3.5718,-3.5843,-3.5711,-3.4861,-3.4532,-3.4101,-3.3236,-3.3789,-3.3823,-3.2252,-3.2444,-3.2341,-3.0976,-3.0699,-3.0762,-3.0967,-3.1028,-3.1074,-3.1295,-3.204,-3.2829,-4.4906,-4.4406,-4.265,-4.1718,-4.1352,-4.0244,-4.0003,-4.0294,-3.9496,-3.8826,-3.8248,-3.6686,-3.5748,-3.5283,-3.5103,-3.4848,-3.446,-3.3882,-3.3519,-3.3367,-3.3462,-3.3671,-3.3908,-3.4099,-3.4328,-3.4623,-3.4747,-3.4878,-3.5001,-3.5107,-3.4958,-3.4553,-3.3884,-3.3163,-3.2426,-3.1655,-3.1323,-3.1373,-3.0986,-3.1046,-3.154,-3.1132,-3.1113,-3.1522,-3.1108,-3.0851,-3.0849,-3.0823,-3.08,-3.08,-3.0795,-3.0792,-3.0792,-3.0798,-3.0788,0.0,0.0,0.0,0.0,0.0,0.0,0.0,0.0,0.0,0.0,0.0,-3.3834,-3.5153,-3.5721,-3.6014,-3.6015,-3.6796,-3.7461,-3.7848,-3.8648,-3.9331,-3.9658,-3.978,-3.9648,-3.9139,-3.9192,-3.9083,-3.8578,-3.8853,-3.8933,-3.8465,-3.8099,-3.7594,-3.6832,-3.6298,-3.6002,-3.601,-3.6006,-3.6019,-3.602,-3.6011,-3.5823,-3.5359,-3.5242,-3.4952,-3.4128,-3.4333,-3.4157,-3.2535,-3.2453,-3.2295,-3.1009,-3.0706,-3.07,-3.07,-3.0707,-3.0706,-3.0717,-3.1397,-3.2261,-4.4797,-4.4416,-4.2639,-4.1766,-4.1443,-3.996,-3.9461,-3.9679,-3.9001,-3.8391,-3.7772,-3.639,-3.6058,-3.6416,-3.5025,-3.4641,-3.4978,-3.3747,-3.3176,-3.3262,-3.3495,-3.3657,-3.3802,-3.4148,-3.4381,-3.4506,-3.4716,-3.4878,-3.5001,-3.5072,-3.519,-3.5277,-3.4581,-3.3833,-3.3107,-3.2353,-3.1971,-3.1911,-3.1172,-3.0815,-3.0876,-3.0878,-3.0917,-3.0896,-3.0894,-3.0892,-3.0888,-3.0842,-3.0799,-3.0799,-3.0792,-3.0786,-3.0786,-3.0798,-3.079,0.0,-3.0899,0.0,0.0,0.0,0.0,0.0,0.0,0.0,0.0,-3.3931,-3.5185,-3.5936,-3.6093,-3.6152,-3.6172,-3.6953,-3.7812,-3.867,-3.9432,-4.0213,-4.0936,-4.0469,-4.0018,-3.9969,-3.9341,-3.8905,-3.8926,-3.9518,-3.9974,-3.968,-3.9156,-3.8141,-3.6578,-3.6123,-3.6002,-3.601,-3.6006,-3.602,-3.6011,-3.6005,-3.596,-3.588,-3.5685,-3.5515,-3.4883,-3.4603,-3.4027,-3.2664,-3.2172,-3.1724,-3.0856,-3.0694,-3.0677,-3.0673,-3.0808,-3.0855,-3.078,-3.1238,-3.2123,-4.4361,-4.3826,-4.235,-4.1397,-4.0794,-3.9483,-3.9265,-3.9825,-3.9093,-3.8162,-3.7035,-3.6169,-3.6079,-3.6485,-3.6191,-3.5614,-3.4835,-3.457,-3.3947,-3.3057,-3.3375,-3.3619,-3.3802,-3.4148,-3.4363,-3.4506,-3.4697,-3.4859,-3.5001,-3.5053,-3.5207,-3.536,-3.4588,-3.3833,-3.3102,0.0,0.0,0.0,-3.0879,-3.0795,-3.0825,-3.0874,-3.0914,-3.089,-3.0847,0.0,-3.0888,-3.0833,-3.0786,-3.0794,-3.079,0.0,0.0,0.0,0.0,0.0,0.0,0.0,0.0,0.0,0.0,0.0,-3.3862,-3.4201,-3.4238,-3.5149,-3.5819,-3.5996,-3.6641,-3.707,-3.7051,-3.7851,-3.8711,-3.9551,-3.9804,-4.0215,-4.0976,-4.0956,-4.0872,-4.086,-4.0714,-4.0604,-4.0564,-4.0752,-4.057,-3.9967,-3.9658,-3.8882,-3.7321,-3.6494,-3.6041,-3.6009,-3.601,-3.6007,-3.6019,-3.6009,-3.5962,-3.5831,-3.5273,-3.512,-3.5437,-3.4516,-3.3702,-3.3117,-3.2508,-3.1764,-3.0892,-3.0645,-3.0733,-3.0629,-3.1202,-3.1474,-3.0855,-3.0835,-3.1394,-4.3932,0.0,-4.1946,-4.0943,0.0,-3.9028,-3.8636,-3.8702,-3.8399,-3.7669,-3.6664,-3.6073,-3.6019,-3.6385,-3.6107,-3.5793,-3.5363,-3.4677,-3.4089,-3.3602,-3.3544,-3.3573,-3.3748,-3.4086,-3.4328,-3.4506,-3.4697,-3.4888,-3.5038,-3.5089,-3.5179,-3.5338,-3.4971,-3.4424,-3.368,-3.2531,-3.1566,-3.08,-3.0798,-3.0791,-3.08,-3.0829,-3.085,-3.0845,0.0,0.0,0.0,0.0,0.0,0.0,0.0,0.0,0.0,0.0,0.0,-3.196,-3.2464,-3.2897,-3.3256,-3.3738,-3.4169,-3.4564,-3.503,-3.5314,-3.5335,-3.6145,-3.6638,-3.6658,-3.742,-3.7927,-3.7965,-3.8709,-3.9393,-3.9823,-4.0233,-4.0664,-4.1034,-4.1111,-4.1105,-4.1108,-4.1106,-4.1099,-4.1108,-4.1109,-4.0945,-4.0459,-3.9681,-3.9078,-3.8531,-3.7451,-3.6529,-3.6084,-3.601,-3.6007,-3.6015,-3.6009,-3.5981,-3.5834,-3.5534,-3.5454,-3.5809,-3.5217,-3.4391,-3.3609,-3.3271,-3.2854,-3.1665,-3.1623,-3.1876,-3.1904,-3.2238,-3.2436,-3.1996,-3.191,-3.2248,-4.3456,-4.2361,-4.1449,-4.0442,-3.9383,-3.8699,-3.7989,-3.7324,0.0,0.0,0.0,-3.5893,-3.5937,-3.6228,-3.5827,-3.5669,-3.566,-3.45,-3.3964,-3.3944,-3.3608,-3.3563,-3.3753,-3.4049,-3.4335,-3.4539,-3.4727,-3.4888,-3.5101,-3.5107,-3.5171,-3.5308,-3.5372,-3.4943,-3.4061,-3.2697,-3.1608,-3.0852,-3.0798,-3.0789,-3.0798,-3.0785,-3.0786,-3.08,-3.0799,-3.0877,-3.1033,-3.102,-3.109,-3.1242,-3.1246,-3.1556,-3.2183,-3.2274,-3.2611,-3.324,-3.3504,-3.3894,-3.4544,-3.4753,-3.5126,-3.5855,-3.5887,-3.5917,-3.6,-3.665,-3.7063,-3.7083,-3.7982,-3.8605,-3.8618,-3.9385,-3.9934,-4.0031,-4.0542,-4.0914,-4.107,-4.1109,-4.1102,-4.1103,-4.1108,-4.1109,-4.1103,-4.1117,-4.1109,-4.0894,-3.984,-3.8845,-3.9079,-3.8042,-3.6925,-3.6184,-3.6012,-3.601,-3.6015,-3.6009,-3.5984,-3.5936,-3.5892,-3.5851,-3.5732,-3.5685,-3.499,-3.3287,-3.3748,-3.3483,-3.2396,-3.2539,-3.3169,-3.3208,-3.3333,-3.3419,-3.3423,-3.3509,-3.3747,-4.2837,-4.2055,-4.1056,-4.0075,-3.9188,-3.8642,-3.7686,-3.6537,-3.6219,-3.5778,-3.5308,-3.5537,-3.5827,-3.6135,-3.6109,-3.5599,-3.4734,-3.4378,-3.3846,0.0,-3.3183,-3.3469,-3.3868,-3.4099,-3.4381,-3.4655,-3.4768,-3.4908,-3.507,-3.5096,-3.5207,-3.5383,-3.5405,-3.4674,-3.3311,-3.2419,-3.1614,-3.0828,-3.0801,-3.0802,-3.0801,-3.0796,-3.0801,-3.08,-3.0796,-3.1165,-3.1885,-3.1915,-3.2255,-3.2985,-3.3024,-3.3071,-3.3104,-3.3145,-3.3201,-3.3318,-3.4019,-3.4486,-3.4603,-3.5296,-3.5777,-3.5883,-3.589,-3.5923,-3.6002,-3.6116,-3.6183,-3.6264,-3.7728,-3.8605,-3.866,-3.9424,-4.0205,-4.0743,-4.0394,-4.0338,-4.1017,-4.1115,-4.1111,-4.1117,-4.1104,-4.1108,-4.1115,-4.1103,-4.1109,-4.0973,-4.0172,-3.9178,-3.7992,-3.7465,-3.6958,-3.6235,-3.6022,-3.6019,-3.6009,-3.602,-3.5994,-3.5984,-3.5936,-3.5717,-3.5169,-3.5022,-3.4389,-3.2655,-3.3206,-3.319,-3.2302,-3.2656,-3.3251,-3.3412,-3.3839,-3.4241,-3.4332,-3.4759,-3.5074,-4.249,-4.1576,-4.0744,-3.978,-3.8774,-3.7937,-3.7116,-3.6269,-3.5864,-3.5456,-3.5145,-3.5356,-3.5694,-3.6045,-3.6255,-3.5934,-3.5133,-3.4772,-3.427,-3.3591,-3.3312,-3.3422,-3.3829,-3.4049,-3.4293,-3.4583,-3.473,-3.4908,-3.5072,-3.5132,-3.5234,-3.5308,-3.496,-3.4191,-3.3156,-3.2846,-3.2321,-3.1526,-3.1969,-3.1982,-3.1533,-3.1495,-3.15,-3.1492,-3.1059,-3.1214,-3.2071,-3.2102,-3.2522,-3.3371,-3.3388,-3.3592,-3.398,-3.4005,-3.4222,-3.4661,-3.5085,-3.5307,-3.5288,-3.571,-3.5953,-3.5938,-3.5958,-3.5964,-3.5999,-3.6846,-3.7363,-3.7466,-3.8971,-3.9962,-3.995,-4.0313,-4.0687,-4.1055,-4.0756,-4.0706,-4.1017,-4.1099,-4.1116,-4.1106,-4.1114,-4.1116,-4.1104,-4.1109,-4.1115,-4.1037,-4.0372,-3.9048,-3.7005,-3.7006,-3.6983,-3.6196,-3.6021,-3.6019,-3.6009,-3.6002,-3.6017,-3.6013,-3.599,-3.5806,-3.5407,-3.5298,-3.4761,-3.3805,-3.4105,-3.4237,-3.3494,-3.4002,-3.4449,-3.4584,-3.4792,-3.5102,-3.5219,-3.5476,-3.5524,-4.2136,-4.1193,-4.0456,-3.9428,-3.8252,-3.7482,-3.6789,-3.6179,-3.5915,-3.5523,-3.5131,-3.5304,-3.5583,-3.5932,-3.6297,-3.6168,-3.5621,-3.5079,-3.4552,-3.4077,-3.3445,-3.3386,-3.3753,-3.3985,-3.4245,-3.4517,-3.4732,-3.4927,-3.5092,-3.5168,-3.5234,-3.5235,-3.4591,-3.3945,-3.3418,-3.3525,-3.3195,-3.2491,-3.3236,-3.3264,-3.2428,-3.2392,-3.2377,-3.2345,-3.1757,-3.1794,-3.2613,-3.2686,-3.3087,-3.388,-3.3975,-3.4257,-3.4842,-3.489,-3.5204,-3.58,-3.5897,-3.5909,-3.5934,-3.596,-3.6005,-3.6005,-3.6005,-3.6087,-3.6372,-3.7643,-3.8349,-3.8258,-3.9412,-4.0421,-4.0422,-4.0869,-4.1108,-4.11,-4.1103,-4.1076,-4.1097,-4.1101,-4.1101,-4.1112,-4.11,-4.1102,-4.1115,-4.1115,-4.0922,-4.0454,-3.9831,-3.841,-3.658,-3.662,-3.6656,-3.6258,-3.6002,-3.6002,-3.6009,-3.6004,-3.6022,-3.602,-3.6017,-3.581,-3.5639,-3.5668,-3.5365,-3.4571,-3.5063,-3.5201,-3.4757,-3.5103,-3.5505,-3.5523,-3.5562,-3.5649,-3.5645,-3.5689,-3.5722,-4.163,-4.1006,-4.0054,-3.8883,-3.7891,-3.7799,-3.7183,-3.6276,-3.6273,-3.5774,-3.4996,-3.5281,-3.5492,-3.5672,-3.6131,-3.6032,-3.5468,-3.4894,-3.434,-3.3808,-3.3275,-3.3223,-3.3629,-3.3947,-3.4269,-3.4572,-3.4801,-3.4945,-3.5092,-3.5187,-3.5246,-3.529,-3.4665,-3.4297,-3.4269,-3.4393,-3.4079,-3.3317,-3.4158,-3.4163,-3.3337,-3.3272,-3.3278,-3.3278,-3.3206,-3.3573,-3.4319,-3.4449,-3.4829,-3.558,-3.5685,-3.5739,-3.5775,-3.5772,-3.5791,-3.5889,-3.5883,-3.5934,-3.5981,-3.6003,-3.6005,-3.6005,-3.6007,-3.6308,-3.7045,-3.7946,-3.7828,-3.703,-3.7913,-3.8961,-3.8838,-4.0141,-4.1025,-4.1098,-4.1099,-4.1109,-4.1111,-4.1111,-4.1109,-4.1109,-4.1116,-4.1099,-4.1099,-4.1099,-4.0495,-3.9247,-3.8529,-3.7536,-3.6327,-3.6132,-3.6249,-3.6069,-3.601,-3.6008,-3.6002,-3.6016,-3.6009,-3.602,-3.6013,-3.5765,-3.5434,-3.5552,-3.5499,-3.4892,-3.4971,-3.5597,-3.5126,-3.5154,-3.5718,-3.5707,-3.5702,-3.5713,-3.5699,-3.5732,-3.5778,-4.1626,-4.1148,-4.0515,-3.9578,-3.8535,-3.8336,-3.7502,-3.6366,-3.6291,-3.5738,-3.4998,-3.5228,-3.5464,-3.5751,-3.6195,-3.5861,-3.4874,-3.4756,-3.4182,-3.3321,-3.3152,-3.3294,-3.3657,-3.3959,-3.4233,-3.4476,-3.4739,-3.4908,-3.5038,-3.5176,-3.5281,-3.5268,-3.4642,-3.4328,-3.442,-3.4536,-3.4441,-3.4152,-3.5004,-3.5291,-3.4866,-3.3919,-3.365,-3.4054,-3.3679,-3.381,-3.4589,-3.4706,-3.5092,-3.5882,-3.5988,-3.5988,-3.5973,-3.597,-3.5951,-3.5973,-3.5962,-3.5972,-3.6001,-3.602,-3.6004,-3.601,-3.6012,-3.6172,-3.6512,-3.7297,-3.7472,-3.7138,-3.8329,-3.9333,-3.9327,-3.9951,-4.056,-4.0968,-4.1101,-4.1114,-4.1109,-4.1112,-4.1114,-4.1111,-4.1099,-4.1104,-4.1104,-4.1106,-4.0386,-3.8982,-3.8222,-3.7518,-3.6308,-3.6016,-3.6015,-3.6012,-3.601,-3.601,-3.6008,-3.6016,-3.6027,-3.6025,-3.602,-3.581,-3.6231,-3.6334,-3.6367,-3.5618,-3.6103,-3.6172,-3.5484,-3.5478,-3.579,-3.5728,-3.5711,-3.5711,-3.5698,-3.5718,-3.5751,-4.1472,-4.118,-4.0559,-3.9707,-3.8674,-3.8111,-3.7221,-3.6142,-3.5948,-3.5456,-3.4805,-3.5128,-3.5475,-3.5778,-3.6229,-3.5896,-3.5101,-3.4845,-3.4288,-3.3477,-3.3255,-3.3309,-3.3615,-3.3895,-3.4148,-3.4374,-3.4607,-3.4869,-3.5056,-3.5209,-3.5304,-3.5249,-3.4867,-3.4698,-3.4729,-3.4854,-3.4945,-3.4992,-3.5439,-3.5734,-3.5726,-3.4524,-3.4177,-3.4916,-3.4446,-3.4401,-3.4993,-3.5039,-3.5332,-3.5947,-3.5974,-3.6017,-3.6009,-3.6005,-3.6005,-3.6009,-3.6015,-3.6004,-3.6014,-3.6016,-3.6116,-3.6296,-3.6181,-3.6222,-3.6714,-3.7302,-3.7615,-3.775,-3.9016,-3.9845,-3.9823,-4.0049,-4.0478,-4.1042,-4.1099,-4.1111,-4.1109,-4.1114,-4.1114,-4.1111,-4.1101,-4.1108,-4.1069,-4.0876,-4.0214,-3.9258,-3.8535,-3.7929,-3.666,-3.6211,-3.6054,-3.6267,-3.6188,-3.601,-3.6009,-3.6016,-3.6045,-3.6334,-3.6407,-3.6681,-3.7336,-3.7503,-3.7283,-3.6641,-3.7026,-3.6767,-3.5877,-3.5754,-3.5766,-3.5728,-3.5702,-3.5716,-3.5733,-3.5723,-3.5747,-4.0966,-4.0914,-3.9668,-3.8762,-3.7982,-3.6913,-3.5991,-3.5423,-3.5187,-3.4804,-3.4472,-3.5018,-3.5429,-3.5644,-3.6036,-3.6343,-3.6301,-3.5155,-3.4604,-3.4464,-3.3523,-3.315,-3.3422,-3.3703,-3.3985,-3.4316,-3.4513,-3.4803,-3.5168,-3.5254,-3.533,-3.5393,-3.5412,-3.5499,-3.5493,-3.5596,-3.5749,-3.5609,-3.5132,-3.5119,-3.5742,-3.5062,-3.5051,-3.5764,-3.5879,-3.577,-3.5814,-3.5898,-3.5937,-3.5927,-3.5976,-3.6019,-3.6019,-3.6011,-3.6009,-3.6017,-3.6019,-3.6007,-3.6021,-3.6061,-3.6335,-3.6922,-3.6555,-3.6713,-3.7944,-3.8377,-3.8514,-3.8553,-3.941,-3.9968,-3.9967,-4.0414,-4.0879,-4.1079,-4.1107,-4.1101,-4.1108,-4.1109,-4.1109,-4.1111,-4.1102,-4.1108,-4.1091,-4.0429,-4.0058,-3.9492,-3.8457,-3.7402,-3.7284,-3.6601,-3.6562,-3.6855,-3.6638,-3.6048,-3.6043,-3.621,-3.649,-3.6897,-3.7238,-3.743,-3.7971,-3.8322,-3.7887,-3.7468,-3.7242,-3.6806,-3.6105,-3.5769,-3.5737,-3.5713,-3.5708,-3.5713,-3.5733,-3.5771,-3.5885,-4.0901,-4.1005,-3.9707,-3.8967,-3.8543,-3.7483,-3.6374,-3.5347,-3.5315,-3.4951,-3.448,-3.4923,-3.5281,-3.5509,-3.5888,-3.5776,-3.5203,-3.4751,-3.4288,-3.3708,-3.3243,-3.3253,-3.3591,-3.3698,-3.3934,-3.4269,-3.4431,-3.4711,-3.51,-3.5209,-3.5262,-3.5357,-3.5482,-3.5559,-3.5607,-3.5684,-3.5525,-3.5084,-3.5175,-3.5278,-3.5121,-3.5268,-3.5578,-3.5906,-3.598,-3.598,-3.5888,-3.5976,-3.5981,-3.5963,-3.5986,-3.6007,-3.6007,-3.6006,-3.6004,-3.6007,-3.6007,-3.601,-3.6074,-3.6544,-3.6684,-3.6535,-3.7259,-3.7573,-3.7926,-3.8729,-3.9433,-3.9569,-4.0173,-4.0637,-4.0564,-4.0459,-4.0494,-4.0994,-4.1117,-4.1104,-4.1108,-4.1109,-4.1111,-4.1116,-4.1105,-4.1111,-4.0996,-4.043,-3.9921,-3.9783,-3.8866,-3.826,-3.8103,-3.7812,-3.7715,-3.787,-3.7439,-3.7046,-3.7659,-3.7147,-3.7081,-3.7677,-3.8135,-3.85,-3.899,-3.8767,-3.836,-3.814,-3.7759,-3.7086,-3.6491,-3.5883,-3.5829,-3.5834,-3.5814,-3.5708,-3.5732,-3.5769,-3.6062,-4.0504,-4.026,-3.9324,-3.8701,-3.8318,-3.7247,-3.6105,-3.5096,-3.5042,-3.4691,-3.4297,-3.4667,-3.5071,-3.5402,-3.5734,-3.5454,-3.474,-3.4871,-3.4641,-3.4008,-3.3635,-3.3617,-3.3847,-3.37,-3.3775,-3.4117,-3.4386,-3.4699,-3.5029,-3.516,-3.5231,-3.5308,-3.5412,-3.5489,-3.5556,-3.5615,-3.5354,-3.5059,-3.5484,-3.548,-3.5063,-3.5522,-3.583,-3.5875,-3.5921,-3.5934,-3.5892,-3.597,-3.6002,-3.5988,-3.5991,-3.6013,-3.6016,-3.6018,-3.6018,-3.6019,-3.6019,-3.6021,-3.6061,-3.6568,-3.6865,-3.689,-3.7594,-3.8044,-3.8143,-3.9238,-3.9785,-4.0058,-4.0623,-4.1108,-4.1004,-4.0568,-4.0462,-4.0996,-4.1117,-4.1106,-4.1109,-4.1111,-4.1116,-4.1103,-4.1108,-4.1132,-4.1113,-4.0644,-4.0369,-4.0287,-3.9548,-3.906,-3.902,-3.8769,-3.875,-3.8846,-3.7948,-3.7926,-3.8348,-3.8188,-3.81,-3.8639,-3.8933,-3.9377,-3.9641,-3.9302,-3.896,-3.8763,-3.8289,-3.758,-3.6892,-3.6211,-3.6032,-3.6061,-3.5848,-3.5718,-3.5723,-3.5742,-3.603,-3.9586,-3.9017,-3.828,-3.7694,-3.7159,-3.6012,-3.5033,-3.4668,-3.4435,-3.4248,-3.4031,-3.4365,-3.4965,-3.5333,-3.5538,-3.5457,-3.5294,-3.5558,-3.5711,-3.558,-3.4596,-3.4179,-3.4297,-3.3716,-3.3619,-3.3921,-3.4427,-3.48,-3.5011,-3.5134,-3.5234,-3.53,-3.5338,-3.5429,-3.5496,-3.5508,-3.5512,-3.5444,-3.5606,-3.5721,-3.5795,-3.5797,-3.5836,-3.5799,-3.5817,-3.5853,-3.5888,-3.5958,-3.596,-3.5924,-3.597,-3.6017,-3.6003,-3.6008,-3.601,-3.6009,-3.601,-3.6012,-3.6013,-3.6189,-3.7106,-3.785,-3.787,-3.8398,-3.9393,-3.9863,-4.0019,-4.0156,-4.0644,-4.1111,-4.111,-4.1008,-4.0995,-4.1105,-4.1113,-4.1103,-4.1109,-4.1115,-4.1102,-4.111,-4.1111,-4.1113,-4.1113,-4.0897,-4.0779,-4.0758,-4.0251,-3.9803,-3.9822,-3.9414,-3.9199,-3.9375,-3.8867,-3.8533,-3.89,-3.9228,-3.9394,-3.9577,-3.9752,-4.0031,-4.0335,-4.0205,-3.9664,-3.9376,-3.8909,-3.8202,-3.7428,-3.6822,-3.6634,-3.6551,-3.6178,-3.5926,-3.6013,-3.609,-3.5986,-3.8566,-3.8432,-3.7244,-3.6809,-3.6741,-3.6051,-3.5523,-3.5243,-3.5361,-3.5063,-3.4584,-3.4957,-3.5201,-3.5225,-3.5379,-3.5509,-3.5629,-3.5963,-3.5867,-3.5297,-3.4442,-3.4211,-3.4352,-3.3785,-3.3712,-3.4136,-3.4473,-3.479,-3.5039,-3.5119,-3.5185,-3.5278,-3.5289,-3.5338,-3.5496,-3.545,-3.5232,-3.4762,-3.5325,-3.5407,-3.4918,-3.5432,-3.5747,-3.5726,-3.5786,-3.5819,-3.583,-3.5887,-3.5941,-3.5957,-3.6003,-3.6006,-3.6006,-3.6009,-3.6009,-3.6007,-3.6009,-3.6011,-3.6168,-3.7086,-3.7653,-3.8045,-3.8983,-3.9745,-3.9979,-4.0449,-4.0703,-4.0722,-4.0976,-4.1113,-4.1111,-4.1111,-4.1107,-4.1111,-4.1111,-4.1112,-4.1116,-4.1104,-4.1109,-4.1111,-4.1111,-4.1113,-4.1035,-4.08,-4.0605,-4.0974,-4.0428,-4.0077,-4.0487,-4.0391,-4.037,-4.0546,-3.9764,-3.9138,-3.9583,-3.9775,-3.9751,-4.0011,-4.0266,-4.0445,-4.0764,-4.0779,-4.0282,-3.9882,-3.9411,-3.8886,-3.8088,-3.7548,-3.7366,-3.7115,-3.6817,-3.6667,-3.6585,-3.6462,-3.6332,-3.8132,-3.8026,-3.6926,-3.6488,-3.6523,-3.6071,-3.5688,-3.5492,-3.5864,-3.5613,-3.5079,-3.5146,-3.5307,-3.5321,-3.5345,-3.5487,-3.5734,-3.6105,-3.6027,-3.5535,-3.4996,-3.4952,-3.5133,-3.4388,-3.4032,-3.4246,-3.4431,-3.4699,-3.5011,-3.5082,-3.5185,-3.5278,-3.5235,-3.53,-3.5449,-3.5415,-3.5107,-3.4796,-3.5283,-3.5324,-3.5013,-3.5394,-3.5702,-3.5723,-3.577,-3.5799,-3.5804,-3.5858,-3.5935,-3.5998,-3.6007,-3.6009,-3.6008,-3.6011,-3.6149,-3.6422,-3.6501,-3.6619,-3.701,-3.7968,-3.8574,-3.8613,-3.9765,-4.0586,-4.0449,-4.0937,-4.1113,-4.1113,-4.1113,-4.1113,-4.1132,-4.1111,-4.111,-4.1103,-4.1102,-4.1102,-4.1104,-4.1109,-4.1131,-4.1132,-4.1132,-4.1132,-4.0996,-4.082,-4.0508,-4.0917,-4.0682,-4.0448,-4.0995,-4.1074,-4.1092,-4.0915,-4.0231,-4.0034,-4.036,-4.0319,-4.0125,-4.0369,-4.0684,-4.0808,-4.103,-4.0841,-4.0454,-4.026,-3.9893,-3.9838,-3.9159,-3.8436,-3.8058,-3.7751,-3.7573,-3.7268,-3.7093,-3.6789,-3.6725,-3.8201,-3.7744,-3.7161,-3.6724,-3.6402,-3.6017,-3.5732,-3.5447,-3.5838,-3.5799,-3.5352,-3.5187,-3.523,-3.5482,-3.5314,-3.5367,-3.5622,-3.5932,-3.6241,-3.6301,-3.6132,-3.615,-3.6164,-3.5306,-3.4821,-3.4643,-3.4587,-3.4739,-3.5135,-3.5111,-3.5171,-3.5274,-3.53,-3.533,-3.5407,-3.54,-3.5369,-3.5352,-3.5496,-3.5564,-3.5529,-3.5612,-3.5698,-3.5708,-3.577,-3.5795,-3.5824,-3.5877,-3.5931,-3.5992,-3.6007,-3.601,-3.6011,-3.6013,-3.6347,-3.6953,-3.7168,-3.7519,-3.8184,-3.8437,-3.8905,-3.9589,-3.994,-4.027,-4.0914,-4.1052,-4.1112,-4.1112,-4.1111,-4.1112,-4.1152,-4.1132,-4.1109,-4.1108,-4.1106,-4.1108,-4.1111,-4.1111,-4.1112,-4.1172,-4.1191,-4.1172,-4.1113,-4.1035,-4.1035,-4.1054,-4.1015,-4.1054,-4.1113,-4.1132,-4.1112,-4.0837,-4.0505,-4.0502,-4.0693,-4.0651,-4.0475,-4.06,-4.0879,-4.0986,-4.1089,-4.088,-4.0789,-4.059,-4.0452,-4.0435,-4.0157,-3.9357,-3.8971,-3.8906,-3.8527,-3.7989,-3.7683,-3.7514,-3.7351,-3.7871,-3.7794,-3.7336,-3.6856,-3.6495,-3.6667,-3.661,-3.6353,-3.6672,-3.6324,-3.5689,-3.5668,-3.538,-3.4874,-3.5024,-3.5228,-3.5554,-3.5734,-3.6105,-3.6516,-3.6639,-3.6417,-3.6252,-3.5966,-3.5883,-3.5957,-3.5591,-3.5574,-3.5809,-3.5434,-3.5286,-3.5308,-3.5389,-3.5395,-3.5456,-3.5508,-3.5476,-3.5489,-3.5553,-3.5626,-3.5615,-3.5612,-3.5674,-3.5766,-3.5747,-3.5775,-3.5859,-3.594,-3.5992,-3.6005,-3.6009,-3.6009,-3.6007,-3.6012,-3.619,-3.6483,-3.6504,-3.6816,-3.7637,-3.8339,-3.9022,-3.9843,-4.0428,-4.0875,-4.1052,-4.1109,-4.111,-4.111,-4.111,-4.111,-4.1112,-4.1113,-4.1112,-4.1108,-4.1107,-4.1108,-4.1109,-4.111,-4.1112,-4.1112,-4.1131,-4.1111,-4.1112,-4.1112,-4.1112,-4.1112,-4.1113,-4.1113,-4.1152,-4.1152,-4.1111,-4.1151,-4.0955,-4.0875,-4.0871,-4.0849,-4.0843,-4.0888,-4.0992,-4.1018,-4.1061,-4.0974,-4.098,-4.0959,-4.0818,-4.0786,-4.0523,-4.0001,-3.9961,-3.9867,-3.9396,-3.8844,-3.882,-3.8696,-3.8311,-3.8164,-3.8243,-3.7862,-3.7415,-3.6955,-3.7066,-3.6965,-3.677,-3.6983,-3.6658,-3.6052,-3.6242,-3.5749,-3.4863,-3.5274,-3.5479,-3.5566,-3.5827,-3.6212,-3.6571,-3.7034,-3.6916,-3.657,-3.6592,-3.6749,-3.6668,-3.6456,-3.6462,-3.6548,-3.6051,-3.5832,-3.5917,-3.5887,-3.5765,-3.5566,-3.6293,-3.6164,-3.5733,-3.5858,-3.6024,-3.5678,-3.5679,-3.5721,-3.5783,-3.5772,-3.5817,-3.5914,-3.5972,-3.6012,-3.6019,-3.6003,-3.6003,-3.6021,-3.6009,-3.6325,-3.693,-3.7109,-3.7656,-3.875,-3.9413,-3.9842,-4.0351,-4.0896,-4.1051,-4.111,-4.1108,-4.1108,-4.1109,-4.1107,-4.1107,-4.111,-4.1113,-4.1111,-4.1103,-4.1103,-4.1104,-4.1107,-4.111,-4.1111,-4.111,-4.111,-4.1109,-4.111,-4.113,-4.1131,-4.1111,-4.1112,-4.1112,-4.1132,-4.1111,-4.111,-4.1129,-4.1148,-4.1047,-4.0984,-4.0981,-4.096,-4.1025,-4.104,-4.1067,-4.1059,-4.1016,-4.1048,-4.1067,-4.1085,-4.1029,-4.0735,-4.0577,-4.0588,-4.0377,-4.0027,-3.9863,-3.9797,-3.9556,-3.9194,-3.8907,-3.8884,-3.8665,-3.8236,-3.7684,-3.7342,-3.7104,-3.6832,-3.7014,-3.6787,-3.6411,-3.6749,-3.6195,-3.5211,-3.5761,-3.5951,-3.5487,-3.6062,-3.644,-3.6814,-3.7283,-3.7482,-3.7209,-3.7554,-3.7507,-3.7225,-3.7149,-3.7313,-3.7355,-3.6932,-3.6703,-3.6773,-3.6817,-3.6488,-3.6324,-3.7186,-3.7019,-3.6122,-3.6248,-3.6222,-3.5824,-3.5756,-3.5791,-3.5843,-3.6108,-3.6262,-3.6348,-3.6366,-3.6375,-3.6159,-3.6126,-3.6226,-3.621,-3.6201,-3.6969,-3.8085,-3.8398,-3.9062,-4.0527,-4.0565,-4.0876,-4.0974,-4.1033,-4.111,-4.1108,-4.1108,-4.1108,-4.1109,-4.1103,-4.1106,-4.1111,-4.1113,-4.1108,-4.1137,-4.1155,-4.1238,-4.1125,-4.1109,-4.111,-4.1108,-4.111,-4.111,-4.113,-4.1151,-4.1172,-4.1111,-4.1111,-4.1111,-4.1131,-4.111,-4.1107,-4.1122,-4.1121,-4.1117,-4.1094,-4.109,-4.1072,-4.1085,-4.1054,-4.1056,-4.1064,-4.1037,-4.1042,-4.105,-4.1054,-4.1042,-4.0955,-4.0912,-4.0944,-4.082,-4.0423,-4.0513,-4.0622,-4.0245,-3.9875,-3.9445,-3.9717,-3.9688,-3.9139,-3.8387,-3.8323,-3.7855,-3.7119,-3.7435,-3.7128,-3.6746,-3.7018,-3.6486,-3.5391,-3.5968,-3.5961,-3.5667,-3.6122,-3.6485,-3.705,-3.7577,-3.7948,-3.8033,-3.8416,-3.8642,-3.8518,-3.8284,-3.8304,-3.8289,-3.785,-3.751,-3.7633,-3.7663,-3.7591,-3.7546,-3.7409,-3.7144,-3.6647,-3.6372,-3.6103,-3.5885,-3.5791,-3.5846,-3.5997,-3.6533,-3.7225,-3.7832,-3.8011,-3.7708,-3.7201,-3.7007,-3.7009,-3.7031,-3.7548,-3.814,-3.8495,-3.8691,-3.914,-3.9959,-4.0308,-4.0402,-4.1032,-4.1108,-4.1103,-4.1107,-4.1107,-4.1108,-4.111,-4.1108,-4.1109,-4.1113,-4.1112,-4.1185,-4.1311,-4.174,-4.184,-4.1293,-4.1142,-4.1185,-4.1108,-4.1148,-4.1111,-4.113,-4.1189,-4.119,-4.113,-4.1149,-4.1129,-4.1168,-4.1225,-4.1162,-4.1214,-4.1369,-4.1426,-4.15,-4.1592,-4.1766,-4.1626,-4.1462,-4.1326,-4.1315,-4.1025,-4.1022,-4.1025,-4.1031,-4.1007,-4.0976,-4.1029,-4.1029,-4.0905,-4.0816,-4.0855,-4.0809,-4.0622,-4.0571,-4.0126,-3.9844,-3.9786,-3.9342,-3.8652,-3.8445,-3.8028,-3.7545,-3.7612,-3.7374,-3.7082,-3.7491,-3.6972,-3.5718,-3.6348,-3.6424,-3.6054,-3.6385,-3.6873,-3.7337,-3.7775,-3.8139,-3.8485,-3.8792,-3.905,-3.9152,-3.9213,-3.9229,-3.9115,-3.8727,-3.8416,-3.8481,-3.8508,-3.8286,-3.8357,-3.8431,-3.8125,-3.7245,-3.7061,-3.6693,-3.5995,-3.5894,-3.6189,-3.6486,-3.701,-3.7521,-3.7831,-3.7918,-3.7476,-3.7126,-3.7458,-3.7692,-3.7518,-3.8131,-3.8742,-3.9155,-3.9217,-3.9609,-4.0214,-4.0467,-4.066,-4.1051,-4.1107,-4.1107,-4.1107,-4.1107,-4.1105,-4.1104,-4.1103,-4.1107,-4.1133,-4.158,-4.1634,-4.1857,-4.2498,-4.2596,-4.1932,-4.1704,-4.1493,-4.1356,-4.1474,-4.138,-4.1341,-4.1539,-4.1714,-4.187,-4.1868,-4.1847,-4.1827,-4.1825,-4.143,-4.1423,-4.1639,-4.1792,-4.1905,-4.2153,-4.2598,-4.2434,-4.2181,-4.2019,-4.1888,-4.1451,-4.0983,-4.099,-4.0997,-4.0988,-4.098,-4.1027,-4.1041,-4.0945,-4.0898,-4.0953,-4.0933,-4.0824,-4.0797,-4.0639,-3.9884,-3.9791,-3.9444,-3.8944,-3.8529,-3.8196,-3.7939,-3.7836,-3.7687,-3.7512,-3.8149,-3.7627,-3.6653,-3.6962,-3.6865,-3.6474,-3.6716,-3.7204,-3.7558,-3.7845,-3.8221,-3.8578,-3.8818,-3.9036,-3.9178,-3.9529,-3.9775,-3.9734,-3.9528,-3.9278,-3.9336,-3.9423,-3.9247,-3.9025,-3.9554,-3.9439,-3.7947,-3.7973,-3.7702,-3.6712,-3.6555,-3.6971,-3.7647,-3.7845,-3.81,-3.8274,-3.8121,-3.7537,-3.6739,-3.8008,-3.8245,-3.815,-3.8521,-3.9247,-4.0049,-4.0072,-4.0348,-4.0781,-4.1015,-4.1054,-4.1109,-4.111,-4.111,-4.1109,-4.1129,-4.1126,-4.1121,-4.11,-4.1105,-4.1152,-4.1776,-4.2219,-4.254,-4.3237,-4.3411,-4.2886,-4.2675,-4.2481,-4.1642,-4.1843,-4.1944,-4.2081,-4.2278,-4.2454,-4.2609,-4.2605,-4.2602,-4.2582,-4.2521,-4.2241,-4.2137,-4.2448,-4.2563,-4.2674,-4.2726,-4.317,-4.3127,-4.2858,-4.2526,-4.2253,-4.1542,-4.1011,-4.0972,-4.0964,-4.0935,-4.0926,-4.0943,-4.0952,-4.0928,-4.0932,-4.0956,-4.0964,-4.098,-4.098,-4.0489,-4.0848,-4.0844,-4.0608,-4.0212,-3.9708,-3.9179,-3.8782,-3.8438,-3.8274,-3.823,-3.864,-3.8453,-3.7823,-3.7469,-3.7083,-3.6719,-3.7036,-3.7424,-3.7738,-3.8005,-3.8345,-3.8685,-3.8992,-3.9175,-3.935,-3.9647,-3.9881,-4.0059,-4.0062,-3.9959,-4.0191,-4.0227,-4.0089,-4.0005,-4.0039,-3.9785,-3.8937,-3.8685,-3.8231,-3.7932,-3.7866,-3.8245,-3.8998,-3.9078,-3.9449,-3.9918,-3.9665,-3.934,-3.9292,-3.9485,-3.9489,-3.9491,-4.0075,-4.0563,-4.072,-4.0792,-4.089,-4.1074,-4.1113,-4.1113,-4.1113,-4.1112,-4.1111,-4.1111,-4.1151,-4.1189,-4.1266,-4.1245,-4.1208,-4.1152,-4.2146,-4.2414,-4.2816,-4.3728,-4.4387,-4.386,-4.3822,-4.3746,-4.2654,-4.2602,-4.2529,-4.2625,-4.2937,-4.3366,-4.3481,-4.3479,-4.3474,-4.3453,-4.3448,-4.3363,-4.3335,-4.3448,-4.3483,-4.3517,-4.3529,-4.3699,-4.3682,-4.3379,-4.2785,-4.2341,-4.1486,-4.1041,-4.0982,-4.0926,-4.0893,-4.0888,-4.0874,-4.0883,-4.0893,-4.0912,-4.0931,-4.0948,-4.0976,-4.098,-4.0917,-4.0935,-4.0747,-4.0715,-4.0642,-4.0225,-3.981,-3.9373,-3.9231,-3.9014,-3.8848,-3.8882,-3.8547,-3.8043,-3.8095,-3.7695,-3.7326,-3.7648,-3.8052,-3.8384,-3.8632,-3.8937,-3.9205,-3.9475,-3.9454,-3.9501,-3.9635,-3.9859,-4.0078,-4.0196,-4.0314,-4.0425,-4.0504,-4.0614,-4.0662,-4.0394,-3.9964,-3.9679,-3.9264,-3.8854,-3.853,-3.851,-3.8986,-3.9563,-3.9819,-4.0055,-4.0255,-4.0133,-3.9573,-3.9327,-3.9584,-3.9803,-4.0117,-4.0586,-4.1112,-4.1112,-4.1107,-4.1104,-4.1112,-4.1113,-4.1113,-4.1113,-4.1113,-4.1112,-4.1111,-4.115,-4.1346,-4.1736,-4.232,-4.2439,-4.2539,-4.3181,-4.3663,-4.395,-4.486,-4.5072,-4.4737,-4.483,-4.4344,-4.3743,-4.3902,-4.3651,-4.2873,-4.336,-4.4141,-4.4372,-4.4367,-4.4344,-4.4341,-4.4335,-4.4304,-4.4146,-4.4197,-4.4507,-4.4521,-4.4571,-4.4504,-4.4409,-4.3977,-4.3383,-4.2724,-4.1996,-4.1352,-4.0999,-4.0932,-4.0853,-4.0851,-4.0832,-4.0848,-4.0873,-4.0883,-4.0903,-4.0943,-4.0968,-4.0968,-4.1384,-4.0873,-4.0628,-4.0686,-4.0944,-4.071,-4.0386,-4.0131,-4.0001,-3.9681,-3.9298,-3.9148,-3.8774,-3.8296,-3.8308,-3.828,-3.7773,-3.8314,-3.8575,-3.8833,-3.9456,-3.9851,-3.9752,-4.0034,-3.9965,-3.9521,-3.9677,-3.9889,-4.0058,-4.0224,-4.0341,-4.0476,-4.0571,-4.0655,-4.0674,-4.0707,-4.0333,-4.0107,-3.9917,-3.9532,-3.9114,-3.9036,-3.9318,-3.9972,-4.0052,-4.0151,-4.0314,-3.9978,-3.9727,-3.9539,-3.9622,-3.9918,-4.0214,-4.0762,-4.1094,-4.1113,-4.1111,-4.111,-4.111,-4.111,-4.1111,-4.1113,-4.1113,-4.1113,-4.1228,-4.1385,-4.1697,-4.2379,-4.3101,-4.3533,-4.3516,-4.4392,-4.4816,-4.5046,-4.5547,-4.6046,-4.5517,-4.5316,-4.5193,-4.4961,-4.518,-4.4868,-4.4165,-4.4243,-4.5119,-4.5209,-4.5204,-4.5216,-4.5192,-4.5211,-4.5128,-4.4835,-4.4889,-4.5415,-4.5604,-4.5693,-4.5605,-4.5485,-4.4839,-4.4108,-4.3419,-4.27,-4.2042,-4.1314,-4.0883,-4.0821,-4.0812,-4.0814,-4.0818,-4.0832,-4.0858,-4.0864,-4.0883,-4.0915,-4.0937,-4.1314,-4.1241,-4.1196,-4.1412,-4.1693,-4.1527,-4.1417,-4.123,-4.0565,-4.0227,-3.994,-3.9761,-3.9621,-3.9504,-3.8845,-3.8446,-3.8303,-3.8583,-3.8757,-3.8884,-3.9868,-4.0006,-3.9398,-4.0018,-3.9973,-3.9646,-3.9724,-3.9892,-4.0089,-4.0288,-4.0441,-4.0546,-4.0621,-4.0725,-4.0761,-4.084,-4.0863,-4.0738,-4.0751,-4.0711,-4.0598,-4.0588,-4.071,-4.082,-4.0865,-4.0831,-4.0722,-4.033,-4.0061,-4.0598,-4.0071,-4.0233,-4.08,-4.1013,-4.109,-4.1111,-4.1113,-4.1111,-4.1111,-4.1109,-4.1108,-4.1111,-4.1111,-4.1132,-4.1425,-4.1932,-4.2342,-4.2363,-4.3299,-4.3905,-4.416,-4.4607,-4.4935,-4.532,-4.582,-4.6184,-4.6023,-4.5763,-4.564,-4.555,-4.555,-4.5782,-4.5584,-4.5799,-4.605,-4.6061,-4.603,-4.5982,-4.5923,-4.5829,-4.5802,-4.5493,-4.5354,-4.5819,-4.5969,-4.6174,-4.6206,-4.6196,-4.5627,-4.474,-4.3805,-4.3019,-4.2463,-4.179,-4.1262,-4.0826,-4.0815,-4.0818,-4.08,-4.0806,-4.0821,-4.0832,-4.0812,-4.0859,-4.0896,-4.1829,-4.1307,-4.1621,-4.1916,-4.219,-4.2279,-4.1955,-4.1396,-4.1057,-4.0492,-3.9947,-3.9862,-3.9961,-4.0033,-3.9565,-3.9346,-3.9382,-3.9686,-3.978,-3.9533,-4.0317,-4.0416,-3.9929,-4.0113,-4.0125,-3.9696,-3.9747,-3.9927,-4.011,-4.0288,-4.046,-4.0588,-4.0628,-4.0668,-4.0742,-4.0823,-4.0804,-4.0793,-4.0869,-4.0972,-4.1045,-4.1098,-4.1101,-4.1108,-4.1108,-4.1112,-4.0999,-4.0839,-4.0687,-4.1048,-4.064,-4.0702,-4.0996,-4.1093,-4.1112,-4.1111,-4.1113,-4.111,-4.1111,-4.1128,-4.1127,-4.1127,-4.1168,-4.1346,-4.1855,-4.2635,-4.3397,-4.3886,-4.4685,-4.5056,-4.5098,-4.5505,-4.5657,-4.5885,-4.6053,-4.612,-4.6271,-4.6269,-4.6104,-4.6011,-4.5916,-4.6063,-4.6196,-4.6161,-4.6115,-4.6079,-4.6072,-4.6045,-4.6049,-4.6059,-4.6057,-4.6059,-4.6017,-4.6131,-4.6141,-4.6209,-4.6203,-4.6215,-4.6196,-4.5234,-4.4007,-4.3194,-4.2661,-4.1945,-4.1192,-4.0922,-4.0877,-4.0834,-4.0825,-4.0806,-4.0806,-4.0798,-4.0796,-4.0791,-4.0703,-4.2093,-4.1321,-4.1785,-4.2109,-4.2333,-4.2681,-4.239,-4.1678,-4.1472,-4.0951,-4.0354,-4.0214,-4.0305,-4.0339,-4.017,-4.0027,-4.0301,-4.0892,-4.0844,-4.0799,-4.0913,-4.0793,-4.0359,-4.0318,-4.0144,-3.9446,-3.9773,-3.9977,-4.0119,-4.0307,-4.0452,-4.0603,-4.0635,-4.0681,-4.0725,-4.0787,-4.0798,-4.0807,-4.0878,-4.0972,-4.1064,-4.1079,-4.108,-4.1088,-4.1111,-4.1114,-4.1102,-4.108,-4.108,-4.1084,-4.1068,-4.1032,-4.1112,-4.1113,-4.1113,-4.1113,-4.1112,-4.1266,-4.1305,-4.1341,-4.1262,-4.1419,-4.1714,-4.2245,-4.2694,-4.3512,-4.4176,-4.4743,-4.5599,-4.6051,-4.6288,-4.623,-4.6169,-4.6163,-4.6249,-4.6253,-4.6236,-4.6253,-4.6242,-4.6128,-4.6047,-4.608,-4.6154,-4.6165,-4.6138,-4.6091,-4.6083,-4.6078,-4.6111,-4.6142,-4.6173,-4.6177,-4.62,-4.6193,-4.6203,-4.6196,-4.6212,-4.6189,-4.6192,-4.5487,-4.4097,-4.3396,-4.2976,-4.2163,-4.1214,-4.1246,-4.1359,-4.1089,-4.0837,-4.0818,-4.0798,-4.0792,-4.0796,-4.0727,-4.0111,-4.1757,-4.1135,-4.1489,-4.1819,-4.2158,-4.2476,-4.263,-4.237,-4.1786,-4.1593,-4.1408,-4.1136,-4.0745,-4.0745,-4.0515,-4.0447,-4.07,-4.1094,-4.1066,-4.1233,-4.156,-4.1256,-4.0733,-4.0342,-4.0173,-3.9739,-3.983,-3.9986,-4.0109,-4.028,-4.046,-4.0593,-4.0628,-4.0726,-4.0763,-4.0781,-4.0807,-4.0844,-4.0896,-4.0929,-4.1003,-4.1028,-4.1064,-4.1087,-4.1103,-4.1103,-4.1116,-4.1099,-4.1099,-4.1101,-4.1102,-4.1103,-4.1107,-4.1108,-4.111,-4.1111,-4.1112,-4.1363,-4.1614,-4.1572,-4.1647,-4.2255,-4.2866,-4.3281,-4.363,-4.4388,-4.4916,-4.5131,-4.5926,-4.622,-4.6304,-4.6307,-4.6308,-4.6479,-4.6506,-4.6448,-4.637,-4.6228,-4.6216,-4.6196,-4.6154,-4.613,-4.6104,-4.6117,-4.6098,-4.6051,-4.6037,-4.6032,-4.6071,-4.6089,-4.6142,-4.6165,-4.6176,-4.6192,-4.6197,-4.6189,-4.617,-4.617,-4.617,-4.5216,-4.3946,-4.3482,-4.3201,-4.219,-4.1334,-4.16,-4.1694,-4.1232,-4.089,-4.084,-4.0796,-4.0713,-4.0358,-4.0017,-3.9083,-4.2032,-4.1587,-4.1405,-4.1598,-4.2062,-4.1525,-4.1413,-4.1461,-4.1007,-4.0926,-4.1146,-4.0881,-4.084,-4.0861,-4.0949,-4.0954,-4.1174,-4.1644,-4.1546,-4.1379,-4.142,-4.133,-4.0789,-4.0286,-3.984,-4.004,-4.0049,-3.9984,-4.0127,-4.0272,-4.0411,-4.0519,-4.0579,-4.0621,-4.0668,-4.0815,-4.0815,-4.0859,-4.0928,-4.099,-4.1042,-4.1064,-4.1076,-4.1107,-4.1117,-4.1117,-4.1114,-4.1101,-4.1103,-4.1104,-4.1103,-4.1102,-4.1101,-4.1102,-4.1103,-4.1104,-4.1106,-4.1337,-4.1745,-4.1842,-4.2313,-4.2995,-4.3529,-4.3945,-4.4413,-4.4859,-4.5326,-4.5694,-4.604,-4.6274,-4.6302,-4.6327,-4.6406,-4.6694,-4.682,-4.6778,-4.6638,-4.6511,-4.6235,-4.6197,-4.6154,-4.6108,-4.6061,-4.6037,-4.6017,-4.6007,-4.5991,-4.6,-4.6026,-4.6052,-4.6089,-4.6134,-4.6146,-4.6158,-4.6185,-4.6154,-4.6106,-4.613,-4.6134,-4.5165,-4.4156,-4.3684,-4.3244,-4.2233,-4.1396,-4.136,-4.1271,-4.1082,-4.0936,-4.0826,-4.0704,-4.0549,-4.0065,-3.9464,-3.8447,-4.2045,-4.1867,-4.1421,-4.1531,-4.1756,-4.0924,-4.0658,-4.0836,-4.0552,-4.0462,-4.0648,-4.0799,-4.0965,-4.1129,-4.1249,-4.1436,-4.1626,-4.1923,-4.19,-4.1778,-4.1603,-4.1364,-4.0885,-4.0416,-4.0076,-4.0322,-4.0158,-3.9965,-4.0106,-4.0234,-4.0351,-4.0444,-4.0492,-4.0631,-4.1079,-4.1074,-4.1025,-4.0912,-4.0937,-4.1029,-4.11,-4.1083,-4.1103,-4.1085,-4.107,-4.1097,-4.1108,-4.1098,-4.1102,-4.1102,-4.1101,-4.1101,-4.1099,-4.1116,-4.1114,-4.1114,-4.1132,-4.1186,-4.1636,-4.2303,-4.3169,-4.395,-4.4457,-4.4859,-4.5176,-4.535,-4.574,-4.609,-4.6279,-4.6295,-4.6325,-4.6543,-4.6833,-4.7176,-4.7502,-4.7491,-4.7184,-4.6963,-4.6532,-4.622,-4.6152,-4.6129,-4.6309,-4.6304,-4.6272,-4.6169,-4.5953,-4.5947,-4.5964,-4.5997,-4.6056,-4.6099,-4.6117,-4.6126,-4.6154,-4.6134,-4.6115,-4.6117,-4.5985,-4.5437,-4.4628,-4.4074,-4.3272,-4.2249,-4.1552,-4.1116,-4.0954,-4.0956,-4.0897,-4.0821,-4.0583,-4.0267,-3.982,-3.9185,-3.8287,-4.1783,-4.1884,-4.1656,-4.1535,-4.147,-4.0788,-4.0818,-4.118,-4.0685,-4.0619,-4.0881,-4.1175,-4.1363,-4.1471,-4.1471,-4.1626,-4.1788,-4.1979,-4.1936,-4.176,-4.1597,-4.1363,-4.0956,-4.0486,-4.0159,-3.9844,-3.987,-3.9996,-4.0117,-4.0253,-4.0354,-4.0701,-4.0995,-4.122,-4.191,-4.1995,-4.1643,-4.1063,-4.1046,-4.1026,-4.105,-4.1036,-4.1048,-4.1052,-4.1025,-4.1052,-4.1078,-4.1115,-4.1099,-4.1115,-4.1115,-4.1112,-4.1104,-4.1103,-4.1104,-4.1109,-4.1109,-4.1514,-4.2327,-4.3183,-4.405,-4.4841,-4.5347,-4.5803,-4.6092,-4.6152,-4.6055,-4.6289,-4.6306,-4.6307,-4.6543,-4.6909,-4.7275,-4.771,-4.8047,-4.8094,-4.7765,-4.7288,-4.6831,-4.639,-4.6216,-4.6192,-4.6474,-4.6653,-4.661,-4.6426,-4.6034,-4.5917,-4.5949,-4.5964,-4.6026,-4.6056,-4.6095,-4.6126,-4.6142,-4.6127,-4.6119,-4.6122,-4.5923,-4.5457,-4.4818,-4.4079,-4.3226,-4.2306,-4.1626,-4.1112,-4.0982,-4.0927,-4.0863,-4.0738,-4.0231,-3.9843,-3.9421,-3.9005,-3.8306,-4.2061,-4.2206,-4.178,-4.1471,-4.1203,-4.0541,-4.0635,-4.1059,-4.0572,-4.05,-4.0976,-4.1312,-4.1335,-4.1335,-4.1458,-4.1596,-4.1652,-4.1366,-4.1286,-4.1739,-4.1332,-4.1285,-4.0956,-4.0465,-4.0189,-4.0309,-4.0279,-4.0134,-4.0176,-4.0386,-4.083,-4.1234,-4.192,-4.2576,-4.2193,-4.2015,-4.1879,-4.1585,-4.1271,-4.0968,-4.1003,-4.0979,-4.0983,-4.1037,-4.1,-4.1011,-4.1042,-4.1085,-4.1111,-4.1108,-4.1108,-4.1108,-4.1101,-4.1101,-4.1104,-4.1108,-4.1147,-4.1823,-4.2978,-4.4041,-4.488,-4.5577,-4.6017,-4.6238,-4.6231,-4.6266,-4.6287,-4.6287,-4.6289,-4.6289,-4.6425,-4.7042,-4.7559,-4.8263,-4.8563,-4.8513,-4.823,-4.7639,-4.7116,-4.6674,-4.6387,-4.7105,-4.7556,-4.7384,-4.7272,-4.6957,-4.6584,-4.6119,-4.6028,-4.5993,-4.6,-4.6037,-4.6066,-4.6126,-4.6146,-4.6138,-4.6135,-4.6138,-4.6002,-4.5702,-4.4982,-4.4293,-4.3736,-4.3116,-4.2073,-4.1128,-4.1163,-4.1129,-4.0907,-4.0621,-4.0216,-3.9961,-3.9767,-3.9364,-3.8778,-4.2381,-4.2522,-4.2118,-4.1832,-4.1473,-4.0534,-4.0387,-4.0679,-4.0434,-4.0638,-4.1024,-4.1051,-4.1158,-4.1178,-4.1101,-4.1139,-4.1152,-4.099,-4.0551,-4.11,-4.0774,-4.0692,-4.0598,-4.0453,-4.0384,-4.0564,-4.0669,-4.0595,-4.0778,-4.0823,-4.0967,-4.1519,-4.2819,-4.2551,-4.224,-4.2241,-4.2136,-4.1637,-4.099,-4.0909,-4.0937,-4.0941,-4.0945,-4.1003,-4.1016,-4.1016,-4.1042,-4.1066,-4.1122,-4.1119,-4.1119,-4.1121,-4.1117,-4.1117,-4.1119,-4.1103,-4.1548,-4.2397,-4.3802,-4.4457,-4.5217,-4.6036,-4.6231,-4.6238,-4.6201,-4.6225,-4.6249,-4.6254,-4.6301,-4.6532,-4.6781,-4.7428,-4.8167,-4.8896,-4.9375,-4.9331,-4.891,-4.8349,-4.7732,-4.7247,-4.7174,-4.795,-4.8446,-4.8262,-4.8024,-4.7598,-4.7152,-4.6616,-4.61,-4.6008,-4.6003,-4.6026,-4.6056,-4.6093,-4.6131,-4.6157,-4.615,-4.6154,-4.6029,-4.5868,-4.553,-4.4903,-4.4413,-4.3835,-4.2708,-4.1811,-4.154,-4.1353,-4.1032,-4.0731,-4.0418,-4.0236,-4.0143,-3.9544,-3.8835,-4.2711,-4.2814,-4.2611,-4.2394,-4.2125,-4.0707,-4.0057,-4.0028,-4.0573,-4.0873,-4.1036,-4.0485,-4.0561,-4.1077,-4.0512,-4.0263,-4.0334,-4.0474,-4.0157,-3.998,-4.0239,-4.0202,-4.0265,-4.041,-4.0367,-4.0511,-4.0757,-4.116,-4.156,-4.1958,-4.169,-4.1328,-4.2337,-4.2331,-4.2419,-4.2324,-4.2131,-4.1454,-4.0976,-4.0878,-4.0881,-4.0909,-4.0961,-4.0993,-4.1023,-4.1026,-4.1048,-4.1086,-4.1167,-4.1184,-4.1161,-4.1161,-4.1161,-4.1147,-4.1159,-4.1456,-4.2137,-4.3409,-4.4412,-4.4877,-4.5371,-4.6086,-4.6206,-4.62,-4.6198,-4.6233,-4.6316,-4.6433,-4.6577,-4.7028,-4.746,-4.821,-4.8974,-4.9698,-5.0422,-5.0229,-4.9786,-4.9211,-4.8549,-4.8197,-4.8155,-4.8513,-4.8765,-4.8696,-4.8412,-4.7598,-4.7075,-4.6629,-4.6183,-4.5983,-4.598,-4.6041,-4.6056,-4.6084,-4.6119,-4.616,-4.619,-4.618,-4.6183,-4.6039,-4.5738,-4.5355,-4.4838,-4.412,-4.3188,-4.24,-4.1653,-4.1257,-4.1036,-4.0763,-4.0441,-4.0234,-4.0059,-3.9231,-3.8589,-4.2668,-4.2466,-4.24,-4.1898,-4.1078,-4.0424,-4.0231,-4.0451,-4.0313,-4.0336,-4.0569,-3.9869,-3.9789,-3.9898,-3.9627,-3.969,-3.9643,-3.9528,-3.9572,-3.9588,-3.9657,-3.9547,-3.9721,-4.0042,-4.0133,-4.0466,-4.093,-4.16,-4.1941,-4.2616,-4.2934,-4.268,-4.266,-4.2595,-4.2213,-4.2124,-4.1858,-4.1551,-4.1059,-4.0909,-4.0864,-4.0913,-4.0995,-4.1073,-4.1041,-4.1064,-4.114,-4.1136,-4.1331,-4.1857,-4.1401,-4.1332,-4.2005,-4.2054,-4.2163,-4.299,-4.3721,-4.449,-4.4913,-4.5469,-4.59,-4.6057,-4.6158,-4.6199,-4.6213,-4.6258,-4.6456,-4.6709,-4.6937,-4.7352,-4.8129,-4.8948,-4.9527,-5.0093,-5.0666,-5.0597,-5.0183,-4.9854,-4.9213,-4.8713,-4.8696,-4.8916,-4.9128,-4.9091,-4.871,-4.7721,-4.6965,-4.6518,-4.6228,-4.6009,-4.5931,-4.6014,-4.6066,-4.6075,-4.6107,-4.6144,-4.618,-4.6209,-4.6206,-4.6019,-4.546,-4.51,-4.4969,-4.4387,-4.3412,-4.2356,-4.1334,-4.1098,-4.0998,-4.0713,-4.0415,-4.0209,-3.9847,-3.8895,-3.8176,-4.287,-4.2389,-4.2278,-4.1555,-4.0563,-4.0341,-4.0461,-4.0614,-4.0089,-3.9988,-4.0093,-3.914,-3.8926,-3.9287,-3.9041,-3.8936,-3.9084,-3.9016,-3.8959,-3.8891,-3.9014,-3.9253,-3.9483,-3.9792,-4.0013,-4.0459,-4.1169,-4.1982,-4.2113,-4.246,-4.2835,-4.2545,-4.2956,-4.226,-4.1624,-4.1384,-4.1629,-4.1472,-4.1287,-4.1067,-4.1056,-4.1056,-4.1092,-4.1365,-4.1272,-4.1244,-4.1509,-4.1519,-4.1983,-4.2665,-4.2214,-4.2289,-4.2828,-4.2877,-4.3267,-4.4,-4.4451,-4.4978,-4.5409,-4.5838,-4.606,-4.6117,-4.6141,-4.6138,-4.6174,-4.622,-4.6691,-4.7124,-4.7381,-4.7793,-4.8735,-4.9575,-4.9945,-5.0325,-5.0558,-5.0765,-5.0558,-5.0338,-4.9802,-4.9193,-4.9147,-4.9373,-4.9452,-4.9408,-4.8871,-4.7623,-4.6751,-4.6266,-4.6066,-4.5964,-4.5918,-4.596,-4.6035,-4.6085,-4.6119,-4.6134,-4.6174,-4.6209,-4.6253,-4.5943,-4.5253,-4.5043,-4.5072,-4.4471,-4.3597,-4.2479,-4.1283,-4.1107,-4.0968,-4.0586,-3.9933,-3.9275,-3.8812,-3.8248,-3.7646,-4.3069,-4.2365,-4.2049,-4.1278,-4.0432,-4.0436,-4.0604,-4.0722,-3.9917,-3.9806,-3.9752,-3.8519,-3.8443,-3.891,-3.8433,-3.8197,-3.838,-3.8486,-3.851,-3.838,-3.8826,-3.9154,-3.9458,-3.9848,-3.9965,-4.0641,-4.1399,-4.2078,-4.1885,-4.2187,-4.2426,-4.1863,-4.1381,-4.1004,-4.0892,-4.1034,-4.1388,-4.168,-4.1426,-4.1196,-4.1601,-4.1518,-4.1369,-4.1952,-4.1856,-4.1649,-4.2198,-4.2545,-4.2805,-4.3385,-4.3564,-4.3447,-4.3622,-4.3685,-4.4219,-4.4697,-4.5094,-4.5395,-4.5842,-4.6243,-4.6173,-4.6168,-4.6119,-4.6304,-4.644,-4.6191,-4.6589,-4.7527,-4.7883,-4.8643,-4.9579,-5.005,-5.0396,-5.0617,-5.0783,-5.0872,-5.0753,-5.0548,-5.0208,-4.9718,-4.9627,-4.9776,-4.9562,-4.9421,-4.8547,-4.7377,-4.6543,-4.602,-4.593,-4.5893,-4.5906,-4.5931,-4.6003,-4.6056,-4.6075,-4.6099,-4.6137,-4.6183,-4.617,-4.5603,-4.4723,-4.4846,-4.5246,-4.421,-4.3076,-4.2279,-4.14,-4.1044,-4.0553,-4.004,-3.9293,-3.8257,-3.7693,-3.7418,-3.7074,-4.2328,-4.1777,-4.0846,-4.04,-4.0453,-4.06,-4.0431,-4.0078,-3.9445,-3.9643,-4.0017,-3.8835,-3.8219,-3.8512,-3.7809,-3.7553,-3.7822,-3.8078,-3.8148,-3.8387,-3.8778,-3.9091,-3.935,-3.9747,-3.9911,-4.0298,-4.1059,-4.2011,-4.2326,-4.2419,-4.2223,-4.1794,-4.1259,-4.0976,-4.0611,-4.0958,-4.1474,-4.1993,-4.188,-4.1809,-4.2197,-4.2659,-4.2869,-4.2786,-4.2478,-4.2841,-4.323,-4.3312,-4.3778,-4.431,-4.3822,-4.3954,-4.4431,-4.4495,-4.4982,-4.5613,-4.5749,-4.59,-4.6299,-4.6635,-4.6604,-4.6441,-4.6469,-4.6799,-4.679,-4.6342,-4.6615,-4.7689,-4.8637,-4.9504,-5.0188,-5.052,-5.0752,-5.0879,-5.0986,-5.0956,-5.0898,-5.0689,-5.0494,-5.0349,-5.0189,-4.9931,-4.9686,-4.9026,-4.814,-4.7261,-4.6382,-4.5858,-4.5877,-4.5859,-4.5887,-4.5918,-4.5974,-4.6025,-4.6037,-4.5998,-4.6017,-4.5787,-4.5657,-4.4982,-4.4204,-4.3819,-4.3606,-4.3196,-4.2394,-4.1696,-4.1054,-4.0485,-3.9992,-3.9403,-3.8715,-3.7693,-3.7134,-3.6818,-3.647,-4.2149,-4.1399,-4.0544,-4.0158,-4.0168,-4.0246,-3.9968,-3.9529,-3.9186,-3.9452,-3.9823,-3.847,-3.7758,-3.8086,-3.7457,-3.7354,-3.7631,-3.7792,-3.8105,-3.8449,-3.8691,-3.9008,-3.9331,-3.9665,-3.9834,-4.0122,-4.0583,-4.138,-4.2432,-4.1951,-4.143,-4.153,-4.1398,-4.0982,-4.06,-4.1097,-4.1755,-4.2459,-4.244,-4.2725,-4.2934,-4.3121,-4.3423,-4.3259,-4.3557,-4.3864,-4.4078,-4.4152,-4.4617,-4.5031,-4.4885,-4.4876,-4.5214,-4.5281,-4.5753,-4.6196,-4.6371,-4.6346,-4.6899,-4.7154,-4.7125,-4.6919,-4.6836,-4.7165,-4.7107,-4.6814,-4.7528,-4.853,-4.906,-4.9871,-5.0507,-5.0913,-5.0872,-5.0932,-5.0956,-5.0914,-5.0858,-5.0717,-5.0662,-5.0681,-5.0383,-4.9921,-4.9533,-4.8815,-4.7857,-4.6684,-4.587,-4.5805,-4.5824,-4.5831,-4.586,-4.5899,-4.5944,-4.5956,-4.5955,-4.5889,-4.5847,-4.5566,-4.5179,-4.4546,-4.3809,-4.2618,-4.1846,-4.2055,-4.1942,-4.1288,-4.0663,-3.9998,-3.9154,-3.8447,-3.7833,-3.7162,-3.672,-3.6336,-3.6145,-4.2135,-4.1103,-4.0684,-4.0227,-3.9778,-3.975,-3.9475,-3.901,-3.8986,-3.9065,-3.91,-3.7762,-3.7347,-3.7535,-3.7504,-3.7613,-3.7739,-3.788,-3.8186,-3.8462,-3.8661,-3.8952,-3.9311,-3.9642,-3.98,-3.9954,-4.0271,-4.1132,-4.2144,-4.1367,-4.0971,-4.1272,-4.0979,-4.0465,-4.0577,-4.0942,-4.1581,-4.264,-4.3166,-4.3808,-4.3728,-4.3455,-4.3845,-4.4175,-4.4377,-4.4346,-4.4747,-4.5064,-4.541,-4.5564,-4.572,-4.5702,-4.5685,-4.5737,-4.6331,-4.6692,-4.6607,-4.7074,-4.7818,-4.7966,-4.7695,-4.7428,-4.7416,-4.7493,-4.7532,-4.7882,-4.86,-4.9188,-4.9718,-5.0067,-5.0693,-5.106,-5.0986,-5.0921,-5.0898,-5.0874,-5.0816,-5.0745,-5.081,-5.0872,-5.0491,-5.0001,-4.9289,-4.8589,-4.7573,-4.6363,-4.5783,-4.5783,-4.5791,-4.5798,-4.5826,-4.5854,-4.588,-4.5887,-4.5893,-4.5801,-4.5714,-4.5143,-4.4724,-4.414,-4.3389,-4.2149,-4.1517,-4.1768,-4.1501,-4.0774,-4.0117,-3.9451,-3.8569,-3.7666,-3.7109,-3.6651,-3.6428,-3.6099,-3.6003,-4.1466,-4.0509,-4.0603,-4.0328,-3.9905,-3.9943,-3.9377,-3.8421,-3.84,-3.8243,-3.7957,-3.7876,-3.7862,-3.8544,-3.7716,-3.7595,-3.7915,-3.8036,-3.8219,-3.8476,-3.8695,-3.8942,-3.9259,-3.9599,-3.9781,-3.9956,-4.0118,-4.0444,-4.1245,-4.0727,-4.0426,-4.0732,-4.0732,-4.0553,-4.0677,-4.1177,-4.1959,-4.2956,-4.3496,-4.3957,-4.5234,-4.5149,-4.5035,-4.5246,-4.5449,-4.5628,-4.5849,-4.584,-4.5896,-4.5956,-4.595,-4.5906,-4.5887,-4.5932,-4.6442,-4.7055,-4.6965,-4.7617,-4.8243,-4.8752,-4.8592,-4.8237,-4.8392,-4.8863,-4.8875,-4.8872,-4.9536,-5.0102,-5.0446,-5.0324,-5.0748,-5.0961,-5.0971,-5.0917,-5.0885,-5.0808,-5.0747,-5.072,-5.0729,-5.0736,-5.0598,-4.9989,-4.9285,-4.8525,-4.7684,-4.6611,-4.5843,-4.5812,-4.5769,-4.5783,-4.5791,-4.5819,-4.584,-4.5861,-4.5867,-4.5712,-4.5516,-4.4893,-4.4069,-4.3175,-4.2341,-4.158,-4.122,-4.1457,-4.0908,-4.0125,-3.9486,-3.8905,-3.8043,-3.7198,-3.6581,-3.612,-3.5975,-3.5943,-3.5906]},{"header":{"parameterUnit":"m.s-1","parameterCategory":1,"la1":31.0,"la2":29.5877,"lo1":-88.7671,"lo2":-86.6584,"dy":0.0162,"dx":0.0185,"nx":115,"ny":88,"refTime":"2023-04-21T00:00:00:Z","depth":0,"parameterNumber":3,"parameterNumberName":"V-component_of_WINDS"},"data":[0.0,0.0,0.0,0.0,0.0,0.0,0.0,0.0,0.0,0.0,0.0,0.0,0.0,0.0,0.0,0.0,0.0,0.0,0.0,0.0,0.0,0.0,0.0,0.0,0.0,0.0,0.0,0.0,0.0,0.0,0.0,0.0,0.0,0.0,0.0,0.0,0.0,0.0,0.0,0.0,0.0,0.0,0.0,0.0,0.0,0.0,0.0,0.0,0.0,0.0,0.0,0.0,0.0,0.0,0.0,0.0,0.0,0.0,0.0,0.0,0.0,0.0,0.0,0.0,0.0,0.0,0.0,0.0,0.0,0.0,0.0,0.0,0.0,0.0,0.0,0.0,0.0,0.0,0.0,0.0,0.0,0.0,0.0,0.0,0.0,0.0,0.0,0.0,0.0,0.0,0.0,0.0,0.0,0.0,0.0,0.0,0.0,0.0,0.0,0.0,0.0,0.0,0.0,0.0,0.0,0.0,0.0,0.0,0.0,0.0,0.0,0.0,0.0,0.0,0.0,0.0,0.0,0.0,0.0,0.0,0.0,0.0,0.0,0.0,0.0,0.0,0.0,0.0,0.0,0.0,0.0,0.0,0.0,0.0,0.0,0.0,0.0,0.0,0.0,0.0,0.0,0.0,0.0,0.0,0.0,0.0,0.0,0.0,0.0,0.0,0.0,0.0,0.0,0.0,0.0,0.0,0.0,0.0,0.0,0.0,0.0,0.0,0.0,0.0,0.0,0.0,0.0,0.0,0.0,0.0,0.0,0.0,0.0,0.0,0.0,0.0,0.0,0.0,0.0,0.0,0.0,0.0,0.0,0.0,0.0,0.0,0.0,0.0,0.0,0.0,0.0,0.0,0.0,0.0,0.0,0.0,0.0,0.0,0.0,0.0,0.0,0.0,0.0,0.0,0.0,0.0,0.0,0.0,0.0,0.0,0.0,0.0,0.0,0.0,0.0,0.0,0.0,0.0,0.0,0.0,0.0,0.0,0.0,0.0,0.0,0.0,0.0,0.0,0.0,0.0,0.0,0.0,0.0,0.0,0.0,0.0,0.0,0.0,0.0,0.0,0.0,0.0,0.0,0.0,0.0,0.0,0.0,0.0,0.0,0.0,0.0,0.0,0.0,0.0,0.0,0.0,0.0,0.0,0.0,0.0,0.0,0.0,0.0,0.0,0.0,0.0,0.0,0.0,0.0,0.0,0.0,0.0,0.0,0.0,0.0,0.0,0.0,0.0,0.0,0.0,0.0,0.0,0.0,0.0,0.0,0.0,0.0,0.0,0.0,0.0,0.0,0.0,0.0,0.0,0.0,0.0,0.0,0.0,0.0,0.0,0.0,0.0,0.0,0.0,0.0,0.0,0.0,0.0,0.0,0.0,0.0,0.0,0.0,0.0,0.0,0.0,0.0,0.0,0.0,0.0,0.0,0.0,0.0,0.0,0.0,0.0,0.0,0.0,0.0,0.0,0.0,0.0,0.0,0.0,0.0,0.0,0.0,0.0,0.0,0.0,0.0,0.0,0.0,0.0,0.0,0.0,0.0,0.0,0.0,0.0,0.0,0.0,0.0,0.0,0.0,0.0,0.0,0.0,0.0,0.0,0.0,0.0,0.0,0.0,0.0,0.0,0.0,0.0,0.0,0.0,0.0,0.0,0.0,0.0,0.0,0.0,0.0,0.0,0.0,0.0,0.0,0.0,0.0,0.0,0.0,0.0,0.0,0.0,0.0,0.0,0.0,0.0,0.0,0.0,0.0,0.0,0.0,0.0,0.0,0.0,0.0,0.0,0.0,0.0,0.0,0.0,0.0,0.0,0.0,0.0,0.0,0.0,0.0,0.0,0.0,0.0,0.0,0.0,0.0,0.0,0.0,0.0,0.0,0.0,0.0,0.0,0.0,0.0,0.0,0.0,0.0,0.0,0.0,0.0,0.0,0.0,0.0,0.0,0.0,0.0,0.0,0.0,0.0,0.0,0.0,0.0,0.0,0.0,0.0,0.0,0.0,0.0,0.0,0.0,0.0,0.0,0.0,0.0,0.0,0.0,0.0,0.0,0.0,0.0,0.0,0.0,0.0,0.0,0.0,0.0,0.0,0.0,0.0,0.0,0.0,0.0,0.0,0.0,0.0,0.0,0.0,0.0,0.0,0.0,0.0,0.0,0.0,0.0,0.0,0.0,0.0,0.0,0.0,0.0,0.0,0.0,0.0,0.0,0.0,0.0,0.0,0.0,0.0,0.0,0.0,0.0,0.0,0.0,0.0,0.0,0.0,0.0,0.0,0.0,0.0,0.0,0.0,0.0,0.0,0.0,0.0,0.0,0.0,0.0,0.0,0.0,0.0,0.0,0.0,0.0,0.0,0.0,0.0,0.0,0.0,0.0,0.0,0.0,0.0,0.0,0.0,0.0,0.0,0.0,0.0,0.0,0.0,0.0,0.0,0.0,0.0,0.0,0.0,0.0,0.0,0.0,0.0,0.0,0.0,0.0,0.0,0.0,0.0,0.0,0.0,0.0,0.0,0.0,0.0,0.0,0.0,0.0,0.0,0.0,0.0,0.0,0.0,0.0,0.0,0.0,0.0,0.0,0.0,0.0,0.0,0.0,0.0,0.0,0.0,0.0,0.0,0.0,0.0,0.0,0.0,0.0,0.0,0.0,0.0,0.0,0.0,0.0,0.0,0.0,0.0,0.0,0.0,0.0,0.0,0.0,0.0,0.0,0.0,0.0,0.0,0.0,0.0,0.0,0.0,0.0,0.0,0.0,0.0,0.0,0.0,0.0,0.0,0.0,0.0,0.0,0.0,0.0,0.0,0.0,0.0,0.0,0.0,0.0,0.0,0.0,0.0,0.0,0.0,0.0,0.0,0.0,0.0,0.0,0.0,0.0,0.0,0.0,0.0,0.0,0.0,0.0,0.0,0.0,0.0,0.0,0.0,0.0,0.0,0.0,0.0,0.0,0.0,0.0,0.0,0.0,0.0,0.0,0.0,0.0,0.0,0.0,0.0,0.0,0.0,0.0,0.0,0.0,0.0,0.0,0.0,0.0,0.0,0.0,0.0,0.0,0.0,0.0,0.0,0.0,0.0,0.0,0.0,0.0,0.0,0.0,0.0,0.0,0.0,0.0,0.0,0.0,0.0,0.0,0.0,0.0,0.0,0.0,0.0,0.0,0.0,0.0,0.0,0.0,0.0,0.0,0.0,0.0,0.0,0.0,0.0,0.0,0.0,0.0,0.0,0.0,0.0,0.0,0.0,0.0,0.0,0.0,0.0,0.0,0.0,0.0,0.0,0.0,0.0,0.0,0.0,0.0,0.0,0.0,0.0,0.0,0.0,0.0,0.0,0.0,0.0,0.0,0.0,0.0,0.0,0.0,0.0,0.0,0.0,0.0,0.0,0.0,0.0,0.0,0.0,0.0,0.0,0.0,0.0,0.0,0.0,0.0,0.0,0.0,0.0,0.0,0.0,0.0,0.0,0.0,0.0,0.0,0.0,0.0,0.0,0.0,0.0,0.0,0.0,0.0,0.0,0.0,0.0,0.0,0.0,0.0,0.0,0.0,0.0,0.0,0.0,0.0,0.0,0.0,0.0,0.0,0.0,0.0,0.0,0.0,0.0,0.0,0.0,0.0,0.0,0.0,0.0,0.0,0.0,0.0,0.0,0.0,0.0,0.0,0.0,0.0,0.0,0.0,0.0,0.0,0.0,0.0,0.0,0.0,0.0,0.0,0.0,0.0,0.0,0.0,0.0,0.0,0.0,0.0,0.0,0.0,0.0,0.0,0.0,0.0,0.0,0.0,0.0,0.0,0.0,0.0,0.0,0.0,0.0,0.0,0.0,0.0,0.0,0.0,0.0,0.0,0.0,0.0,0.0,0.0,0.0,0.0,0.0,0.0,0.0,0.0,0.0,0.0,0.0,0.0,0.0,0.0,0.0,0.0,0.0,0.0,0.0,0.0,0.0,0.0,0.0,0.0,0.0,0.0,0.0,0.0,0.0,0.0,0.0,0.0,0.0,0.0,0.0,0.0,0.0,0.0,0.0,0.0,0.0,0.0,0.0,0.0,0.0,0.0,0.0,0.0,0.0,0.0,0.0,0.0,0.0,0.0,0.0,0.0,0.0,0.0,0.0,0.0,0.0,0.0,0.0,0.0,0.0,0.0,0.0,0.0,0.0,0.0,0.0,0.0,0.0,0.0,0.0,0.0,0.0,0.0,0.0,0.0,0.0,0.0,0.0,0.0,0.0,0.0,0.0,0.0,0.0,0.0,0.0,0.0,0.0,0.0,0.2262,0.0,0.0,0.0,0.0,0.0,0.0,0.0,0.0,0.0,0.0,0.0,0.0,0.0,0.0,0.0,0.0,0.0,0.0,0.0,0.0,0.0,0.0,0.0,0.0,0.0,0.0,0.0,0.0,0.0,0.0,0.0,0.0,0.0,0.0,0.0,0.0,0.0,0.0,0.0,0.0,0.0,0.0,0.0,0.0,0.0,0.0,0.0,0.0,0.0,0.0,0.0,0.0,0.0,0.0,0.0,0.0,0.0,0.0,0.0,0.0,0.0,0.0,0.0,0.0,0.0,0.0,0.0,0.0,0.0,0.0,0.0,0.0,0.0,0.0,0.0,0.0,0.0,0.0,0.0,0.0,0.0,0.0,0.0,0.0,0.0,0.0,0.0,0.0,0.0,0.0,0.0,0.0,0.0,0.0,0.0,0.0,0.0,0.0,0.0,0.0,0.0,0.0,0.0,0.0,0.0,0.0,0.0,0.0,0.0,0.0,0.3782,0.3329,0.3176,0.2863,0.2391,0.0,0.0,0.0,0.0,0.0,0.0,0.0,0.0,0.0,0.0,0.0,0.0,0.0,0.0,0.0,0.0,0.0,0.0,0.0,0.0,0.0,0.0,0.0,0.0,0.0,0.0,0.0,0.0,0.0,0.0,0.0,0.0,0.0,0.0,0.0,0.0,0.0,0.0,0.0,0.0,0.0,0.0,0.0,0.0,0.0,0.0,0.0,0.0,0.0,0.0,0.0,0.0,0.0,0.0,0.0,0.0,0.0,0.0,0.0,0.0,0.0,0.0,0.0,0.0,0.0,0.0,0.0,0.0,0.0,0.0,0.0,0.0,0.0,0.0,0.0,0.0,0.0,0.0,0.0,0.0,0.0,0.0,0.0,0.0,0.0,0.0,0.0,0.0,0.0,0.0,0.0,0.0,0.0,0.0,0.0,0.0,0.0,0.0,0.0,0.0,0.0,0.0,0.0,0.0,0.0,0.0,0.0,0.0,0.0,0.0,0.0,0.0,0.3193,0.2904,0.2433,0.0,0.0,0.0,0.0,0.0,0.0,0.0,0.0,0.0,0.0,0.0,0.0,0.0,0.0,0.0,0.0,0.0,0.0,0.0,0.0,0.0,0.0,0.0,0.0,0.0,0.0,0.0,0.0,0.0,0.0,0.0,0.0,0.0,0.0,0.0,0.0,0.0,0.0,0.0,0.0,0.0,0.0,0.0,0.0,0.0,0.0,0.0,0.0,0.0,0.0,0.0,0.0,0.0,0.0,0.0,0.0,0.0,0.0,0.0,0.0,0.0,0.0,0.0,0.0,0.0,0.0,0.0,0.0,0.0,0.0,0.0,0.0,0.0,0.0,0.0,0.0,0.0,0.0,0.0,0.0,0.0,0.0,0.0,0.0,0.0,0.0,0.0,0.0,0.0,0.0,0.0,0.0,0.0,0.0,0.0,0.0,0.0,0.0,0.0,0.0,0.0,0.0,0.0,0.0,0.0,0.0,0.0,0.0,0.0,0.0,0.3906,0.3332,0.328,0.0,0.2218,0.0,0.0,0.0,0.0,0.0,0.0,0.0,0.0,0.0,0.0,0.0,0.0,0.0,0.0,0.0,0.0,0.0,0.0,0.0,0.0,0.0,0.0,0.0,0.0,0.0,0.0,0.0,0.0,0.0,0.0,0.0,0.0,0.0,0.0,0.0,0.0,0.0,0.0,0.0,0.0,0.0,0.0,0.0,0.0,0.0,0.0,0.0,0.0,0.0,0.0,0.0,0.0,0.0,0.0,0.0,0.0,0.0,0.0,0.0,0.0,0.0,0.0,0.0,0.0,0.0,0.0,0.0,0.0,0.0,0.0,0.0,0.0,0.0,0.0,0.0,0.0,0.0,0.0,0.0,0.0,0.0,0.0,0.0,0.0,0.0,0.0,0.0,0.0,0.0,0.0,0.0,0.0,0.0,0.0,0.0,0.0,0.0,0.0,0.0,0.0,0.0,0.0,0.0,0.0,0.0,0.0,0.0,0.0,0.0,0.0,0.3939,0.3357,0.3026,0.2596,0.0,0.0,0.0,0.0,0.0,0.0,0.0,0.0,0.0,0.0,0.0,0.0,0.0,0.0,0.0,0.0,0.0,0.0,0.0,0.0,0.0,0.0,0.0,0.0,0.0,0.0,0.0,0.0,0.0,0.0,0.0,0.0,0.0,0.0,0.0,0.0,0.0,0.0,0.0,0.0,0.0,0.0,0.0,0.0,0.0,0.0,0.0,0.0,0.0,0.0,0.0,0.0,0.0,0.0,0.0,0.0,0.0,0.0,0.0,0.0,0.0,0.0,0.0,0.0,0.0,0.0,0.0,0.0,0.0,0.0,0.0,0.0,0.0,0.0,0.0,0.0,0.0,0.0,0.0,0.0,0.0,0.0,0.0,0.0,0.0,0.0,0.0,0.0,0.0,0.0,0.0,0.0,0.0,0.0,0.0,0.0,0.0,0.0,0.0,0.0,0.0,0.0,0.0,0.0,0.0,0.0,0.0,0.0,0.0,0.0,0.4207,0.3826,0.3318,0.2694,0.2264,0.201,0.0,0.0,0.0,0.0,0.0,0.0,0.0,0.0,0.0,0.0,0.0,0.0,0.0,0.0,0.0,0.0,0.0,0.0,0.0,0.0,0.0,0.0,0.0,0.0,0.0,0.0,0.0,0.0,0.0,0.0,0.0,0.0,0.0,0.0,0.0,0.0,0.0,0.0,0.0,0.0,0.0,0.0,0.0,0.0,0.0,0.0,0.0,0.0,0.0,0.0,0.0,0.0,0.0,0.0,0.0,0.0,0.0,0.0,0.0,0.0,0.0,0.0,0.0,0.0,0.0,0.0,0.0,0.0,0.0,0.0,0.0,0.0,0.0,0.0,0.0,0.0,0.0,0.0,0.0,0.0,0.0,0.0,0.0,0.0,0.0,0.0,0.0,0.0,0.0,0.0,0.0,0.0,0.0,0.0,0.0,0.0,0.0,0.0,0.0,0.0,0.0,0.0,0.0,0.0,0.0,0.0,0.0,0.0,0.4657,0.412,0.3567,0.303,0.2493,0.2071,0.0,0.0,0.0,0.0,0.0,0.0,0.0,0.0,0.0,0.0,0.0,0.0,0.0,0.0,0.0,0.0,0.0,0.0,0.0,0.0,0.0,0.0,0.0,0.0,0.0,0.0,0.0,0.0,0.0,0.0,0.0,0.0,0.0,0.0,0.0,0.0,0.0,0.0,0.0,0.0,0.0,0.0,0.0,0.0,0.0,0.0,0.0,0.0,0.0,0.0,0.0,0.0,0.0,0.0,0.0,0.0,0.0,0.0,0.0,0.0,0.0,0.0,0.0,0.0,0.0,0.0,0.0,0.0,0.0,0.0,0.0,0.0,0.0,0.0,0.0,0.0,0.0,0.0,0.0,0.0,0.0,0.0,0.0,0.0,0.0,0.0,0.0,0.0,0.0,0.0,0.0,0.0,0.0,0.0,0.0,0.0,0.0,0.0,0.0,0.0,0.0,0.0,0.0,0.0,0.0,0.0,0.0,0.0,0.0,0.4655,0.3936,0.3347,0.3026,0.2453,0.2147,0.0,0.0,0.0,0.0,0.0,0.0,0.0,0.0,0.0,0.0,0.0,0.0,0.0,0.0,0.0,0.0,0.0,0.0,0.0,0.0,0.0,0.0,0.0,0.0,0.0,0.0,0.0,0.0,0.0,0.0,0.0,0.0,0.0,0.0,0.0,0.0,0.0,0.0,0.0,0.0,0.0,0.0,0.0,0.0,0.0,0.0,0.0,0.0,0.0,0.0,0.0,0.0,0.0,0.0,0.0,0.0,0.0,0.0,0.0,0.0,0.0,0.0,0.0,0.0,0.0,0.0,0.0,0.0,0.0,0.0,0.0,0.0,0.0,0.0,0.0,0.0,0.0,0.0,0.0,0.0,0.0,0.0,0.0,0.0,0.0,0.0,0.0,0.0,0.0,0.0,0.0,0.0,0.0,0.0,0.0,0.0,0.0,0.0,0.0,0.0,0.0,0.0,0.0,0.0,0.0,0.0,0.0,0.0,0.0,0.4235,0.0,0.3261,0.2901,0.2431,0.2088,0.0,0.0,0.0,0.0,0.0,0.0,0.0,0.0,0.0,0.0,0.0,0.0,0.0,0.0,0.0,0.0,0.0,0.0,0.0,0.0,0.0,0.0,0.0,0.0,0.0,0.0,0.0,0.0,0.0,0.0,0.0,0.0,0.0,0.0,0.0,0.0,0.0,0.0,0.0,0.0,0.0,0.0,0.0,0.0,0.0,0.0,0.0,0.0,0.0,0.0,0.0,0.0,0.0,0.0,0.0,0.0,0.0,0.0,0.0,0.0,0.0,0.0,0.0,0.0,0.0,0.0,0.0,0.0,0.0,0.0,0.0,0.0,0.0,0.0,0.0,0.0,0.0,0.0,0.0,0.0,0.0,0.0,0.0,0.0,0.0,0.0,0.0,0.0,0.0,0.0,0.0,0.0,0.0,0.0,0.0,0.0,0.0,0.0,0.0,0.0,0.0,0.0,0.0,0.0,0.0,0.0,0.0,0.0,0.4052,0.3357,0.3435,0.3264,0.2694,0.2259,0.1964,0.0,0.0,0.0,0.0,0.0,0.0,0.0,0.0,0.0,0.0,0.0,0.0,0.0,0.0,0.0,0.0,0.0,0.0,0.0,0.0,0.0,0.0,0.0,0.0,0.0,0.0,0.0,0.0,0.0,0.0,0.0,0.0,0.0,0.0,0.0,0.0,0.0,0.0,0.0,0.0,0.0,0.0,0.0,0.0,0.0,0.0,0.0,0.0,0.0,0.0,0.0,0.0,0.0,0.0,0.0,0.0,0.0,0.0,0.0,0.0,0.0,0.0,0.0,0.0,0.0,0.0,0.0,0.0,0.0,0.0,0.0,0.0,0.0,0.0,0.0,0.0,0.0,0.0,0.0,0.0,0.0,0.0,0.0,0.0,0.0,0.0,0.0,0.0,0.0,0.0,0.0,0.0,0.0,0.0,0.0,0.0,0.0,0.0,0.0,0.0,0.0,0.0,0.0,0.0,0.0,0.0,0.0,0.0,0.0,0.3433,0.3461,0.3181,0.2524,0.2179,0.1887,0.0,0.0,0.0,0.0,0.0,0.0,0.0,0.0,0.0,0.0,0.0,0.0,0.0,0.0,0.0,0.0,0.0,0.0,0.0,0.0,0.0,0.0,0.0,0.0,0.0,0.0,0.0,0.0,0.0,0.0,0.0,0.0,0.0,0.0,0.0,0.0,0.0,0.0,0.0,0.0,0.0,0.0,0.0,0.0,0.0,0.0,0.0,0.0,0.0,0.0,0.0,0.0,0.0,0.0,0.0,0.0,0.0,0.0,0.0,0.0,0.0,0.0,0.0,0.0,0.0,0.0,0.0,0.0,0.0,0.0,0.0,0.0,0.0,0.0,0.0,0.0,0.0,0.0,0.0,0.0,0.0,0.0,0.0,0.0,0.0,0.0,0.0,0.0,0.0,0.0,0.0,0.0,0.0,0.0,0.0,0.0,0.0,0.0,0.0,0.0,0.0,0.0,0.0,0.0,0.0,0.0,0.0,0.0,0.0,0.3321,0.3189,0.2927,0.2459,0.2008,0.1673,0.1484,0.0,0.0,0.0,0.0,0.0,0.0,0.0,0.0,0.0,0.0,0.0,0.0,0.0,0.0,0.0,0.0,0.0,0.0,0.0,0.0,0.0,0.0,0.0,0.0,0.0,0.0,0.0,0.0,0.0,0.0,0.0,0.0,0.0,0.0,0.0,0.0,0.0,0.0,0.0,0.0,0.0,0.0,0.0,0.0,0.0,0.0,0.0,0.0,0.0,0.0,0.0,0.0,0.0,0.0,0.0,0.0,0.0,0.0,0.0,0.0,0.0,0.0,0.0,0.0,0.0,0.0,0.0,0.0,0.0,0.0,0.0,0.0,0.0,0.0,0.0,0.0,0.0,0.0,0.0,0.0,0.0,0.0,0.0,0.0,0.0,0.0,0.0,0.0,0.0,0.0,0.0,0.0,0.0,0.0,0.0,0.0,0.0,0.0,0.0,0.0,0.0,0.0,0.0,0.0,0.0,0.0,0.0,0.0,0.2999,0.2661,0.2472,0.2471,0.1723,0.1386,0.0,0.0,0.0,0.0,0.0,0.0,0.0,0.0,0.0,0.0,0.0,0.0,0.0,0.0,0.0,0.0,0.0,0.0,0.0,0.0,0.0,0.0,0.0,0.0,0.0,0.0,0.0,0.0,0.0,0.0,0.0,0.0,0.0,0.0,0.0,0.0,0.0,0.0,0.0,0.0,0.0,0.0,0.0,0.0,0.0,0.0,0.0,0.0,0.0,0.0,0.0,0.0,0.0,0.0,0.0,0.0,0.0,0.0,0.0,0.0,0.0,0.0,0.0,0.0,0.0,0.0,0.0,0.0,0.0,0.0,0.0,0.0,0.0,0.0,0.0,0.0,0.0,0.0,0.0,0.0,0.0,0.0,0.0,0.0,0.0,0.0,0.0,0.0,0.0,0.0,0.0,0.0,0.0,0.0,0.0,0.0,0.0,0.0,0.0,0.0,0.0,0.0,0.0,0.0,0.0,0.0,0.0,0.0,0.0,0.2991,0.2358,0.2144,0.2251,0.1851,0.1574,0.0,0.0,0.0,0.0,0.0,0.0,0.0,0.0,0.0,0.0,0.0,0.0,0.0,0.0,0.0,0.0,0.0,0.0,0.0,0.0,0.0,0.0,0.0,0.0,0.0,0.0,0.0,0.0,0.0,0.0,0.0,0.0,0.0,0.0,0.0,0.0,0.0,0.0,0.0,0.0,0.0,0.0,0.0,0.0,0.0,0.0,0.0,0.0,0.0,0.0,0.0,0.0,0.0,0.0,0.0,0.0,0.0,0.0,0.0,0.0,0.0,0.0,0.0,0.0,0.0,0.0,0.0,0.0,0.0,0.0,0.0,0.0,0.0,0.0,0.0,0.0,0.0,0.0,0.0,0.0,0.0,0.0,0.0,0.0,0.0,0.0,0.0,0.0,0.0,0.0,0.0,0.0,0.0,0.0,0.0,0.0,0.0,0.0,0.0,0.0,0.0,0.0,0.0,0.0,0.0,0.0,0.0,0.0,0.2975,0.2697,0.2093,0.1841,0.1947,0.1616,0.1474,0.0,0.0,0.0,0.0,0.0,0.0,0.0,0.0,0.0,0.0,0.0,0.0,0.0,0.0,0.0,0.0,0.0,0.0,0.0,0.0,0.0,0.0,0.0,0.0,0.0,0.0,0.0,0.0,0.0,0.0,0.0,0.0,0.0,0.0,0.0,0.0,0.0,0.0,0.0,0.0,0.0,0.0,0.0,0.0,0.0,0.0,0.0,0.0,0.0,0.0,0.0,0.0,0.0,0.0,0.0,0.0,0.0,0.0,0.0,0.0,0.0,0.0,0.0,0.0,0.0,0.0,0.0,0.0,0.0,0.0,0.0,0.0,0.0,0.0,0.0,0.0,0.0,0.0,0.0,0.0,0.0,0.0,0.0,0.0,0.0,0.0,0.0,0.0,0.0,0.0,0.0,0.0,0.0,0.0,0.0,0.0,0.0,0.0,0.0,0.0,0.0,0.0,0.0,0.0,0.0,0.0,0.0,0.0,0.2686,0.2351,0.1896,0.1598,0.1565,0.1229,0.1197,0.0,0.0,0.0,0.0,0.0,0.0,0.0,0.0,0.0,0.0,0.0,0.0,0.0,0.0,0.0,0.0,0.0,0.0,0.0,0.0,0.0,0.0,0.0,0.0,0.0,0.0,0.0,0.0,0.0,0.0,0.0,0.0,0.0,0.0,0.0,0.0,0.0,0.0,0.0,0.0,0.0,0.0,0.0,0.0,0.0,0.0,0.0,0.0,0.0,0.0,0.0,0.0,0.0,0.0,0.0,0.0,0.0,0.0,0.0,0.0,0.0,0.0,0.0,0.0,0.0,0.0,0.0,0.0,0.0,0.0,0.0,0.0,0.0,0.0,0.0,0.0,0.0,0.0,0.0,0.0,0.0,0.0,0.0,0.0,0.0,0.0,0.0,0.0,0.0,0.0,0.0,0.0,0.0,0.0,0.0,0.0,0.0,0.0,0.0,0.0,0.0,0.0,0.0,0.0,0.0,0.0,0.0,0.0,0.2969,0.2645,0.2169,0.1812,0.1536,0.1236,0.1084,0.0,0.0,0.0,0.0,0.0,0.0,0.0,0.0,0.0,0.0,0.0,0.0,0.0,0.0,0.0,0.0,0.0,0.0,0.0,0.0,0.0,0.0,0.0,0.0,0.0,0.0,0.0,0.0,0.0,0.0,0.0,0.0,0.0,0.0,0.0,0.0,0.0,0.0,0.0,0.0,0.0,0.0,0.0,0.0,0.0,0.0,0.0,0.0,-0.249,0.0,0.0,0.0,0.0,0.0,0.0,0.0,0.0,0.0,0.0,0.0,0.0,0.0,0.0,0.0,0.0,0.0,0.0,0.0,0.0,0.0,0.0,0.0,0.0,0.0,0.0,0.0,0.0,0.0,0.0,0.0,0.0,0.0,0.0,0.0,0.0,0.0,0.0,0.0,0.0,0.0,0.0,0.0,0.0,0.0,0.0,0.0,0.0,0.0,0.0,0.0,0.0,0.0,0.0,0.0,0.0,0.0,0.0,0.0,0.2815,0.232,0.1889,0.1397,0.1,0.0818,0.0823,0.0,0.0,0.0,0.0,0.0,0.0,0.0,0.0,0.0,0.0,0.0,0.0,0.0,0.0,0.0,0.0,0.0,0.0,0.0,0.0,0.0,0.0,0.0,0.0,0.0,0.0,0.0,0.0,0.0,0.0,0.0,0.0,0.0,0.0,0.0,0.0,0.0,0.0,0.0,0.0,0.0,0.0,0.0,0.0,0.0,0.0,0.0,0.0,0.0,0.0,0.0,0.0,0.0,0.0,0.0,0.0,0.0,0.0,0.0,0.0,0.0,0.0,0.0,0.0,0.0,0.0,0.0,0.0,0.0,0.0,0.0,0.0,0.0,0.0,0.0,0.0,0.0,0.0,0.0,0.0,0.0,0.0,0.0,0.0,0.0,0.0,0.0,0.0,0.0,0.0,0.0,0.0,0.0,0.0,0.0,0.0,0.0,0.0,0.0,0.0,0.0,0.0,0.0,0.0,0.0,0.0,0.0,0.2908,0.2561,0.2,0.1474,0.0949,0.0427,0.0404,0.0516,0.0754,0.0,0.0,0.0,0.0,0.0,0.0,0.0,0.0,0.0,0.0,0.0,0.0,0.0,0.0,0.0,0.0,0.0,0.0,0.0,0.0,0.0,0.0,0.0,0.0,0.0,0.0,0.0,0.0,0.0,0.0,0.0,0.0,0.0,0.0,0.0,0.0,0.0,0.0,0.0037,-0.033,0.0,0.0,0.0,0.0,0.0,0.0,0.0,0.0,-0.2127,0.0,0.0,0.0,0.0,0.0,0.0,0.0,0.0,0.0,0.0,0.0,0.0,0.0,0.0,0.0,0.0,0.0,0.0,0.0,0.0,0.0,0.0,0.0,0.0,0.0,0.0,0.0,0.0,0.0,0.0,0.0,0.0,0.0,0.0,0.0,0.0,0.0,0.0,0.0,0.0,0.0,0.0,0.0,0.0,0.0,0.0,0.0,0.0,0.0,0.0,0.0,0.0,0.0,0.0,0.0,0.0,0.3411,0.2846,0.2433,0.2235,0.15,0.0884,0.0418,0.0401,0.0214,-0.0123,0.0,0.0,0.0,0.0,0.0,0.0,0.0,0.0,0.0,0.0,0.0,0.0,0.0,0.0,0.0,0.0,0.0,0.0,0.0,0.0,0.0,0.0,0.0,0.0,0.0,0.0,0.0,0.0,0.0,0.0,0.0,0.0,0.0,0.0,0.0,0.0,0.0,0.0,0.0,-0.0188,-0.0414,0.0,0.0,0.0,0.0,0.0,0.0,0.0,0.0,-0.1797,0.0,0.0,0.0,0.0,0.0,0.0,0.0,0.0,0.0,0.0,0.0,0.0,0.0,0.0,0.0,0.0,0.0,0.0,0.0,0.0,0.0,0.0,0.0,0.0,0.0,0.0,0.0,0.0,0.0,0.0,0.0,0.0,0.0,0.0,0.0,0.0,0.0,0.0,0.0,0.0,0.0,0.0,0.0,0.0,0.0,0.0,0.0,0.0,0.0,0.0,0.0,0.0,0.0,0.0,0.0,0.3071,0.262,0.2252,0.1873,0.1242,0.0683,0.0273,0.0219,-0.0042,0.0,0.0,0.0,0.0,0.0,0.0,0.0,0.0,0.0,0.0,0.0,0.0,0.0,0.0,0.0,0.0,0.0,0.0,0.0,0.0,0.0,0.0,0.0,0.0,0.0,0.0,0.0,0.0,0.0,0.0,0.0,0.0,0.0,0.0,0.0,0.0,0.0,0.0,0.0,0.0,-0.0234,-0.039,-0.0722,0.0,0.0,0.0,0.0,0.0,0.0,-0.161,-0.1691,0.0,0.0,0.0,0.0,0.0,0.0,0.0,0.0,0.0,0.0,0.0,0.0,0.0,0.0,0.0,0.0,0.0,0.0,0.0,0.0,0.0,0.0,0.0,0.0,0.0,0.0,0.0,0.0,0.0,0.0,0.0,0.0,0.0,0.0,0.0,0.0,0.0,0.0,0.0,0.0,0.0,0.0,0.0,0.0,0.0,0.0,0.0,0.0,0.0,0.0,0.0,0.0,0.0,0.0,0.0,0.2688,0.2439,0.2072,0.1559,0.0991,0.0535,0.0178,0.0085,-0.0202,0.0,0.0,0.0,0.0,0.0,0.0,0.0,0.0,0.0,0.0,0.0,0.0,0.0,0.0,0.0,0.0,0.0,0.0,0.0,0.0,0.0,0.0,0.0,0.0,0.0,0.0,0.0,0.0,0.0,0.0,0.0,0.0,0.0,0.0,0.0,0.0,0.0,0.0,0.0,0.0,0.0,-0.0401,-0.0729,-0.0779,0.0,0.0,0.0,0.0,-0.1058,-0.1254,0.0,0.0,0.0,0.0,0.0,0.0,0.0,0.0,0.0,0.0,0.0,0.0,0.0,0.0,0.0,0.0,0.0,0.0,0.0,0.0,0.0,0.0,0.0,0.0,0.0,0.0,0.0,0.0,0.0,0.0,0.0,0.0,0.0,0.0,0.0,0.0,0.0,0.0,0.0,0.0,0.0,0.0,0.0,0.0,0.0,0.0,0.0,0.0,0.0,0.0,0.0,0.0,0.0,0.0,0.0,0.0,0.2937,0.2361,0.194,0.1749,0.1059,0.0611,0.0349,0.0123,-0.0117,0.0,0.0,0.0,0.0,0.0,0.0,0.0,0.0,0.0,0.0,0.0,0.0,0.0,0.0,0.0,0.0,0.0,0.0,0.0,0.0,0.0,0.0,0.0,0.0,0.0,0.0,0.0,0.0,0.0,0.0,0.0,0.0,0.0,0.0,0.0,0.0,0.0,0.0,0.0,0.0,0.0,-0.0121,-0.0353,-0.0359,-0.0438,0.0,0.0,-0.0523,-0.0878,-0.0618,0.0,0.0,0.0,0.0,0.0,0.0,0.0,0.0,0.0,0.0,0.0,0.0,0.0,0.0,0.0,0.0,0.0,0.0,0.0,0.0,0.0,0.0,0.0,0.0,0.0,0.0,0.0,0.0,0.0,0.0,0.0,0.0,0.0,0.0,0.0,0.0,0.0,0.0,0.0,0.0,0.0,0.0,0.0,0.0,0.0,0.0,0.0,0.0,0.0,0.0,0.0,0.0,0.0,0.0,0.0,0.3417,0.2964,0.264,0.2304,0.19,0.1243,0.0721,0.0377,0.004,-0.027,0.0,0.0,0.0,0.0,0.0,0.0,0.0,0.0,0.0,0.0,0.0,0.0,0.0,0.0,0.0,0.0,0.0,0.0,0.0,0.0,0.0,0.0,0.0,0.0,0.0,0.0,0.0,0.0,0.0,0.0,0.0,0.0,0.0,0.0,0.0,0.0,0.0,0.0,0.0,0.0,0.0,0.0,-0.0116,-0.0121,0.0,0.0,0.0,0.0039,-0.0038,0.0,0.0,0.0,0.0,0.0,0.0,0.0,0.0,0.0,0.0,0.0,0.0,0.0,0.0,0.0,0.0,0.0,0.0,0.0,0.0,0.0,0.0,0.0,0.0,0.0,0.0,0.0,0.0,0.0,0.0,0.0,0.0,0.0,0.0,0.0,0.0,0.0,0.0,0.0,0.0,0.0,0.0,0.0,0.0,0.0,0.0,0.0,0.0,0.0,0.0,0.0,0.0,0.0,0.0,0.0,0.0,0.0,0.3097,0.296,0.2631,0.2142,0.1463,0.0868,0.0488,-0.0039,0.0,0.0,0.0,0.0,0.0,0.0,0.0,0.0,0.0,0.0,0.0,0.0,0.0,0.0,0.0,0.0,0.0,0.0,0.0,0.0,0.0,0.0,0.0,0.0,0.0,0.0,0.0,-0.0777,0.0,0.0,0.0,0.0,0.0,0.0,0.0,0.0,0.0,0.0,0.0,0.0,0.0,0.0,0.0082,0.0,0.0081,0.0206,0.0,0.0,0.0469,0.0502,0.0301,0.011,0.0,0.0,0.0,0.0,0.0,0.0,0.0,0.0,0.0,0.0,0.0,0.0,0.0,0.0,0.0,0.0,0.0,0.0,0.0,0.0,0.0,0.0,0.0,0.0,0.0,0.0,0.0,0.0,0.0,0.0,0.0,0.0,0.0,0.0,0.0,0.0,0.0,0.0,0.0,0.0,0.0,0.0,0.0,0.0,0.0,0.0,0.0,0.0,0.0,0.0,0.0,0.0,0.0,0.0,0.0,0.361,0.3135,0.2794,0.2519,0.1728,0.1099,0.0691,0.0038,-0.0293,0.0,0.0,0.0,0.0,0.0,0.0,0.0,0.0,0.0,0.0,0.0,0.0,0.0,0.0,0.0,0.0,0.0,0.0,0.0,0.0,0.0,0.0,0.0,0.0,0.0,0.0,0.0,0.0,0.0,0.0,0.0,0.0,0.0,0.0,0.0,0.0,0.0,0.0,0.0,0.0,0.0,0.029,0.0039,0.0368,0.058,0.0,0.0,0.0735,0.0369,0.0447,0.0443,0.0069,0.0,0.0,0.0,0.0,0.0,0.0,0.0,0.0,0.0,0.0,0.0,0.0,0.0,0.0,0.0,0.0,0.0,0.0,0.0,0.0,0.0,0.0,0.0,0.0,0.0,0.0,0.0,0.0,0.0,0.0,0.0,0.0,0.0,0.0,0.0,0.0,0.0,0.0,0.0,0.0,0.0,0.0,0.0,0.0,0.0,0.0,0.0,0.0,0.0,0.0,0.0,0.0,0.0,0.3644,0.3257,0.3058,0.2835,0.2536,0.1717,0.1233,0.1075,0.0414,0.0,0.0,0.0,0.0,0.0,0.0,0.0,0.0,0.0,0.0,0.0,0.0,0.0,0.0,0.0,0.0,0.0,0.0,0.0,0.0,0.0,0.0,0.0,0.0,0.0,0.0,0.0,0.0,0.0,-0.0725,-0.0861,-0.0957,0.0,0.0,0.0,0.0,0.0,0.0,0.0,0.0,0.0,0.0,0.0326,0.0355,0.0758,0.0,0.0,0.1191,0.1328,0.0917,0.0808,0.0692,0.0417,0.0103,0.0,0.0,0.0,0.0,0.0,0.0,0.0,0.0,0.0,0.0,0.0,0.0,0.0,0.0,0.0,0.0,0.0,0.0,0.0,0.0,0.0,0.0,0.0,0.0,0.0,0.0,0.0,0.0,0.0,0.0,0.0,0.0,0.0,0.0,0.0,0.0,0.0,0.0,0.0,0.0,0.0,0.0,0.0,0.0,0.0,0.0,0.0,0.0,0.0,0.0,0.0,0.0,0.3614,0.303,0.294,0.2717,0.2313,0.1647,0.1256,0.1099,0.0599,0.0218,0.0,0.0,0.0,0.0,0.0,0.0,0.0,0.0,0.0,0.0,0.0,0.0,0.0,0.0,0.0,0.0,0.0,0.0,0.0,0.0,0.0,0.0,0.0,0.0,0.0,0.0,0.0,0.0,-0.0603,-0.0806,-0.1059,0.0,0.0,0.0,0.0,0.0,0.0,0.0,0.0,0.0,0.0,0.0444,0.0512,0.0909,0.1182,0.1114,0.1408,0.1502,0.1171,0.0977,0.0821,0.0626,0.0,0.0,0.0,0.0,0.0,0.0,0.0,0.0,0.0,0.0,0.0,0.0,0.0,0.0,0.0,0.0,0.0,0.0,0.0,0.0,0.0,0.0,0.0,0.0,0.0,0.0,0.0,0.0,0.0,0.0,0.0,0.0,0.0,0.0,0.0,0.0,0.0,0.0,0.0,0.0,0.0,0.0,0.0,0.0,0.0,0.0,0.0,0.0,0.0,0.0,0.0,0.0,0.0,0.3653,0.31,0.2801,0.2448,0.1919,0.1531,0.11,0.0667,0.0412,0.0291,0.0291,0.0,0.0,0.0,0.0,0.0,0.0,0.0,0.0,0.0,0.0,0.0,0.0,0.0,0.0,0.0,0.0,0.0,0.0,0.0,0.0,0.0,0.0,0.0,0.0,0.0,0.0,-0.0291,-0.0437,-0.0685,0.0,0.0,0.0,0.0,0.0,0.0,0.0,0.0,0.0,0.0,0.0401,0.0605,0.0355,0.0881,0.1206,0.0944,0.1077,0.1164,0.095,0.0928,0.08,0.0,0.0,0.0,0.0,0.0,0.0,0.0,0.0,0.0,0.0,0.0,0.0,0.0,0.0,0.0,0.0,0.0,0.0,0.0,0.0,0.0,0.0,0.0,0.0,0.0,0.0,0.0,1.833,1.8124,0.0,0.0,0.0,0.0,0.0,0.0,0.0,0.0,0.0,0.0,0.0,1.0665,0.9598,0.0,0.0,0.0,0.0,0.0,0.0,0.0,0.0,0.0,0.0,0.0,0.0,0.3481,0.2797,0.2385,0.2032,0.1725,0.1256,0.1022,0.106,0.0936,0.0753,0.0451,0.0,0.0,0.0,0.0,0.0,0.0,0.0,0.0,0.0,0.0,0.0,0.0,0.0,0.0,0.0,0.0,0.0,0.0,0.0,0.0,0.0,0.0,0.0,0.0,0.0,-0.0145,0.0,0.0,0.0,0.0,0.0,0.0,0.0,0.0,0.0,0.0,0.0,0.0039,0.0196,0.0474,0.0634,0.0668,0.1131,0.1355,0.0,0.0,0.0,0.0,0.0,0.0,0.0,0.0,0.0,0.0,0.0,0.0,0.0,0.0,0.1277,0.074,0.0639,0.0505,0.0,0.0,0.0,0.0,0.0,0.0,0.0,0.0,0.0,0.0,0.0,0.0,0.0,0.0,0.0,0.0,0.0,1.7885,0.0,0.0,0.0,0.0,0.0,0.0,0.0,0.0,1.2489,1.1728,1.0754,0.9722,0.8868,0.0,0.7487,0.6947,0.0,0.0,0.0,0.0,0.0,0.0,0.0,0.0,0.3277,0.2468,0.2038,0.1643,0.1254,0.0904,0.0786,0.0942,0.1086,0.0926,0.0439,0.074,0.074,0.0,0.0,0.0,0.0,0.0,0.0,0.0,0.0,0.0,0.0,0.0,0.0,0.0,0.0,0.0,0.0,0.0,0.0,0.0,0.0,0.0,0.0,0.0,-0.0264,0.0,0.0,0.0,0.0,0.0,0.0,0.0,0.0,0.0,0.0038,0.0117,0.0196,0.0354,0.0589,0.0746,0.0864,0.0,0.0,0.0,0.0,0.0,0.0,0.0,0.0967,0.0917,0.0781,0.0788,0.1,0.1392,0.1712,0.1697,0.0,0.0,0.1415,0.1277,0.1147,0.0682,0.0485,0.0316,-0.0035,-0.0106,-0.0143,0.0,0.0,0.0,0.0,0.0,0.0,0.0,0.0,1.9594,1.9284,0.0,1.8649,0.0,0.0,0.0,0.0,0.0,0.0,0.0,0.0,1.2409,1.1818,1.1292,1.0175,0.9392,0.8961,0.8602,0.7911,0.6912,0.5716,0.0,0.0,0.0,0.0,0.0,0.0,0.3073,0.2212,0.1854,0.1343,0.0664,0.0431,0.0314,0.0352,0.0822,0.0853,0.0372,0.0841,0.0908,0.0539,0.0506,0.0,0.0,0.0,0.0,0.0,0.0,0.0,0.0,0.0,0.0,0.0,0.0,0.0,0.0,0.0,0.0,0.0,0.0,0.0,0.0,-0.0153,0.0,0.0,0.0,0.0,0.0,0.0,0.0,0.0,0.0,0.0,0.0235,0.0314,0.0393,0.0589,0.0,0.0,0.0,0.0,0.1296,0.1296,0.127,0.1203,0.1172,0.1204,0.1184,0.1123,0.0,0.0,0.1286,0.1552,0.1849,0.2169,0.2512,0.2707,0.2299,0.1918,0.1661,0.1632,0.1398,0.106,0.0686,0.0544,0.0437,2.1195,0.0,0.0,0.0,0.0,2.08,2.0645,1.9998,1.9879,1.9655,1.9299,1.843,0.0,0.0,0.0,0.0,0.0,0.0,1.3731,1.2973,1.2606,1.1929,1.0962,1.0325,0.9508,0.8576,0.8087,0.7331,0.6364,0.5766,0.5341,0.5077,0.0,0.0,0.0,0.0,0.308,0.2228,0.1807,0.1297,0.0633,0.0531,0.0493,0.0522,0.0902,0.0942,0.0674,0.0941,0.0975,0.074,0.0708,0.0,0.0,0.0,0.0,0.0,0.0,0.0,0.0,0.0,0.0,0.0,0.0,0.0,0.0,0.0,0.0,0.0,0.0,0.0,0.0224,0.0039,-0.0236,0.0,0.0,0.0,0.0,0.0,0.0,0.0,0.0,0.0,0.0433,0.0393,0.0432,0.0,0.0,0.0943,0.114,0.1258,0.1297,0.1297,0.0,0.0,0.0,0.1311,0.1408,0.1398,0.1494,0.1534,0.1396,0.1832,0.2262,0.2407,0.2715,0.2915,0.2909,0.2622,0.2291,0.1939,0.166,0.1334,0.0885,0.0647,0.0513,2.274,2.2016,2.1721,2.1555,2.1503,2.1508,2.1182,2.0703,2.0223,1.9934,1.9684,1.8873,1.8556,1.8612,1.7061,0.0,0.0,0.0,1.3731,1.29,1.2709,1.204,1.1037,1.055,0.9841,0.8894,0.8538,0.7875,0.6874,0.6552,0.6169,0.5755,0.0,0.0,0.3752,0.3451,0.2875,0.2028,0.1674,0.1184,0.051,0.0407,0.0332,0.0251,0.0706,0.0865,0.0606,0.0942,0.0975,0.0706,0.0775,0.0809,0.0,0.0,0.0,0.0,0.0,0.0,0.0,0.0,0.0,0.0,0.0,0.1177,0.0809,0.0,0.0,0.0,0.0464,0.0404,0.0191,0.0,0.0,0.0,0.0,0.0,0.0,0.0,0.0,-0.0559,-0.036,0.0,0.063,0.0634,0.0715,0.1023,0.1061,0.114,0.1258,0.0,0.1297,0.1297,0.1297,0.1285,0.1217,0.1375,0.1563,0.1599,0.1634,0.1693,0.1665,0.1887,0.212,0.2416,0.2641,0.288,0.3072,0.3058,0.2902,0.2421,0.2148,0.1827,0.1418,0.1235,0.1077,2.4229,2.3944,2.2888,2.267,2.2889,2.2035,2.1611,2.1447,2.0645,2.0162,1.9943,1.9721,1.9355,1.889,1.7428,0.0,0.0,1.4686,1.3914,1.2936,1.2753,1.2194,1.1409,1.085,1.0255,0.962,0.9582,0.9089,0.8131,0.7772,0.7191,0.6388,0.5205,0.4271,0.367,0.3248,0.2581,0.1775,0.1521,0.1051,0.0327,0.0109,-0.0072,-0.0245,0.0419,0.0656,0.0371,0.0841,0.0942,0.0573,0.0741,0.0843,0.0843,0.0,0.0,0.0,0.0,0.0,0.0,0.0,0.0,0.0,0.0,0.0,0.0,0.0,0.0,0.0,0.0406,0.0,0.0039,-0.0118,0.0,0.0,0.0,-0.074,-0.1009,-0.0786,-0.0531,-0.0367,0.0,0.0,0.0869,0.0,0.1092,0.1305,0.13,0.13,0.13,0.1299,0.1336,0.1297,0.1297,0.1286,0.1262,0.1432,0.1671,0.1822,0.1672,0.1672,0.1918,0.1764,0.1826,0.2327,0.2486,0.2643,0.2975,0.3261,0.3389,0.3086,0.2755,0.2496,0.2256,0.209,0.183,2.478,2.5218,2.4625,2.4093,2.3536,2.2974,2.2312,2.162,2.1351,2.087,2.0328,1.9842,1.8955,1.7854,1.7494,1.6535,1.5178,1.4893,1.4243,1.339,1.3163,1.2556,1.1632,1.1335,1.0631,0.962,0.9435,0.9013,0.8327,0.7783,0.7233,0.6607,0.5768,0.4921,0.4129,0.3498,0.2793,0.2093,0.1578,0.1039,0.0494,0.0139,0.0069,0.0175,0.0549,0.0744,0.0673,0.0975,0.1042,0.0975,0.111,0.1177,0.1177,0.1513,0.0,0.0,0.0,0.0,0.0,0.0,0.0,0.0,0.0,0.1391,0.104,0.0,0.0962,0.0,0.0421,0.0273,0.0236,0.02,0.0,0.0,-0.0661,-0.0795,-0.1179,-0.0893,-0.0553,-0.0125,0.0421,0.097,0.1451,0.1538,0.1531,0.1579,0.1413,0.1332,0.1331,0.143,0.1454,0.1336,0.1415,0.1452,0.1325,0.1604,0.1911,0.2056,0.1999,0.2011,0.2069,0.1993,0.2069,0.2432,0.2732,0.3007,0.3119,0.3328,0.3471,0.3391,0.3193,0.2924,0.2635,0.2381,0.2008,2.502,2.5509,2.5185,2.4881,2.4541,2.3883,2.3212,2.2624,2.2289,2.1688,2.0875,2.0231,1.9258,1.8172,1.7838,1.6902,1.5614,1.5041,1.4358,1.3608,1.3266,1.2673,1.1966,1.1409,1.07,0.9846,0.9473,0.898,0.8403,0.7863,0.7351,0.6795,0.6127,0.5364,0.4485,0.3572,0.2775,0.2125,0.1353,0.0745,0.0413,0.0136,0.0102,0.0309,0.0543,0.0707,0.0808,0.1009,0.1109,0.1109,0.1244,0.1311,0.1311,0.1614,0.1782,0.0,0.0,0.0,0.0,0.0,0.0,0.0,0.0,0.0,0.0,0.0,0.096,0.0499,0.0351,0.0275,0.0157,0.0161,-0.0041,-0.0495,-0.0548,-0.0644,-0.0865,-0.0608,-0.0173,0.0384,0.077,0.1194,0.1642,0.1611,0.1572,0.1553,0.1414,0.1313,0.1326,0.1466,0.1533,0.1336,0.1454,0.1612,0.1573,0.1769,0.1995,0.224,0.2233,0.2176,0.22,0.2062,0.2052,0.2311,0.2625,0.2861,0.2986,0.3261,0.3498,0.3498,0.3431,0.3261,0.2958,0.2816,0.2574,2.5216,2.545,2.5242,2.5407,2.5708,2.4728,2.4122,2.3724,2.3145,2.2333,2.137,2.0641,1.9833,1.8957,1.833,1.7366,1.6125,1.5246,1.4511,1.3863,1.3236,1.2709,1.2261,1.126,1.0594,1.018,0.9587,0.898,0.8403,0.8016,0.748,0.6857,0.6331,0.5624,0.469,0.365,0.2762,0.1987,0.1089,0.0572,0.0404,0.0168,0.0169,0.0371,0.0506,0.064,0.0809,0.1043,0.1143,0.1143,0.1311,0.1445,0.1445,0.1614,0.1748,0.0,0.189,0.0,0.0,0.0,0.0,0.0,0.0,0.0,0.0,0.1,0.0845,0.0314,0.0276,0.0197,0.0,0.0,-0.0124,-0.0337,-0.0344,-0.0351,-0.0357,-0.0088,0.0349,0.0959,0.1073,0.1274,0.1742,0.1596,0.144,0.1472,0.1367,0.1332,0.1317,0.1459,0.1533,0.1336,0.1454,0.1573,0.1769,0.1887,0.2003,0.2352,0.2339,0.225,0.2325,0.2116,0.1932,0.2141,0.2461,0.2671,0.2733,0.3192,0.3529,0.3563,0.3578,0.3515,0.3303,0.3249,0.3235,2.5936,2.6529,2.5762,2.593,2.6619,2.5518,2.4476,2.3517,2.3028,2.2144,2.1007,2.0515,1.9794,1.8993,1.884,1.7951,1.6522,1.6351,1.556,1.4245,1.3484,1.2863,1.2261,1.126,1.0588,1.018,0.9582,0.8975,0.8403,0.8012,0.7403,0.6633,0.6294,0.5624,0.4726,0.0,0.0,0.0,0.1551,0.1244,0.0942,0.0573,0.0506,0.0708,0.0875,0.0,0.0809,0.1279,0.1445,0.1277,0.1748,0.0,0.0,0.0,0.0,0.0,0.0,0.0,0.0,0.0,0.0,0.0,0.2071,0.1605,0.1158,0.0729,0.0352,0.0079,0.004,0.004,0.0,0.0,-0.0042,-0.0043,-0.0087,-0.0088,-0.0045,0.0313,0.0758,0.1248,0.1511,0.1817,0.2215,0.2002,0.1683,0.1614,0.1515,0.1358,0.1303,0.1474,0.1534,0.1375,0.1336,0.1415,0.1612,0.1808,0.1963,0.2192,0.2351,0.2302,0.2245,0.2262,0.2135,0.2098,0.2666,0.3093,0.2975,0.3458,0.3876,0.3761,0.39,0.3934,0.3515,0.3343,0.3058,2.6202,0.0,2.6084,2.6209,0.0,2.5893,2.503,2.4125,2.3762,2.2746,2.1222,2.0565,1.9863,1.9143,1.8746,1.7943,1.6867,1.6355,1.558,1.461,1.3638,1.2929,1.2409,1.1446,1.07,1.018,0.9582,0.8941,0.825,0.794,0.7437,0.6749,0.6481,0.5876,0.4958,0.4138,0.3109,0.1918,0.1614,0.1344,0.1109,0.0807,0.074,0.0942,0.0,0.0,0.0,0.0,0.0,0.0,0.0,0.0,0.0,0.0,0.0,0.2656,0.2484,0.2445,0.2617,0.247,0.2464,0.2682,0.2181,0.1619,0.108,0.071,0.044,0.036,0.0327,0.0414,0.0538,0.0422,0.0344,0.0348,0.0263,0.0177,0.0224,0.0404,0.0807,0.1436,0.148,0.166,0.2289,0.1885,0.1609,0.1545,0.1429,0.1365,0.1346,0.1471,0.1555,0.1457,0.1336,0.1415,0.1691,0.1808,0.1964,0.2152,0.2251,0.2285,0.2229,0.2308,0.2367,0.235,0.2911,0.3381,0.3293,0.3673,0.402,0.3953,0.3958,0.3947,0.3681,0.3742,0.371,2.65,2.6599,2.6469,2.6515,2.6626,2.6103,2.5444,2.4645,0.0,0.0,0.0,2.0723,1.9971,1.9313,1.865,1.793,1.7152,1.6271,1.5523,1.4803,1.3792,1.301,1.2452,1.1558,1.0743,1.0067,0.9549,0.8861,0.8063,0.7863,0.7476,0.6903,0.6676,0.6083,0.5052,0.3906,0.287,0.2022,0.1614,0.1378,0.1176,0.0974,0.0941,0.1109,0.1143,0.1146,0.1151,0.1456,0.1629,0.1706,0.198,0.231,0.2568,0.2398,0.2352,0.258,0.2453,0.2482,0.2681,0.2506,0.2495,0.2704,0.2234,0.1686,0.1061,0.084,0.0728,0.0688,0.0704,0.08,0.1053,0.0859,0.0741,0.0786,0.0619,0.0536,0.0582,0.0583,0.0942,0.157,0.1436,0.1391,0.2019,0.1705,0.1391,0.1383,0.1348,0.1314,0.1322,0.137,0.1451,0.1382,0.1297,0.1336,0.1691,0.1808,0.1925,0.208,0.2156,0.2193,0.2225,0.2339,0.2485,0.2474,0.3064,0.3372,0.3441,0.3743,0.4073,0.4077,0.4019,0.3955,0.3919,0.4189,0.4331,2.7488,2.7116,2.711,2.7031,2.6808,2.6187,2.53,2.4241,2.3409,2.2465,2.1478,2.0829,2.0167,1.9569,1.9453,1.8581,1.7223,1.7281,1.6326,0.0,1.4,1.3142,1.2077,1.1409,1.0594,0.9733,0.9397,0.8784,0.7936,0.7821,0.7403,0.6718,0.6602,0.5919,0.4644,0.3586,0.2801,0.2359,0.2188,0.1884,0.1547,0.121,0.1076,0.1109,0.121,0.1293,0.1357,0.1568,0.1796,0.2017,0.202,0.2204,0.2569,0.2536,0.2577,0.2586,0.264,0.2676,0.2685,0.2584,0.2423,0.2313,0.2195,0.1961,0.1533,0.1103,0.079,0.0633,0.07,0.08,0.097,0.086,0.0877,0.1245,0.1146,0.1056,0.1208,0.1211,0.1346,0.1705,0.1525,0.1436,0.175,0.157,0.1391,0.1386,0.1359,0.1283,0.1078,0.1063,0.1048,0.1028,0.0983,0.1061,0.1375,0.1573,0.1729,0.1925,0.208,0.2145,0.2151,0.2295,0.2405,0.2283,0.2759,0.3159,0.3395,0.3757,0.4046,0.4176,0.438,0.447,0.4215,0.4422,0.4423,2.8057,2.7846,2.7612,2.7532,2.7403,2.6318,2.5271,2.4291,2.3346,2.2425,2.1484,2.0982,2.0401,1.9775,1.9429,1.8656,1.7517,1.7101,1.6117,1.478,1.4097,1.3208,1.2187,1.1558,1.0812,0.9916,0.9387,0.8703,0.8016,0.7748,0.7369,0.6903,0.6322,0.5492,0.4476,0.3452,0.2792,0.2447,0.199,0.1781,0.1756,0.1341,0.1203,0.1409,0.1458,0.1499,0.1576,0.1718,0.1918,0.2114,0.2152,0.2312,0.2637,0.2564,0.2543,0.269,0.253,0.243,0.2429,0.2262,0.212,0.2041,0.2042,0.1924,0.1611,0.1448,0.1223,0.1022,0.102,0.1221,0.157,0.1232,0.1154,0.1792,0.1423,0.1155,0.1208,0.1076,0.1166,0.148,0.1256,0.1166,0.1525,0.1391,0.1211,0.1209,0.1233,0.1065,0.0686,0.0646,0.0807,0.1027,0.1022,0.1061,0.1375,0.1533,0.1651,0.173,0.1807,0.1955,0.2088,0.2275,0.2393,0.2623,0.3021,0.3485,0.3816,0.4175,0.4382,0.4553,0.4619,0.466,0.4519,0.4513,0.4441,2.8622,2.8443,2.8066,2.7865,2.7664,2.649,2.5403,2.446,2.3659,2.2685,2.1581,2.1108,2.0595,2.002,1.935,1.8628,1.7808,1.6873,1.5975,1.5083,1.4283,1.3404,1.2452,1.1744,1.0962,1.0143,0.9306,0.8627,0.8102,0.7676,0.7369,0.6969,0.5944,0.5035,0.4437,0.3339,0.2649,0.2379,0.1742,0.1561,0.1841,0.1379,0.1272,0.1554,0.1595,0.1631,0.1674,0.1784,0.1951,0.2109,0.2152,0.232,0.2627,0.2516,0.25,0.266,0.2392,0.2196,0.2119,0.2003,0.1887,0.1887,0.1887,0.1812,0.1588,0.1561,0.1507,0.1336,0.129,0.15,0.1942,0.1561,0.1436,0.2064,0.157,0.121,0.1166,0.0987,0.0987,0.1301,0.1031,0.0942,0.1211,0.1211,0.1116,0.1103,0.1,0.0754,0.0399,0.032,0.056,0.091,0.0982,0.0982,0.1375,0.1493,0.1533,0.1573,0.1651,0.1877,0.2141,0.2299,0.2434,0.2835,0.326,0.3661,0.4114,0.4349,0.4595,0.4756,0.4761,0.4693,0.4574,0.4382,0.4268,2.9353,2.8712,2.8636,2.7991,2.7028,2.6652,2.5795,2.4526,2.418,2.3232,2.1762,2.1146,2.075,2.044,1.9618,1.8807,1.8023,1.7208,1.638,1.563,1.4771,1.3804,1.2783,1.1855,1.0887,0.9954,0.9122,0.8551,0.8102,0.768,0.7211,0.658,0.549,0.4782,0.4246,0.3085,0.2346,0.2038,0.1678,0.1566,0.1674,0.138,0.1235,0.1235,0.1559,0.1649,0.1573,0.173,0.194,0.2137,0.2026,0.2108,0.2462,0.2501,0.2503,0.251,0.2313,0.2119,0.1964,0.1926,0.1887,0.1887,0.1848,0.1704,0.1375,0.1325,0.1321,0.1253,0.1117,0.1361,0.195,0.1665,0.1567,0.2109,0.166,0.1391,0.1346,0.1346,0.1391,0.1391,0.1166,0.1076,0.1076,0.1076,0.1016,0.0899,0.0673,0.0491,0.0277,0.0158,0.0237,0.059,0.0629,0.0746,0.0982,0.1179,0.1375,0.1573,0.173,0.1992,0.2284,0.2564,0.2755,0.2746,0.2983,0.3428,0.3808,0.4083,0.4307,0.4701,0.474,0.4662,0.4462,0.419,0.3958,2.9897,2.9759,2.9234,2.8296,2.7234,2.7345,2.6259,2.4357,2.4364,2.3431,2.1869,2.1272,2.0838,2.0381,1.9499,1.8668,1.7769,1.7046,1.6121,1.5098,1.4372,1.3579,1.2709,1.1818,1.0999,1.0212,0.943,0.8784,0.825,0.7638,0.7138,0.6696,0.5758,0.4977,0.4455,0.344,0.2748,0.2426,0.1949,0.1695,0.1598,0.1333,0.1212,0.1375,0.147,0.1587,0.1661,0.1667,0.1762,0.1998,0.1847,0.1847,0.2121,0.2161,0.2159,0.2121,0.1963,0.1767,0.1572,0.1573,0.1493,0.1336,0.1297,0.1184,0.0916,0.0773,0.0777,0.0891,0.092,0.1331,0.1932,0.1526,0.1461,0.1968,0.1615,0.1256,0.1391,0.1301,0.1256,0.1346,0.1076,0.0852,0.0852,0.0762,0.0573,0.0383,0.025,0.0286,0.004,-0.0039,0.0157,0.0511,0.0629,0.0629,0.0746,0.1179,0.1415,0.1455,0.1573,0.1877,0.2375,0.2581,0.2663,0.2725,0.304,0.3364,0.3769,0.4003,0.4196,0.4545,0.482,0.482,0.4621,0.4465,0.4192,3.0408,3.0541,2.9671,2.8651,2.7713,2.7626,2.6488,2.4724,2.4419,2.3468,2.2067,2.1474,2.0896,2.0294,1.9518,1.8686,1.7885,1.7042,1.6126,1.5037,1.433,1.3542,1.282,1.2003,1.126,1.055,0.976,0.8937,0.8174,0.7484,0.7022,0.6692,0.5835,0.5147,0.4649,0.3779,0.3057,0.2716,0.2206,0.1834,0.1599,0.1356,0.1231,0.1334,0.1353,0.1502,0.1796,0.1645,0.1658,0.1884,0.1728,0.1651,0.1808,0.1887,0.1887,0.1808,0.1691,0.1493,0.1218,0.1179,0.1103,0.095,0.0868,0.079,0.0601,0.0448,0.0369,0.0535,0.0766,0.1217,0.1782,0.153,0.1546,0.2061,0.166,0.1346,0.1391,0.1256,0.1256,0.1346,0.0987,0.0673,0.0627,0.0446,0.0175,-0.0043,0.0084,0.0165,-0.02,-0.0118,0.0118,0.0396,0.0513,0.0629,0.0707,0.1179,0.1456,0.1547,0.1669,0.2043,0.2529,0.2664,0.273,0.2924,0.3239,0.35,0.3771,0.3995,0.4233,0.4545,0.474,0.4781,0.4506,0.4426,0.4231,3.1151,3.0831,2.9824,2.9143,2.8556,2.7377,2.6389,2.5442,2.4524,2.3531,2.2547,2.1617,2.0974,2.0527,1.9872,1.9222,1.8497,1.7384,1.6552,1.5934,1.4838,1.4029,1.3419,1.2643,1.1744,1.0738,1.0019,0.896,0.7676,0.7173,0.6788,0.656,0.5648,0.5068,0.483,0.382,0.3049,0.2842,0.2418,0.1994,0.1678,0.1569,0.1377,0.1093,0.1175,0.1484,0.1799,0.1685,0.1687,0.1883,0.1689,0.1612,0.1612,0.1769,0.1808,0.1651,0.1612,0.1415,0.1022,0.0984,0.0951,0.0927,0.0758,0.0641,0.0621,0.0419,0.0294,0.0336,0.0559,0.1003,0.1614,0.1676,0.1785,0.2108,0.193,0.1615,0.1436,0.1391,0.1391,0.1346,0.0942,0.0628,0.0448,0.0176,0.0044,-0.0086,0.0,-0.0082,-0.0285,-0.02,0.004,0.0161,0.04,0.0669,0.0904,0.1225,0.1553,0.1651,0.187,0.2289,0.2697,0.2974,0.3023,0.3113,0.3463,0.3706,0.3835,0.4036,0.4309,0.4504,0.4543,0.4504,0.4506,0.3839,0.3692,3.1172,3.097,3.0675,3.0036,2.911,2.8568,2.7348,2.5681,2.519,2.4077,2.2714,2.1769,2.1146,2.076,2.0098,1.9123,1.7985,1.7232,1.6217,1.5096,1.4455,1.3731,1.2936,1.2599,1.1892,1.0887,1.0363,0.9382,0.7983,0.7484,0.7134,0.6753,0.6177,0.5592,0.5004,0.4421,0.393,0.3455,0.3116,0.2815,0.2571,0.2428,0.2176,0.1921,0.161,0.161,0.1881,0.1689,0.1571,0.1531,0.1453,0.1415,0.1415,0.1454,0.1493,0.1415,0.1415,0.1336,0.1181,0.1156,0.1041,0.0757,0.0691,0.0615,0.0496,0.0296,0.0172,0.0345,0.0438,0.0798,0.1328,0.1545,0.1635,0.1835,0.1705,0.1525,0.1436,0.1391,0.1346,0.1166,0.0807,0.0404,0.0179,-0.0044,-0.0261,-0.0391,-0.0297,-0.0334,-0.0457,-0.0247,0.0082,0.033,0.0449,0.0566,0.1109,0.1257,0.1457,0.1686,0.1915,0.206,0.2385,0.3051,0.323,0.3044,0.3386,0.3653,0.3715,0.389,0.4201,0.4638,0.4636,0.4543,0.4665,0.4036,0.387,3.1432,3.1173,3.107,3.0441,2.9469,2.9035,2.783,2.6088,2.5635,2.4517,2.3025,2.2138,2.1492,2.0905,2.0372,1.935,1.7988,1.7386,1.6384,1.5141,1.4581,1.3925,1.3248,1.2979,1.2335,1.1292,1.0513,0.9501,0.8289,0.7714,0.7288,0.6903,0.6563,0.6018,0.5354,0.5085,0.4694,0.4227,0.3769,0.3416,0.326,0.2952,0.2781,0.2705,0.2315,0.2119,0.2156,0.1806,0.1533,0.1414,0.1335,0.1258,0.1179,0.11,0.11,0.1061,0.1061,0.1022,0.0984,0.0997,0.0845,0.0563,0.0492,0.0457,0.0374,0.0128,0.0087,0.0218,0.0355,0.0628,0.0984,0.1195,0.1457,0.179,0.1705,0.148,0.1391,0.1346,0.1166,0.0897,0.0628,0.0269,-0.009,-0.0222,-0.0396,-0.0659,-0.0475,-0.0426,-0.0511,-0.0254,0.0085,0.0381,0.029,0.0496,0.092,0.1083,0.1372,0.1603,0.1998,0.2107,0.2294,0.2964,0.3323,0.3093,0.314,0.3412,0.3634,0.3766,0.4145,0.4708,0.468,0.4465,0.4426,0.427,0.3986,3.2056,3.1455,3.0999,3.0388,2.9557,2.8645,2.768,2.6783,2.5831,2.4768,2.3553,2.2746,2.1849,2.1021,2.0673,1.9908,1.8865,1.802,1.7225,1.6497,1.5358,1.4552,1.4119,1.3579,1.2863,1.1929,1.0443,0.9203,0.8365,0.7829,0.7369,0.6942,0.6749,0.6367,0.586,0.5664,0.5386,0.4902,0.4254,0.3754,0.3407,0.3171,0.3175,0.3368,0.3173,0.2979,0.2785,0.2042,0.1609,0.1529,0.1374,0.114,0.0943,0.0746,0.0629,0.0668,0.0629,0.0511,0.0393,0.0395,0.0486,0.0372,0.0207,0.0209,0.0344,0.0174,0.0044,0.0131,0.0222,0.0404,0.0493,0.0805,0.1297,0.1974,0.1795,0.157,0.1391,0.1211,0.0942,0.0538,0.0404,0.0179,-0.0224,-0.0357,-0.04,-0.0534,-0.0483,-0.0391,-0.0391,-0.0172,0.0,0.0086,0.017,0.042,0.0679,0.0899,0.1247,0.1598,0.204,0.2317,0.2467,0.2944,0.3339,0.3272,0.3233,0.3468,0.3357,0.3546,0.385,0.4245,0.4242,0.4371,0.4302,0.4152,0.3663,3.2432,3.1893,3.1182,3.0545,2.9952,2.9128,2.8256,2.7411,2.6647,2.5474,2.416,2.3302,2.2318,2.1428,2.0944,2.045,1.9801,1.9021,1.7883,1.6412,1.5605,1.4875,1.4141,1.3564,1.2562,1.1298,1.0293,0.9241,0.8331,0.7987,0.7599,0.7057,0.7099,0.6749,0.598,0.6131,0.6014,0.5506,0.5043,0.474,0.4558,0.439,0.4231,0.407,0.388,0.3567,0.3017,0.2234,0.1608,0.1177,0.0943,0.0825,0.0825,0.0707,0.0668,0.0786,0.0668,0.0589,0.0552,0.0526,0.0452,0.0374,0.0298,0.0303,0.0349,0.0176,0.0089,0.0178,0.0045,0.0,0.0448,0.0404,0.0718,0.1346,0.1346,0.1301,0.1166,0.0852,0.0583,0.0448,0.0404,0.0224,0.0,-0.0134,-0.0266,-0.0447,-0.0397,-0.035,-0.0309,0.0,0.0264,0.0265,0.0347,0.0427,0.0734,0.0911,0.1084,0.1485,0.1934,0.2252,0.2493,0.2852,0.3214,0.3314,0.3318,0.3274,0.3207,0.3326,0.3598,0.3942,0.4154,0.4259,0.429,0.3993,0.3538,3.3002,3.2405,3.1678,3.0958,3.0308,2.9537,2.8707,2.7792,2.7148,2.6112,2.4849,2.393,2.2984,2.2017,2.1343,2.0799,2.0372,1.9706,1.8605,1.714,1.6272,1.547,1.4552,1.3633,1.2429,1.1086,1.0363,0.9501,0.8365,0.8059,0.7599,0.7057,0.7169,0.6942,0.6251,0.6444,0.6388,0.6018,0.5588,0.5319,0.5155,0.4974,0.474,0.4426,0.4194,0.3763,0.3093,0.239,0.1726,0.1139,0.0786,0.0668,0.0746,0.0589,0.0513,0.0517,0.0478,0.036,0.0363,0.029,0.021,0.0084,0.0087,0.0044,0.0,-0.0134,-0.0045,0.0,-0.0179,-0.0179,0.0269,0.0404,0.0493,0.0897,0.0942,0.0942,0.0852,0.0583,0.0359,0.0269,0.0224,0.0179,0.0045,-0.0134,-0.0133,-0.0268,-0.0311,-0.0265,-0.0224,0.0134,0.0314,0.0446,0.0483,0.0655,0.0925,0.1012,0.0963,0.1322,0.1776,0.2049,0.2285,0.2811,0.3273,0.2992,0.2921,0.2873,0.2781,0.3025,0.333,0.3677,0.4073,0.4164,0.4144,0.3867,0.3536,3.3576,3.2883,3.2303,3.1434,3.0545,2.9756,2.887,2.8007,2.7376,2.655,2.5508,2.4524,2.3596,2.2713,2.1694,2.1041,2.0566,2.002,1.9371,1.8497,1.7477,1.6332,1.5072,1.3863,1.2545,1.1256,1.0657,0.9797,0.8679,0.8106,0.7476,0.6976,0.6942,0.6788,0.6483,0.6521,0.6475,0.6353,0.586,0.5434,0.527,0.4965,0.4621,0.4384,0.4194,0.3802,0.3095,0.2391,0.1804,0.1296,0.0786,0.0629,0.0589,0.0432,0.0238,0.0161,0.0041,0.0,0.0,-0.0168,-0.0297,-0.0259,-0.0305,-0.0483,-0.0536,-0.0448,-0.0359,-0.0314,-0.0404,-0.0314,0.0,0.0314,0.0583,0.0673,0.0762,0.0673,0.0448,0.0448,0.0314,0.0135,0.0045,0.0045,0.009,-0.0134,-0.009,-0.009,-0.0134,-0.0134,-0.0045,0.0179,0.0359,0.0445,0.0486,0.0663,0.0888,0.102,0.1016,0.1418,0.1785,0.2013,0.2288,0.2814,0.2986,0.2749,0.2474,0.2429,0.25,0.2752,0.3195,0.3703,0.3964,0.4035,0.3961,0.3695,0.3555,3.3212,3.2854,3.21,3.1339,3.0555,2.9825,2.8991,2.8148,2.7634,2.6695,2.5574,2.4859,2.3864,2.2539,2.1939,2.1272,2.0683,2.0372,1.9706,1.8807,1.8218,1.6452,1.4601,1.3671,1.2707,1.151,1.0712,0.9782,0.8804,0.8099,0.75,0.6903,0.6999,0.676,0.6212,0.6141,0.6096,0.6018,0.5631,0.5285,0.5085,0.4965,0.4657,0.4233,0.4231,0.38,0.2901,0.2002,0.1296,0.0864,0.0668,0.0668,0.0786,0.0511,0.0316,0.0358,0.0,0.0,0.0,-0.0251,-0.0298,-0.0174,-0.0397,-0.058,-0.0493,-0.0583,-0.0538,-0.0493,-0.0538,-0.0538,-0.0314,0.0,0.0314,0.0628,0.0718,0.0673,0.0583,0.0493,0.0359,0.0314,0.0404,0.0404,0.0314,0.0314,0.0314,0.0269,0.0224,0.009,0.0135,0.0224,0.0448,0.0359,0.0357,0.058,0.0803,0.0936,0.1159,0.1562,0.1879,0.215,0.2422,0.2865,0.2776,0.2505,0.2228,0.2093,0.2257,0.249,0.3057,0.3707,0.3707,0.374,0.3781,0.3641,0.3562,3.3322,3.3171,3.2266,3.1465,3.0735,3.0016,2.9141,2.8279,2.7805,2.7064,2.6073,2.5436,2.4398,2.302,2.2202,2.1423,2.0741,2.0167,1.9508,1.8785,1.7764,1.6195,1.4544,1.3727,1.2833,1.1914,1.0885,0.9941,0.8986,0.8116,0.7371,0.6941,0.6894,0.6588,0.6151,0.5951,0.589,0.574,0.5319,0.4983,0.4776,0.446,0.4109,0.3722,0.3641,0.3173,0.2433,0.1767,0.1297,0.1061,0.0943,0.0943,0.1022,0.0668,0.0436,0.0483,0.0,0.0,0.0,-0.0258,-0.0304,-0.022,-0.0446,-0.0537,-0.0538,-0.0628,-0.0628,-0.0583,-0.0718,-0.0718,-0.0493,-0.0135,0.0404,0.0897,0.0897,0.0852,0.0718,0.0538,0.0448,0.0493,0.0538,0.0583,0.0493,0.0494,0.0404,0.0404,0.0359,0.0269,0.0224,0.0404,0.0538,0.0538,0.0584,0.0806,0.0984,0.1118,0.1162,0.1567,0.2106,0.2332,0.2466,0.2823,0.2645,0.2332,0.1973,0.1926,0.2313,0.266,0.3061,0.3488,0.3458,0.3531,0.3613,0.3678,0.3558,3.3598,3.3505,3.2588,3.173,3.0927,3.0172,2.9185,2.8198,2.7829,2.7283,2.6576,2.5971,2.4818,2.3694,2.2455,2.1548,2.0799,1.9784,1.9121,1.8304,1.7188,1.5718,1.4892,1.3715,1.2915,1.2095,1.1092,1.0085,0.9141,0.8019,0.7301,0.694,0.6699,0.6434,0.6119,0.5931,0.5739,0.5398,0.4933,0.4528,0.424,0.3798,0.3446,0.3096,0.2723,0.2496,0.2064,0.1707,0.1509,0.1539,0.138,0.1305,0.1225,0.0829,0.0524,0.0291,0.0084,0.0,0.0,-0.0354,-0.0446,-0.0402,-0.0448,-0.0538,-0.0673,-0.0673,-0.0673,-0.0583,-0.0897,-0.0762,-0.0448,0.0045,0.0628,0.1122,0.1168,0.099,0.0808,0.0583,0.0493,0.0673,0.0538,0.0493,0.0494,0.0359,0.0135,0.0404,0.0404,0.0448,0.0404,0.0493,0.0718,0.0942,0.0987,0.1122,0.1256,0.139,0.1345,0.1524,0.2196,0.2511,0.2377,0.251,0.242,0.2286,0.2196,0.242,0.2864,0.3175,0.3267,0.3347,0.3403,0.35,0.3599,0.3654,0.362,3.3025,3.2667,3.2426,3.1553,3.0398,2.9941,2.8982,2.7655,2.726,2.6852,2.6211,2.5621,2.4668,2.3425,2.253,2.1607,2.0644,1.9715,1.8993,1.7821,1.673,1.5767,1.4933,1.3745,1.2789,1.196,1.0752,0.9773,0.9016,0.8304,0.7546,0.7017,0.6853,0.6586,0.5905,0.5507,0.5014,0.4743,0.4426,0.4034,0.3692,0.3446,0.3057,0.2636,0.2234,0.2114,0.2107,0.166,0.1399,0.138,0.1333,0.1292,0.1212,0.0901,0.0583,0.0336,-0.0042,-0.0256,-0.0349,-0.0572,-0.0793,-0.0492,-0.0673,-0.0897,-0.0718,-0.0718,-0.0628,-0.0538,-0.0628,-0.0583,0.0,0.0269,0.0719,0.1172,0.123,0.1141,0.1126,0.0898,0.0719,0.0673,0.0584,0.0404,0.0494,0.0449,0.0359,0.0449,0.0494,0.0538,0.0584,0.0675,0.0898,0.1169,0.1219,0.1266,0.1404,0.1543,0.1595,0.1681,0.2264,0.2573,0.2436,0.2689,0.2734,0.2689,0.2599,0.2957,0.336,0.3184,0.3184,0.3264,0.3392,0.3395,0.3481,0.3599,0.3728,3.2784,3.2481,3.1932,3.1015,2.9995,2.9433,2.8462,2.7341,2.7015,2.6474,2.5905,2.5587,2.4646,2.314,2.2548,2.167,2.0243,1.9143,1.8184,1.7212,1.6278,1.5458,1.4629,1.3737,1.2924,1.2157,1.0691,0.9781,0.9255,0.8408,0.7598,0.7262,0.7007,0.6579,0.6032,0.5401,0.4892,0.4367,0.3895,0.3452,0.3149,0.2707,0.2412,0.2032,0.1737,0.1679,0.1734,0.1531,0.135,0.1296,0.1308,0.1316,0.1269,0.0999,0.0761,0.0598,0.0342,0.0,-0.0219,-0.0397,-0.0532,-0.0537,-0.0718,-0.0718,-0.0718,-0.0718,-0.0807,-0.0852,-0.0897,-0.0718,0.009,0.0363,0.0727,0.1233,0.1345,0.1348,0.1327,0.1092,0.0951,0.0948,0.0905,0.0767,0.0722,0.0589,0.0592,0.0639,0.0776,0.0822,0.0867,0.0958,0.113,0.1356,0.1318,0.1414,0.1555,0.1702,0.1813,0.1992,0.2349,0.2432,0.2333,0.2762,0.327,0.3181,0.3092,0.3451,0.3765,0.3454,0.3275,0.3492,0.3578,0.3403,0.3401,0.3527,0.3614,3.2616,3.237,3.1298,3.0472,2.9681,2.8902,2.8006,2.7062,2.6802,2.6266,2.5661,2.5732,2.4611,2.3238,2.2706,2.1499,1.9804,1.8456,1.7497,1.6771,1.6064,1.52,1.4328,1.3603,1.2966,1.24,1.0869,1.0009,0.9356,0.8492,0.7768,0.7468,0.6996,0.6524,0.6181,0.5691,0.493,0.424,0.3615,0.3133,0.2768,0.2196,0.1735,0.1479,0.1404,0.1372,0.142,0.1331,0.127,0.1163,0.1203,0.1127,0.1041,0.1051,0.0899,0.0874,0.0699,0.0528,0.0044,-0.0134,-0.0269,-0.0583,-0.0493,-0.0493,-0.0583,-0.0583,-0.0718,-0.0987,-0.1031,-0.0807,-0.009,0.0319,0.0783,0.1253,0.1463,0.1516,0.1451,0.1304,0.1252,0.1227,0.1004,0.0869,0.0872,0.0784,0.0787,0.0837,0.1023,0.1116,0.1162,0.1253,0.1429,0.161,0.1668,0.1719,0.1863,0.2006,0.2121,0.2213,0.2481,0.2461,0.2446,0.3133,0.3633,0.363,0.3719,0.4032,0.4121,0.3942,0.3853,0.3896,0.3851,0.3808,0.3719,0.354,0.354,3.199,3.1273,3.0989,3.0393,2.9485,2.8717,2.7946,2.7155,2.6417,2.5999,2.5786,2.5274,2.4556,2.3577,2.2849,2.1356,1.9472,1.8164,1.7302,1.6654,1.5986,1.5153,1.432,1.3521,1.2729,1.1843,1.0809,0.999,0.9248,0.8607,0.7948,0.7358,0.7048,0.6574,0.5845,0.5316,0.4841,0.4178,0.3555,0.3135,0.2694,0.2192,0.167,0.1404,0.1365,0.1378,0.135,0.1342,0.1116,0.0643,0.0732,0.0474,0.0258,0.0481,0.0531,0.0489,0.0846,0.0803,0.0179,-0.0179,-0.0224,-0.0224,-0.0269,-0.0404,-0.0404,-0.0314,-0.0449,-0.054,-0.063,-0.045,-0.0045,0.0414,0.0787,0.1168,0.1384,0.155,0.1532,0.1482,0.1432,0.135,0.1116,0.0928,0.0977,0.1031,0.1041,0.1139,0.1233,0.1376,0.1423,0.1565,0.1751,0.1939,0.2039,0.2136,0.2233,0.2376,0.2481,0.2433,0.2606,0.2711,0.2914,0.3584,0.3952,0.3946,0.4121,0.4433,0.4478,0.4431,0.4342,0.4253,0.4255,0.4257,0.3898,0.3585,0.354,3.1824,3.1128,3.0566,2.9922,2.9191,2.8362,2.7489,2.6745,2.6151,2.5701,2.5349,2.5009,2.4262,2.337,2.306,2.1545,1.9534,1.8109,1.7291,1.6591,1.5903,1.5142,1.4318,1.3496,1.2629,1.1748,1.0852,1.0077,0.9253,0.8636,0.8065,0.7492,0.7051,0.6387,0.5805,0.5318,0.4819,0.4214,0.3651,0.3186,0.2821,0.2229,0.1702,0.1468,0.1391,0.1355,0.123,0.1358,0.1166,0.0815,0.0691,0.0391,0.0175,0.0089,0.0314,0.0269,0.0718,0.0852,0.0314,0.0135,0.009,-0.0224,-0.0224,-0.0314,-0.0448,-0.0404,-0.0316,-0.0455,-0.0554,-0.0417,-0.0046,0.0471,0.0857,0.1151,0.142,0.1525,0.1611,0.1712,0.1645,0.1528,0.1437,0.1334,0.1216,0.1277,0.13,0.1404,0.1549,0.1645,0.1742,0.1887,0.2128,0.2169,0.2316,0.2381,0.2479,0.2628,0.2771,0.2716,0.2738,0.2843,0.3034,0.3582,0.3982,0.4174,0.4438,0.479,0.4971,0.4968,0.4835,0.4612,0.4523,0.4344,0.3942,0.3674,0.3674,3.1827,3.108,3.0269,2.9696,2.9138,2.811,2.7305,2.6562,2.5977,2.5463,2.4975,2.47,2.3935,2.2954,2.2397,2.1383,1.935,1.8121,1.7225,1.6284,1.5741,1.5048,1.4126,1.3492,1.2697,1.1472,1.0771,1.0038,0.934,0.8504,0.7933,0.7319,0.6653,0.6121,0.5716,0.5179,0.4863,0.4437,0.38,0.3285,0.2864,0.2259,0.1717,0.1483,0.1442,0.1402,0.1188,0.1309,0.1214,0.0949,0.0735,0.0523,0.0219,-0.0044,-0.0045,0.0179,0.0448,0.0493,0.0493,0.0538,0.0404,0.0045,0.0,-0.0179,-0.0405,-0.0406,-0.0409,-0.0555,-0.0611,-0.0427,0.0,0.0484,0.0831,0.1081,0.1342,0.1608,0.1639,0.178,0.1924,0.1865,0.1775,0.1763,0.1735,0.1738,0.1822,0.2023,0.2122,0.2271,0.2368,0.2369,0.2464,0.2448,0.2549,0.2579,0.2689,0.2845,0.2989,0.3031,0.3037,0.3133,0.3179,0.3361,0.3724,0.416,0.4703,0.5057,0.5282,0.5419,0.5238,0.4968,0.4746,0.452,0.4342,0.403,0.3807,3.1917,3.0656,3.0553,3.0226,2.9602,2.8474,2.7871,2.7484,2.5967,2.5259,2.5018,2.4306,2.3631,2.2865,2.1532,2.0174,1.8993,1.8145,1.7104,1.5957,1.5604,1.4858,1.3662,1.3293,1.2412,1.1321,1.0598,0.9946,0.9209,0.8197,0.7404,0.6922,0.6343,0.5633,0.5366,0.506,0.4701,0.4596,0.4103,0.3472,0.2928,0.2482,0.2044,0.1782,0.165,0.1515,0.1289,0.132,0.118,0.0797,0.0743,0.0351,-0.0178,-0.0492,-0.0583,-0.0404,0.0,0.0448,0.0448,0.0583,0.0673,0.0404,0.0404,0.0224,-0.0136,-0.032,-0.0323,-0.0092,-0.0331,-0.0335,0.0,0.0487,0.0735,0.1038,0.135,0.1562,0.1708,0.1848,0.1993,0.2238,0.2238,0.2299,0.2339,0.235,0.2413,0.2565,0.2765,0.2913,0.2909,0.2853,0.2651,0.2583,0.2625,0.2702,0.2812,0.2976,0.3079,0.323,0.3241,0.3325,0.3255,0.3291,0.3622,0.4116,0.4656,0.5013,0.5102,0.5238,0.5371,0.5327,0.5057,0.4968,0.4966,0.4565,0.4028,3.1952,3.0566,3.017,2.976,2.9336,2.8585,2.7769,2.6947,2.603,2.5241,2.46,2.3951,2.3363,2.265,2.1315,2.0264,1.9368,1.8506,1.7348,1.6022,1.5527,1.476,1.3798,1.313,1.2315,1.1429,1.0511,0.9724,0.8938,0.8197,0.7408,0.6792,0.6299,0.5897,0.5364,0.5193,0.5191,0.4964,0.4295,0.3405,0.269,0.2109,0.1615,0.1436,0.1436,0.1301,0.1163,0.1292,0.1154,0.0761,0.0621,0.0311,-0.0045,-0.0269,-0.0359,-0.0448,0.0179,0.0493,0.0448,0.0628,0.0673,0.0673,0.0584,0.0316,-0.0091,-0.0326,-0.0379,-0.0239,-0.0487,-0.0442,-0.0049,0.0496,0.0797,0.1101,0.1407,0.1711,0.1869,0.1919,0.2114,0.2411,0.2708,0.2868,0.2927,0.2874,0.2972,0.3222,0.3323,0.3422,0.3371,0.3221,0.2968,0.2615,0.2663,0.272,0.2873,0.3029,0.313,0.3232,0.323,0.3262,0.3174,0.3305,0.3592,0.3716,0.4012,0.4346,0.4748,0.5104,0.5329,0.5327,0.5327,0.5235,0.5099,0.4648,0.4188,3.1863,3.0646,2.9943,2.9485,2.9163,2.8721,2.7925,2.6872,2.6104,2.5279,2.4307,2.3511,2.2803,2.2303,2.1134,2.0175,1.9711,1.869,1.7495,1.6432,1.5552,1.4696,1.3749,1.3003,1.2321,1.1591,1.0332,0.9598,0.8986,0.8201,0.7452,0.6704,0.6254,0.5944,0.5633,0.5324,0.5235,0.501,0.4206,0.3405,0.2691,0.2108,0.1659,0.1435,0.1346,0.1256,0.0942,0.1076,0.1076,0.0896,0.0717,0.0537,0.0359,0.0224,0.009,-0.0045,0.0269,0.0495,0.0541,0.0722,0.0765,0.0768,0.0592,0.0276,-0.0373,-0.0522,-0.053,-0.0488,-0.0746,-0.0603,-0.0252,0.0252,0.0504,0.0907,0.1363,0.1817,0.2221,0.2272,0.2474,0.2771,0.3119,0.3475,0.3531,0.338,0.3479,0.383,0.393,0.3981,0.3831,0.3682,0.3279,0.2925,0.2876,0.2977,0.313,0.323,0.3282,0.3331,0.3281,0.3281,0.3277,0.3225,0.3335,0.3457,0.356,0.4062,0.4667,0.4954,0.524,0.5238,0.5235,0.528,0.5099,0.4685,0.4216,3.1466,3.0927,3.0352,2.9829,2.9382,2.8989,2.8552,2.7779,2.6302,2.5239,2.4331,2.2919,2.2008,2.1551,2.081,1.9946,1.9196,1.8242,1.7273,1.6294,1.5384,1.4559,1.3679,1.2865,1.2091,1.1348,1.0347,0.9646,0.9122,0.8332,0.7408,0.652,0.6299,0.5769,0.5502,0.5369,0.501,0.4699,0.4028,0.3446,0.3002,0.2644,0.2377,0.1929,0.2019,0.2019,0.1166,0.1076,0.1076,0.0987,0.0942,0.0897,0.0718,0.0673,0.0493,0.0404,0.0359,0.0587,0.0772,0.0907,0.1045,0.0922,0.0655,0.0142,-0.0476,-0.0726,-0.0735,-0.0739,-0.1002,-0.0958,-0.0657,-0.0303,0.0202,0.071,0.1269,0.1825,0.2278,0.2726,0.2928,0.323,0.3531,0.3833,0.4135,0.3984,0.3982,0.4282,0.4433,0.4483,0.4284,0.4083,0.3682,0.338,0.3229,0.3281,0.3484,0.3584,0.3583,0.3583,0.3583,0.3509,0.3459,0.3374,0.321,0.3367,0.3525,0.4051,0.4474,0.4743,0.4975,0.506,0.5099,0.5134,0.5134,0.4869,0.428,3.1031,3.0284,2.9602,2.9398,2.9383,2.8339,2.7737,2.7312,2.5999,2.453,2.3339,2.237,2.183,2.1498,2.1034,2.0419,1.9971,1.8924,1.7742,1.6561,1.5538,1.4585,1.3697,1.2847,1.218,1.1576,1.0591,0.9738,0.9218,0.8468,0.7672,0.6962,0.6609,0.6343,0.6033,0.5555,0.5102,0.4565,0.3896,0.3181,0.2735,0.2377,0.2153,0.193,0.1705,0.1705,0.1256,0.0987,0.0897,0.0852,0.0897,0.0942,0.0987,0.0942,0.0897,0.0852,0.0762,0.0947,0.1048,0.105,0.0969,0.1032,0.0712,0.0192,-0.0339,-0.0587,-0.0742,-0.0897,-0.1155,-0.1161,-0.0758,-0.0303,0.0202,0.0662,0.1226,0.1889,0.2393,0.2896,0.3233,0.3484,0.3784,0.4085,0.4384,0.4636,0.4634,0.4734,0.4885,0.4987,0.4736,0.4485,0.4083,0.3783,0.3632,0.3481,0.3635,0.3784,0.3882,0.3833,0.3783,0.3654,0.3524,0.3294,0.3166,0.3324,0.3485,0.3891,0.4201,0.4499,0.4755,0.5013,0.5043,0.5024,0.4964,0.4889,0.4338,3.0618,2.9795,2.8936,2.8744,2.89,2.7799,2.7039,2.6519,2.5586,2.4013,2.2185,2.1865,2.1553,2.1239,2.0961,2.0546,2.0022,1.916,1.8056,1.6826,1.5606,1.4546,1.3531,1.2695,1.1871,1.1514,1.0713,0.9733,0.9305,0.8644,0.7981,0.7496,0.7231,0.689,0.6323,0.5818,0.531,0.4616,0.3807,0.2914,0.2424,0.2378,0.2019,0.1973,0.1883,0.1705,0.1436,0.1121,0.0942,0.0942,0.0987,0.0987,0.1076,0.1166,0.1256,0.1256,0.1302,0.1438,0.1408,0.1339,0.113,0.1151,0.1164,0.0636,0.0099,-0.0346,-0.0449,-0.0553,-0.0959,-0.1111,-0.0556,0.0102,0.0511,0.1029,0.1866,0.2541,0.2783,0.3181,0.3458,0.3688,0.4038,0.4289,0.4459,0.4714,0.5017,0.5056,0.5236,0.5286,0.5135,0.4834,0.4435,0.4185,0.3984,0.3883,0.3784,0.3783,0.3781,0.3984,0.3922,0.3676,0.3512,0.3324,0.3311,0.3603,0.3727,0.3778,0.4034,0.4395,0.475,0.5057,0.5073,0.5078,0.4713,0.4594,0.4193,3.008,2.9738,2.8562,2.8081,2.8038,2.7512,2.6761,2.5982,2.5115,2.3629,2.1794,2.115,2.0736,2.0564,2.0564,2.0246,1.982,1.9131,1.8071,1.6713,1.5398,1.4192,1.3061,1.2137,1.1515,1.0676,1.0033,0.9602,0.9262,0.8648,0.8164,0.7819,0.7413,0.7037,0.631,0.5575,0.4929,0.4316,0.3681,0.2959,0.2601,0.2825,0.2645,0.2241,0.2374,0.2241,0.1704,0.1211,0.1076,0.1211,0.1211,0.1301,0.1525,0.157,0.1525,0.1391,0.1391,0.154,0.1756,0.1838,0.1683,0.1419,0.1484,0.1249,0.0402,0.0,0.0,-0.0101,-0.0505,-0.0404,0.0102,0.0665,0.098,0.151,0.236,0.2942,0.3183,0.3566,0.3891,0.4008,0.4196,0.4448,0.4577,0.4749,0.5156,0.5392,0.555,0.5536,0.5438,0.5135,0.4736,0.4435,0.4236,0.3883,0.3682,0.363,0.3731,0.3934,0.3967,0.3677,0.3576,0.3517,0.3639,0.3841,0.3779,0.3597,0.3946,0.4302,0.4701,0.5092,0.5207,0.5157,0.4753,0.4272,0.3815,2.9588,2.9279,2.838,2.758,2.6886,2.6328,2.6075,2.5844,2.4438,2.2855,2.1616,2.088,2.0835,2.0835,2.0501,2.0175,1.9923,1.9015,1.7951,1.6179,1.5044,1.3814,1.2668,1.1794,1.1193,1.0754,1.0089,0.9358,0.8999,0.8492,0.8075,0.7735,0.7344,0.6982,0.64,0.5718,0.5096,0.4922,0.4201,0.3449,0.3002,0.3315,0.327,0.251,0.2777,0.2598,0.2061,0.1524,0.1346,0.1436,0.1436,0.1436,0.1615,0.1615,0.1525,0.1436,0.1437,0.1643,0.2064,0.2308,0.2352,0.209,0.1858,0.1716,0.1312,0.0555,0.0454,0.0404,0.0101,0.0151,0.0304,0.0924,0.1349,0.1896,0.2598,0.3127,0.3531,0.4063,0.4433,0.434,0.4467,0.4743,0.4946,0.5085,0.5386,0.5558,0.572,0.5816,0.5754,0.5393,0.4987,0.4636,0.4334,0.3883,0.3632,0.3479,0.353,0.3732,0.3721,0.3547,0.3491,0.3535,0.3394,0.3299,0.3357,0.3417,0.3692,0.4051,0.4661,0.5078,0.4849,0.4685,0.4311,0.3834,0.3393,2.9128,2.8749,2.7877,2.7101,2.6358,2.5761,2.5482,2.505,2.3403,2.2122,2.1356,2.0748,2.0577,2.0755,2.0604,2.0176,2.0016,1.9223,1.7632,1.5828,1.469,1.3369,1.217,1.1409,1.0774,1.0396,0.9811,0.9186,0.8714,0.8213,0.7778,0.7368,0.7069,0.6644,0.6219,0.5796,0.5547,0.5297,0.4625,0.3894,0.3582,0.3537,0.3492,0.3002,0.2823,0.2823,0.242,0.1973,0.1571,0.166,0.166,0.1616,0.1705,0.1705,0.166,0.157,0.1678,0.1944,0.2391,0.2573,0.2617,0.2665,0.2322,0.217,0.2118,0.1513,0.1363,0.1211,0.0859,0.1015,0.1225,0.176,0.2314,0.2937,0.3399,0.3991,0.4333,0.4869,0.4754,0.4705,0.4646,0.4934,0.5252,0.5499,0.5684,0.5792,0.5894,0.593,0.5967,0.5598,0.514,0.4736,0.4435,0.4033,0.358,0.3228,0.3328,0.3531,0.337,0.3157,0.3234,0.3238,0.296,0.2825,0.2986,0.3199,0.3406,0.3754,0.4041,0.4101,0.3892,0.3741,0.3689,0.3373,0.2929,2.8606,2.8204,2.7081,2.662,2.6387,2.556,2.4607,2.3402,2.2201,2.1561,2.1248,2.0351,2.0112,2.0257,2.0254,1.9965,1.9509,1.9035,1.7461,1.5799,1.4447,1.2917,1.1641,1.0828,1.0299,0.9632,0.9176,0.8984,0.8408,0.8108,0.7633,0.7101,0.699,0.6657,0.634,0.6184,0.6015,0.5642,0.5077,0.4387,0.3981,0.3894,0.3539,0.3136,0.3004,0.2959,0.2645,0.2333,0.2293,0.2339,0.2382,0.2382,0.2382,0.2291,0.2067,0.1991,0.207,0.2417,0.2668,0.2745,0.2974,0.3122,0.3079,0.2876,0.2573,0.2271,0.2174,0.218,0.2034,0.2413,0.2747,0.3265,0.3801,0.4293,0.4744,0.5113,0.5398,0.5444,0.521,0.5013,0.4849,0.4992,0.5394,0.5656,0.5891,0.595,0.6041,0.6139,0.608,0.5799,0.534,0.4788,0.4435,0.4133,0.3731,0.3177,0.3027,0.3179,0.2825,0.2614,0.2747,0.2923,0.2742,0.265,0.2831,0.2918,0.2958,0.3021,0.3094,0.3074,0.3183,0.3078,0.3065,0.2872,0.2529,2.8107,2.738,2.7012,2.6308,2.5296,2.4229,2.3286,2.2422,2.1491,2.0774,2.0227,1.9661,1.9514,1.9513,1.9488,1.9091,1.8644,1.7962,1.6594,1.5246,1.4043,1.2659,1.1484,1.0542,0.9867,0.9482,0.9121,0.8795,0.8295,0.7995,0.7667,0.719,0.7187,0.6985,0.678,0.6719,0.6396,0.6071,0.5497,0.4978,0.452,0.4435,0.3812,0.3368,0.3275,0.3232,0.3012,0.2786,0.28,0.2835,0.2306,0.2121,0.2339,0.2158,0.1933,0.2206,0.2435,0.2672,0.2796,0.298,0.326,0.3524,0.3481,0.318,0.2978,0.288,0.2841,0.2857,0.2974,0.3207,0.3577,0.4121,0.466,0.5099,0.5437,0.5709,0.5884,0.5845,0.5607,0.5335,0.5118,0.5087,0.5489,0.581,0.6035,0.6071,0.6131,0.6228,0.6189,0.5904,0.5589,0.5039,0.4537,0.4234,0.3629,0.3126,0.2875,0.2725,0.2422,0.2261,0.2482,0.261,0.2504,0.2423,0.237,0.2359,0.2438,0.2469,0.2508,0.2668,0.2738,0.2591,0.2437,0.2336,0.2251,2.7509,2.681,2.629,2.534,2.4072,2.3174,2.2485,2.188,2.1204,2.0595,2.0044,1.9461,1.9144,1.9162,1.9042,1.8676,1.8225,1.7626,1.6387,1.488,1.3576,1.2423,1.1322,1.0337,0.9699,0.9341,0.9033,0.8589,0.8234,0.787,0.7553,0.7167,0.7429,0.7214,0.6872,0.6647,0.6593,0.6337,0.5986,0.5589,0.5223,0.4905,0.4228,0.3619,0.3565,0.3427,0.3312,0.3177,0.3258,0.3311,0.2767,0.2818,0.2948,0.281,0.2504,0.2691,0.267,0.2997,0.3275,0.3306,0.3726,0.3984,0.3935,0.3732,0.3533,0.3435,0.3419,0.3399,0.3625,0.3866,0.4317,0.4774,0.5194,0.5678,0.5872,0.6121,0.6208,0.6236,0.595,0.5605,0.5491,0.5407,0.558,0.5957,0.6163,0.6217,0.6259,0.6348,0.6218,0.5949,0.5689,0.5338,0.4839,0.4336,0.3731,0.3277,0.2976,0.2725,0.2272,0.2207,0.2322,0.2213,0.2017,0.1893,0.1761,0.1855,0.1938,0.193,0.1968,0.2171,0.2311,0.2187,0.2076,0.2005,0.1932,2.6978,2.6408,2.5203,2.4012,2.2817,2.253,2.2104,2.1595,2.1112,2.0777,2.02,1.9521,1.9063,1.882,1.8641,1.8321,1.7795,1.7185,1.6247,1.4685,1.3464,1.2345,1.1408,1.012,0.9733,0.9336,0.8989,0.8704,0.8379,0.8057,0.7624,0.7099,0.725,0.7138,0.6751,0.6729,0.674,0.6648,0.6376,0.6065,0.5569,0.5144,0.4576,0.3855,0.3616,0.3507,0.3506,0.3582,0.3745,0.3843,0.3811,0.3801,0.3816,0.3774,0.348,0.3371,0.3302,0.3473,0.3759,0.3893,0.4243,0.4496,0.4593,0.451,0.4318,0.4041,0.3974,0.4001,0.4189,0.447,0.4938,0.5316,0.5742,0.6047,0.6292,0.6528,0.6682,0.6599,0.6332,0.5995,0.5764,0.5671,0.5647,0.6013,0.623,0.629,0.6334,0.6416,0.6353,0.6042,0.5789,0.5589,0.514,0.4638,0.4234,0.3729,0.3226,0.2825,0.2369,0.1941,0.1953,0.1811,0.158,0.1592,0.1598,0.1476,0.1446,0.1568,0.1638,0.1748,0.1844,0.1838,0.1769,0.1797,0.2024,2.6578,2.5726,2.4361,2.3266,2.2539,2.2274,2.1725,2.0974,2.037,1.9982,1.9626,1.9151,1.8589,1.8112,1.8135,1.7811,1.7137,1.6755,1.5948,1.4831,1.3542,1.2607,1.1843,1.0511,0.9951,0.9768,0.9432,0.893,0.8659,0.8294,0.7969,0.7605,0.76,0.741,0.6887,0.6946,0.694,0.6792,0.6633,0.6062,0.5228,0.4813,0.4317,0.3743,0.3436,0.356,0.3592,0.3551,0.383,0.4023,0.3545,0.3604,0.3985,0.4138,0.4183,0.4141,0.4153,0.4218,0.4356,0.4542,0.4847,0.5086,0.5192,0.5229,0.5124,0.4718,0.454,0.4592,0.4737,0.5094,0.5496,0.5868,0.6232,0.6473,0.6712,0.6935,0.721,0.7011,0.6704,0.6461,0.6162,0.602,0.5936,0.602,0.6178,0.6274,0.6364,0.6445,0.6448,0.6292,0.5939,0.5689,0.5391,0.4939,0.4636,0.4227,0.3773,0.3202,0.2792,0.2259,0.1737,0.1578,0.1523,0.1508,0.1527,0.1365,0.1299,0.137,0.1484,0.1548,0.1648,0.1769,0.1987,0.205,0.231,2.5829,2.4691,2.3526,2.2547,2.1923,2.1738,2.114,2.025,1.9805,1.9402,1.8995,1.8608,1.806,1.7407,1.7417,1.7221,1.6558,1.6237,1.5541,1.4615,1.3844,1.2863,1.1837,1.0814,1.0255,0.9911,0.9323,0.889,0.8729,0.8345,0.7959,0.7744,0.7813,0.7596,0.7068,0.7062,0.7034,0.6725,0.6722,0.6005,0.4987,0.4723,0.4468,0.3927,0.3667,0.3741,0.3759,0.3814,0.41,0.4485,0.4371,0.4469,0.4802,0.4909,0.491,0.4804,0.4823,0.4871,0.5033,0.5216,0.5473,0.5709,0.5751,0.5791,0.5784,0.5437,0.5205,0.5208,0.5211,0.5517,0.581,0.6195,0.6528,0.6818,0.6935,0.7099,0.7487,0.7636,0.7346,0.7066,0.6801,0.6572,0.6521,0.6589,0.6673,0.6457,0.6498,0.6539,0.6542,0.6492,0.6139,0.5839,0.5641,0.5541,0.5388,0.4924,0.4364,0.3786,0.3209,0.2725,0.2248,0.1814,0.1553,0.1698,0.1602,0.1307,0.1287,0.1309,0.141,0.1511,0.1693,0.1826,0.2045,0.2262,0.2488,2.4943,2.3611,2.2726,2.1898,2.1206,2.1135,2.044,1.9503,1.9332,1.8948,1.8285,1.7961,1.7514,1.7155,1.6845,1.6599,1.6312,1.5982,1.5235,1.4524,1.3928,1.3033,1.1972,1.0901,1.0386,0.9777,0.9112,0.8743,0.8479,0.8181,0.7964,0.7743,0.7503,0.7272,0.6972,0.6805,0.6772,0.6706,0.6499,0.6011,0.5418,0.4903,0.456,0.4205,0.3931,0.3831,0.3964,0.4141,0.4422,0.4839,0.5209,0.5359,0.5508,0.5565,0.5535,0.5475,0.5362,0.5572,0.5765,0.5836,0.612,0.6349,0.6295,0.6305,0.631,0.6198,0.5967,0.5822,0.583,0.587,0.6224,0.6439,0.6712,0.7043,0.721,0.7376,0.7765,0.8094,0.7934,0.766,0.7433,0.7138,0.7147,0.7208,0.7004,0.6774,0.6689,0.6689,0.6639,0.6589,0.6389,0.6189,0.5989,0.5939,0.5889,0.5522,0.4906,0.4347,0.3765,0.3232,0.2749,0.2209,0.1949,0.2006,0.1857,0.1468,0.1269,0.1292,0.1389,0.148,0.1701,0.1881,0.2029,0.2287,0.2557,2.4425,2.2919,2.2391,2.1669,2.0884,2.0683,1.9902,1.8843,1.8574,1.8088,1.7499,1.7112,1.6907,1.6909,1.7039,1.6689,1.5899,1.5658,1.5151,1.4433,1.3893,1.3124,1.2143,1.0982,1.0381,0.9685,0.9078,0.8781,0.8391,0.8193,0.7904,0.7549,0.7549,0.7333,0.7081,0.6937,0.688,0.6708,0.6404,0.5933,0.5654,0.5044,0.4237,0.3859,0.3527,0.3741,0.391,0.4011,0.447,0.5033,0.5591,0.5789,0.5939,0.6047,0.6063,0.6038,0.5975,0.611,0.6298,0.6472,0.6775,0.6779,0.6801,0.6813,0.6869,0.7032,0.6797,0.654,0.6473,0.6346,0.6569,0.6596,0.6824,0.7213,0.7435,0.782,0.8208,0.8374,0.8318,0.8149,0.7901,0.775,0.7696,0.7631,0.7446,0.7226,0.721,0.7153,0.6789,0.6689,0.6639,0.6439,0.6289,0.5987,0.5784,0.5917,0.5438,0.4867,0.4292,0.3777,0.3193,0.2589,0.2386,0.2354,0.201,0.1577,0.1422,0.1274,0.1328,0.1462,0.1717,0.1932,0.2082,0.2277,0.255]}]]